GFSNGP_con_lsi_000.txt.gz
Lid_Strength_Index
13 12 13 12 13 12 14 14 16 14 14 12 11 11 10 9 9 8 8 8 8 7 6 7 6 6 7 7 7 7 8 7 8 7 7 7 6 5 4 4 3 3 4 6
15 13 13 15 13 12 13 13 13 12 13 10 11 10 9 9 8 8 8 8 7 7 7 7 6 7 7 7 7 7 8 8 6 5 5 5 4 4 3 3 4 4 7 8
19 15 16 18 15 14 13 12 13 15 12 12 11 10 9 8 8 8 8 8 8 7 6 6 7 8 8 8 8 8 7 7 7 7 5 5 4 4 5 7 8 9 9 9
19 15 20 14 12 12 13 12 11 12 12 11 10 9 8 7 8 9 8 7 7 7 6 7 7 8 9 9 9 10 9 8 7 7 7 7 8 8 9 9 10 10 10 9
17 17 16 13 12 14 14 14 12 12 10 10 9 10 9 8 8 7 7 7 7 6 7 8 9 11 11 11 11 10 8 8 7 8 8 8 9 10 10 10 10 10 9 10
17 18 19 14 12 11 10 16 11 9 9 8 9 12 9 7 7 7 7 6 6 7 8 8 8 10 9 10 10 10 8 8 8 8 9 10 10 10 10 11 10 9 10 10
15 17 17 12 11 10 15 15 10 10 9 9 10 8 8 7 8 8 6 6 6 7 8 8 8 9 10 11 11 9 8 8 8 9 10 10 11 11 11 11 11 14 14 13
18 18 19 11 10 13 10 9 8 8 9 8 8 8 8 8 8 8 7 7 7 8 8 7 7 10 10 10 8 8 8 9 9 9 9 10 10 11 11 11 12 13 15 13
13 15 11 9 8 8 8 8 9 9 8 8 10 9 9 9 8 7 6 7 8 8 8 7 7 7 7 6 7 8 9 9 9 9 9 10 10 11 10 11 12 12 10 11
12 11 9 7 7 7 7 7 8 8 8 8 9 9 9 8 7 7 6 7 8 8 8 7 6 6 8 8 8 8 9 9 9 10 10 10 10 9 9 11 12 10 11 11
11 8 9 8 8 8 8 8 8 7 7 8 8 8 8 8 8 7 7 7 7 7 7 7 7 7 8 8 8 9 9 9 9 10 10 9 9 9 8 9 11 11 12 12
12 8 8 7 7 7 8 8 7 7 8 7 7 8 8 7 7 7 7 7 7 6 7 6 6 8 8 9 9 9 9 9 11 12 11 9 9 9 7 7 7 7 8 9
8 6 6 7 8 8 9 9 8 8 8 9 8 8 8 8 7 6 6 6 6 6 6 8 8 8 9 10 11 11 12 11 13 11 12 12 12 12 15 12 9 9 8 9
6 7 9 9 9 8 8 8 8 8 8 7 7 8 8 8 7 7 7 7 7 7 8 8 8 9 9 9 10 13 14 14 13 14 14 14 17 16 18 19 18 16 12 10
9 8 9 7 7 8 9 9 10 10 9 9 8 8 8 8 8 7 7 8 7 8 8 8 9 9 8 8 8 10 10 12 16 17 17 17 18 18 19 19 19 17 15 14
9 9 9 11 11 10 10 10 10 10 9 9 9 8 8 8 8 7 7 8 10 10 9 11 10 10 8 7 7 9 10 12 15 14 15 15 16 18 17 18 17 15 17 17
11 11 11 11 11 10 9 9 9 9 8 8 9 10 8 8 10 9 9 12 13 12 11 10 12 8 8 7 8 12 13 13 13 14 15 15 17 18 19 18 17 16 19 19
10 10 9 9 9 9 9 9 9 9 9 8 11 11 8 8 10 9 13 12 13 9 9 12 12 9 10 7 7 9 12 15 14 16 16 18 18 18 20 19 18 18 18 17
10 9 9 8 8 8 8 8 9 9 11 7 8 8 8 7 9 11 10 9 10 10 10 11 8 8 9 9 8 9 10 15 16 15 17 19 20 20 22 23 20 20 20 18
10 10 9 9 9 10 9 9 10 10 9 8 6 7 7 6 8 11 10 9 10 9 9 9 9 9 9 9 9 10 14 15 13 17 21 18 22 22 24 21 19 21 22 21
10 9 10 10 10 10 11 11 11 10 9 10 6 6 6 5 10 11 10 10 9 10 8 8 9 9 8 8 8 9 10 9 14 19 20 20 21 23 24 25 24 23 22 21
9 10 11 11 11 10 9 10 10 11 10 7 5 6 6 10 10 10 10 8 8 8 9 9 9 8 8 8 9 9 8 9 12 17 20 19 19 21 22 24 23 22 23 21
8 9 9 11 11 8 8 9 10 10 10 8 6 6 6 8 10 12 11 10 10 10 9 12 9 8 7 10 9 9 8 9 10 11 15 15 17 17 21 22 23 22 23 22
9 9 9 9 10 11 11 8 8 8 10 9 9 6 7 9 10 10 11 10 10 11 14 12 8 9 9 10 10 9 9 9 9 14 18 19 21 19 20 23 22 23 24 24
9 9 10 11 10 8 8 8 8 8 9 9 7 7 9 8 9 12 14 14 12 12 13 11 9 12 11 9 9 10 11 9 8 12 17 17 16 18 18 21 20 19 22 23
8 8 7 8 8 7 7 8 7 6 6 6 8 10 11 9 10 10 9 9 14 12 10 10 9 10 14 13 9 8 11 11 12 11 13 14 14 14 14 14 16 17 18 17
9 11 9 8 8 8 8 5 5 5 5 5 6 12 11 7 8 8 9 9 11 10 13 11 11 10 9 15 15 15 13 12 13 12 12 12 14 13 12 13 13 14 17 18

GFSNGP_con_lsi_003.txt.gz
Lid_Strength_Index
11 11 11 12 12 11 12 12 15 13 12 10 9 8 8 7 6 6 6 6 6 6 6 6 5 5 5 5 5 4 5 5 5 5 4 5 5 5 3 2 2 2 2 3
14 12 12 14 12 12 11 11 12 11 12 8 8 8 7 7 7 7 6 7 7 7 7 6 5 6 6 6 5 5 6 7 7 6 5 5 5 4 3 4 5 5 6 6
15 14 14 15 13 12 11 11 11 13 10 9 9 8 7 7 7 8 8 8 8 7 6 6 5 6 6 6 6 6 7 7 6 5 5 6 5 5 6 6 6 6 6 6
15 14 19 11 10 10 11 11 10 11 10 9 8 7 7 7 8 8 8 8 7 7 6 5 4 5 6 6 7 7 7 6 5 5 6 6 6 6 6 6 7 7 6 6
16 16 14 11 10 11 12 12 10 10 8 7 7 7 8 8 7 8 8 7 6 5 5 4 5 5 7 7 8 8 6 5 5 6 6 6 7 7 7 7 7 7 7 7
15 18 19 12 10 9 9 13 9 8 8 8 8 11 8 9 8 7 6 6 6 5 5 5 5 5 7 7 6 6 6 6 5 6 6 7 7 7 7 7 7 7 7 7
14 16 14 10 10 9 15 13 9 8 7 8 9 9 9 8 7 6 6 7 5 5 5 5 4 4 6 7 7 5 5 5 6 6 7 7 7 7 7 7 7 7 7 6
16 16 17 10 10 11 8 8 8 8 8 8 9 9 8 7 7 7 7 6 5 4 5 4 3 5 6 5 3 2 4 5 6 6 7 7 7 6 6 6 6 6 7 6
13 12 9 9 8 7 7 8 8 8 8 9 9 9 8 7 7 6 6 5 4 4 4 4 3 5 4 3 3 4 5 6 6 6 6 6 7 6 6 6 6 7 7 8
11 9 8 7 7 6 7 7 8 7 8 8 8 8 7 7 7 7 6 5 4 4 4 4 3 4 3 3 4 5 6 6 6 6 6 5 6 6 6 6 7 7 8 9
11 8 8 7 6 6 7 7 7 7 7 7 7 8 8 7 7 7 6 5 4 4 4 4 3 4 4 5 5 6 6 6 6 6 6 7 6 6 6 6 7 8 8 9
11 8 8 8 6 6 8 8 8 8 8 7 7 8 7 8 7 6 6 5 5 4 4 3 4 5 5 5 6 7 7 7 6 6 7 7 6 6 6 7 8 8 8 9
8 7 8 8 8 7 9 9 8 8 8 9 8 7 7 7 6 6 5 5 5 5 5 5 5 6 6 6 7 8 7 7 7 8 7 7 7 7 8 7 9 9 9 9
7 8 10 9 10 9 8 8 8 8 8 8 7 7 7 6 6 5 5 5 5 6 6 6 6 6 5 6 7 8 8 10 7 7 7 7 7 8 8 9 10 10 10 10
9 8 8 9 9 9 8 8 9 9 8 8 7 6 6 6 5 5 5 5 5 6 6 6 6 6 6 6 6 7 6 6 7 8 8 9 8 8 8 9 10 10 11 11
10 10 10 9 9 8 8 8 9 8 8 7 7 6 6 6 6 6 6 6 8 7 6 7 8 7 7 6 6 6 6 8 10 7 8 8 8 8 8 9 10 11 12 12
11 11 10 9 9 9 8 7 8 8 7 7 7 7 7 7 7 7 7 7 9 9 7 7 7 6 7 6 6 6 6 7 10 7 8 8 8 8 9 9 10 11 12 13
9 8 9 9 9 9 8 8 8 8 7 7 8 8 7 8 8 7 6 8 8 8 7 7 8 8 8 6 6 6 7 8 7 8 8 8 8 8 9 9 10 11 12 12
9 10 10 9 8 8 8 8 8 8 8 8 10 8 7 6 6 6 7 8 8 8 7 7 7 7 7 7 6 7 7 7 7 8 9 10 8 9 9 9 9 10 11 12
10 9 9 9 8 10 9 8 9 8 7 8 9 9 7 5 5 5 7 8 7 6 6 7 7 7 7 7 7 7 7 7 8 8 9 9 9 9 9 11 10 10 11 12
10 9 10 10 10 10 11 10 10 9 8 8 11 9 6 5 5 6 8 7 6 7 7 6 6 7 7 7 6 6 7 7 7 8 8 9 9 8 9 9 9 9 10 11
8 9 10 10 10 9 8 8 8 9 9 9 9 7 6 6 5 7 8 7 5 8 6 6 6 7 6 7 7 7 7 7 7 7 8 9 9 9 9 9 10 9 9 10
8 8 8 9 10 8 8 8 9 9 9 8 7 6 7 5 5 6 7 5 6 7 6 6 8 7 6 6 6 6 7 7 6 6 7 8 8 9 9 9 9 10 9 9
8 8 8 8 9 9 9 6 7 6 7 7 6 6 6 5 5 6 5 7 8 9 6 6 7 8 10 6 6 6 6 6 6 6 7 11 8 9 9 9 10 9 10 11
8 8 8 9 8 7 7 6 7 6 5 5 4 5 5 5 6 5 6 6 9 10 6 10 9 9 7 6 6 6 7 7 6 6 7 7 8 8 8 8 9 9 9 10
7 7 7 7 7 7 6 6 6 6 5 6 5 4 4 6 6 6 6 7 7 8 6 6 6 6 6 7 7 7 7 7 7 7 7 7 7 8 8 8 8 8 9 9
7 10 8 7 5 5 5 6 6 6 5 5 5 4 5 6 5 5 6 6 6 6 6 6 6 6 6 6 7 7 8 7 8 8 7 7 7 7 8 7 7 7 8 9

GFSNGP_con_lsi_006.txt.gz
Lid_Strength_Index
9 9 9 10 10 9 10 10 13 11 10 9 7 7 6 5 5 5 5 5 4 5 5 5 4 4 3 3 4 4 4 4 4 3 3 3 3 3 3 3 3 3 3 3
12 10 10 11 9 9 9 9 10 10 10 7 6 6 6 6 6 6 5 5 6 7 7 6 5 4 4 4 4 4 5 4 4 3 3 3 3 3 3 3 3 4 4 4
16 11 11 15 11 10 9 9 9 11 9 7 7 6 6 6 6 6 6 7 8 7 6 5 4 3 4 4 3 3 3 4 3 3 4 4 3 4 4 4 4 4 4 4
15 14 18 10 7 8 9 8 8 8 8 7 6 5 5 5 6 8 8 7 7 6 5 4 3 3 3 3 3 3 3 3 2 3 4 4 4 4 4 4 4 4 4 4
16 15 12 10 9 9 10 9 7 8 7 6 5 5 6 7 8 7 6 6 5 4 4 3 2 3 2 3 3 3 3 3 3 3 4 4 4 4 4 4 4 4 4 4
14 17 18 10 8 7 7 12 7 7 7 7 6 11 9 6 7 7 5 5 5 5 4 2 2 2 2 2 2 3 3 2 2 3 4 4 4 4 4 4 4 4 4 3
14 16 13 8 8 7 14 13 6 8 8 7 8 8 7 7 6 5 5 5 5 5 4 3 1 1 2 2 3 3 2 2 2 3 4 4 4 3 3 4 4 4 4 4
13 16 17 8 8 12 8 6 7 7 6 7 7 7 7 7 7 7 6 5 5 5 4 2 1 1 2 3 2 2 1 2 2 3 4 4 4 3 4 4 4 5 5 5
11 11 6 6 7 5 6 7 6 7 6 7 7 8 8 8 7 6 6 5 5 4 4 3 2 1 2 2 2 1 2 2 2 3 4 3 4 4 4 4 5 6 6 6
10 7 6 6 5 5 6 7 7 7 7 8 8 8 8 7 7 6 6 6 5 4 4 3 2 1 1 1 2 2 2 2 3 4 4 3 3 4 5 5 6 6 7 7
9 7 6 6 6 6 6 7 7 7 7 8 8 8 8 7 7 7 6 5 5 4 4 4 2 2 2 2 2 2 3 3 4 4 4 4 4 5 5 5 6 7 7 8
12 7 7 7 7 6 7 7 7 8 8 8 7 7 7 7 6 6 5 5 4 4 3 3 3 3 3 3 3 3 5 4 4 4 4 4 5 5 7 7 7 8 9 8
7 7 7 7 7 6 7 8 8 8 7 7 6 7 7 7 6 6 4 4 3 3 3 3 3 4 3 3 4 5 5 4 4 5 4 5 5 6 6 5 7 9 9 9
6 7 8 7 8 8 8 8 7 7 6 6 7 6 6 5 5 4 4 3 2 3 3 4 4 3 3 4 5 5 5 6 4 4 4 5 6 6 6 6 7 7 8 10
7 6 7 7 8 8 7 7 8 8 7 7 6 5 5 5 5 4 3 3 3 4 3 4 4 4 4 5 6 5 5 4 4 4 5 6 6 6 6 6 7 8 8 9
8 8 8 9 9 8 8 8 8 8 7 6 6 6 5 4 4 4 5 5 5 6 5 5 5 5 5 5 5 5 5 6 6 5 6 6 6 7 7 7 7 8 9 10
9 10 9 10 9 9 9 8 7 7 7 6 6 6 5 6 6 5 5 5 5 6 5 5 6 4 6 5 5 5 5 5 7 5 6 6 7 7 7 7 7 7 8 10
8 9 9 9 9 8 8 7 7 7 7 6 7 7 7 7 6 5 5 5 5 6 5 5 5 6 6 6 6 6 5 5 5 6 6 6 7 7 7 7 7 8 8 9
9 9 8 8 7 7 7 7 7 7 7 7 7 7 6 7 5 4 5 5 6 6 4 5 6 6 6 6 6 6 5 5 6 6 6 7 7 7 7 7 7 7 7 8
9 8 7 7 7 7 7 7 7 6 6 6 6 7 7 6 5 5 5 5 5 4 4 4 5 5 6 6 7 6 6 6 6 6 6 7 7 7 6 7 7 7 7 7
9 8 7 7 7 7 7 7 7 7 6 6 7 7 6 5 5 5 5 5 3 4 4 5 5 4 5 5 6 5 5 6 6 6 6 7 7 6 7 7 7 7 7 7
8 7 7 7 7 7 6 5 5 6 6 6 6 6 6 5 4 4 4 5 3 5 3 3 3 5 4 6 5 5 6 5 5 5 6 6 6 7 7 7 7 7 7 7
7 7 7 7 7 6 5 6 6 6 6 6 6 6 5 4 4 5 5 3 3 3 3 3 4 6 6 5 5 5 5 5 5 5 5 6 6 6 6 6 7 7 7 7
7 6 6 5 6 6 6 4 4 4 5 4 4 5 5 4 4 2 2 4 5 5 4 4 5 6 6 5 5 5 5 5 5 5 5 6 5 6 6 6 6 6 6 7
5 5 6 6 6 4 4 4 5 4 4 4 4 4 3 3 4 4 4 4 5 4 3 5 6 5 5 5 5 5 6 6 5 5 5 5 5 5 5 6 6 6 6 6
5 4 4 4 4 4 4 4 5 4 4 5 4 4 3 3 3 4 4 4 3 4 4 4 4 5 4 4 5 5 5 6 6 6 6 5 5 5 5 5 5 5 5 6
4 5 4 4 3 3 3 3 4 5 4 5 5 4 4 4 4 4 4 4 4 4 4 4 4 4 4 4 5 5 5 5 6 6 6 6 6 5 5 5 5 5 5 5

GFSNGP_con_lsi_009.txt.gz
Lid_Strength_Index
9 8 8 9 9 9 10 9 12 11 10 8 7 6 6 5 4 5 5 4 5 4 4 5 5 4 4 3 3 3 3 3 3 3 2 2 2 2 2 2 2 2 3 3
11 8 9 10 9 9 9 9 9 9 9 6 5 5 5 5 5 5 5 5 5 5 5 5 5 5 4 3 3 2 3 3 3 2 2 2 2 2 3 3 3 3 3 3
15 11 11 15 10 9 9 8 8 11 8 6 6 6 6 6 5 5 6 6 5 6 6 5 5 4 3 2 2 3 3 2 2 2 2 2 2 3 3 3 3 4 3 3
15 14 19 10 6 7 8 7 7 7 6 6 7 5 5 5 6 6 6 6 6 5 5 4 4 3 3 2 2 2 2 2 2 2 2 2 2 3 3 3 4 4 3 3
16 14 11 9 8 8 9 9 6 7 7 6 5 5 6 5 5 6 6 5 5 5 5 5 4 4 3 2 2 2 1 2 2 1 2 2 3 3 3 4 4 3 3 4
14 17 18 10 7 6 6 12 6 6 7 7 6 10 8 5 5 6 5 6 6 5 5 5 4 4 3 3 2 2 1 2 1 2 2 2 2 3 3 3 3 3 4 4
14 16 12 7 7 6 13 12 6 6 7 7 8 7 6 6 6 6 6 6 5 5 5 5 4 3 3 3 2 1 1 1 1 1 1 1 2 3 3 3 3 4 4 3
13 16 17 6 7 11 7 5 6 6 6 7 6 7 7 7 7 7 7 6 5 6 5 4 4 3 4 3 1 1 0 1 1 0 1 2 3 3 3 3 4 4 4 4
11 11 6 5 6 4 5 6 6 7 7 6 7 8 8 8 7 7 6 6 6 6 5 4 4 3 4 2 1 1 1 1 1 1 2 2 3 3 4 4 5 5 6 5
9 7 6 6 5 4 5 6 6 7 6 7 8 8 8 7 7 7 7 7 6 5 5 5 3 3 2 2 2 2 2 2 2 3 3 3 3 3 4 5 6 6 6 7
9 6 6 5 5 5 6 5 6 6 7 7 8 8 7 7 7 7 7 6 5 5 5 4 3 2 2 2 2 3 3 3 3 3 3 3 3 4 4 4 6 7 7 8
11 6 7 6 5 5 5 6 6 7 7 7 7 7 7 7 7 6 6 5 5 4 3 3 3 3 2 2 2 3 4 4 4 3 3 4 4 4 7 7 7 8 8 8
6 5 5 6 6 5 6 7 7 7 7 7 7 7 7 7 6 6 5 5 4 3 2 3 3 4 3 2 3 4 5 5 4 4 4 4 5 6 6 5 7 7 8 9
5 5 8 7 7 6 7 7 7 7 7 7 7 7 7 6 6 5 5 4 3 3 3 3 3 4 2 3 4 4 5 6 4 4 4 5 5 6 6 6 7 6 7 8
7 6 7 6 6 7 7 7 8 8 8 8 7 7 6 6 6 5 3 3 3 4 3 3 4 3 3 3 4 5 5 6 5 5 5 6 5 5 6 6 6 6 6 6
7 6 6 8 8 8 8 8 9 8 8 8 7 6 6 5 4 4 3 3 5 6 4 5 5 4 3 4 4 4 4 6 6 5 5 5 6 6 6 6 6 6 7 7
8 8 9 9 10 9 9 8 8 8 7 7 7 6 6 6 6 5 4 4 4 5 4 5 5 3 4 4 4 4 5 6 6 6 5 6 6 6 6 6 7 7 6 7
7 8 9 9 9 9 8 8 8 7 7 6 7 7 7 7 6 6 5 5 5 5 4 5 4 4 4 4 5 5 6 6 6 6 6 6 6 6 6 7 6 7 7 7
9 9 9 8 8 7 7 8 7 7 7 7 7 7 6 6 5 5 4 5 5 5 4 3 5 6 5 5 6 6 5 6 6 5 5 6 6 6 6 6 6 6 6 7
9 9 8 8 7 8 8 7 7 6 5 5 6 7 6 6 5 5 5 5 4 4 3 3 4 4 4 5 6 5 5 6 6 5 5 6 6 6 6 6 6 6 6 6
9 8 8 7 7 7 8 7 8 7 5 5 6 6 6 6 5 5 5 4 3 3 3 4 4 3 3 4 5 4 4 5 5 5 5 5 6 6 6 5 5 6 6 6
8 8 8 8 7 7 6 5 5 6 6 6 6 6 6 5 5 4 4 4 2 4 3 3 3 4 3 5 4 4 5 5 5 5 5 5 5 6 6 5 5 5 6 6
8 8 7 7 7 6 5 5 6 6 6 5 5 5 4 4 4 5 5 2 2 3 3 3 3 5 5 4 4 4 4 5 5 5 5 5 5 5 6 6 5 5 6 6
7 6 6 5 5 5 6 4 4 4 5 5 5 4 4 5 4 2 3 3 4 4 4 3 4 5 5 5 4 5 4 4 4 4 4 4 4 4 5 5 5 5 5 5
5 5 5 5 5 4 4 3 3 3 3 3 3 3 3 3 4 4 4 4 4 4 4 4 5 5 5 5 4 4 4 4 5 4 4 4 4 4 4 4 5 5 5 5
5 4 3 3 3 3 3 3 3 3 3 4 3 3 3 3 3 4 4 4 4 4 4 4 4 4 4 4 4 4 4 4 5 5 5 5 5 5 5 5 4 4 4 4
3 4 3 3 2 2 2 2 3 3 4 4 4 3 3 3 4 4 4 4 4 4 4 4 4 4 4 4 4 4 4 4 5 5 5 5 5 5 5 5 5 4 4 4

GFSNGP_con_lsi_012.txt.gz
Lid_Strength_Index
9 9 8 9 9 9 10 10 13 11 10 8 7 6 6 5 5 5 5 5 5 5 5 5 5 5 5 4 3 3 4 4 4 3 4 4 2 2 2 2 3 3 3 3
11 8 9 10 9 9 9 9 9 9 10 6 6 5 6 6 5 6 6 6 6 5 6 6 5 5 5 5 3 3 3 3 2 1 2 2 2 2 2 3 3 3 3 4
15 11 12 16 11 9 9 8 8 12 8 6 7 7 6 6 6 6 6 6 6 6 6 6 6 6 6 5 3 3 2 2 2 2 2 1 2 2 3 3 3 3 4 4
15 14 19 10 6 7 8 8 7 7 7 7 7 6 5 6 6 7 7 7 6 6 6 6 6 6 5 5 4 4 3 3 1 1 1 2 2 3 2 3 4 4 4 4
17 15 12 10 8 9 10 10 7 8 7 7 6 6 7 6 6 7 6 6 7 6 6 6 6 6 6 5 5 4 4 2 1 1 2 2 3 3 3 4 4 4 4 5
15 17 18 10 7 6 6 13 7 7 7 7 7 11 9 6 6 7 7 7 7 6 6 7 6 6 6 6 5 5 3 2 2 1 1 2 2 3 4 4 4 4 5 5
15 15 13 7 6 5 13 13 7 6 6 7 8 8 7 6 7 7 7 7 7 7 7 7 6 5 6 6 5 3 2 2 2 2 2 2 2 3 4 4 5 6 6 6
14 16 17 6 6 11 8 6 6 6 6 7 7 6 7 8 8 8 8 8 7 8 7 6 5 5 6 5 4 2 2 2 2 1 1 2 3 3 4 5 6 7 8 7
11 12 6 5 6 5 5 6 6 6 6 7 7 8 8 8 8 8 8 8 7 7 7 6 5 5 5 4 3 3 3 3 2 2 3 3 4 5 5 6 7 8 7 8
10 7 6 6 5 5 4 5 6 6 6 6 8 8 8 8 8 8 8 8 7 7 7 6 5 4 3 3 3 3 3 3 3 4 4 4 4 4 6 7 8 7 8 9
9 7 6 6 5 5 5 5 6 6 6 7 8 8 8 8 8 8 8 7 7 7 6 6 4 3 3 3 3 4 4 4 5 5 5 5 4 6 6 7 8 9 9 9
11 6 7 7 5 5 6 6 6 7 8 7 8 9 8 8 8 8 8 7 7 6 5 5 3 3 3 3 3 4 5 5 5 6 5 5 5 6 6 7 7 7 8 10
6 5 5 5 5 5 6 6 7 7 7 9 8 8 8 9 8 8 7 6 6 6 4 4 3 4 3 3 4 5 6 6 6 6 6 6 6 6 8 6 6 7 7 8
4 5 7 6 7 6 7 7 7 7 8 8 8 8 8 8 8 7 7 6 5 4 4 4 3 4 3 3 4 5 5 7 6 5 6 7 6 7 6 7 8 7 7 7
5 5 6 6 6 6 7 8 9 9 9 9 8 8 8 8 8 7 6 5 5 4 4 4 4 5 3 4 5 5 5 6 7 6 6 6 6 6 6 7 7 8 8 8
6 6 6 6 7 8 9 9 10 10 9 9 9 8 8 7 7 7 6 5 7 7 5 5 6 5 4 4 4 5 5 6 8 6 6 6 6 7 7 7 7 7 9 10
7 8 8 8 9 10 10 9 9 9 9 9 9 9 8 8 8 7 6 6 6 6 5 5 5 4 4 4 5 5 5 6 6 6 6 6 7 7 7 7 7 7 8 10
6 6 8 9 10 9 9 8 9 9 9 8 10 11 11 11 9 8 7 6 6 5 5 4 5 5 5 4 5 6 7 7 6 6 6 6 6 7 7 7 7 7 8 9
8 9 9 9 9 8 8 9 9 9 10 10 10 9 9 8 7 7 6 6 6 6 5 5 5 5 5 5 6 6 6 6 6 6 6 6 6 6 6 6 6 7 7 8
9 9 9 9 9 9 9 9 10 9 8 8 10 9 8 8 7 6 6 7 6 5 4 4 4 5 6 5 7 6 6 6 6 6 6 6 6 6 6 6 6 6 6 7
10 9 10 9 9 10 10 10 10 9 7 9 8 8 8 7 6 6 6 7 5 4 4 4 4 5 4 5 5 5 6 5 6 6 6 6 6 6 6 6 6 5 6 6
9 10 11 10 10 9 8 7 7 8 8 8 9 7 6 6 6 6 5 5 4 4 4 4 3 4 4 7 5 5 6 6 6 5 5 5 5 5 6 6 6 5 5 6
9 9 9 9 10 7 7 7 8 7 7 6 6 6 6 5 5 6 6 4 4 4 4 4 3 4 4 5 5 5 6 6 6 6 5 5 5 5 5 6 6 6 6 6
7 7 7 7 7 7 7 6 5 5 6 6 6 5 5 5 4 4 3 4 4 4 4 4 4 4 5 5 5 6 6 6 5 5 5 5 5 5 6 5 5 5 5 5
7 7 7 7 7 5 5 4 4 4 4 4 4 4 3 3 4 4 4 4 4 4 4 4 4 5 5 5 5 5 5 5 5 6 5 5 5 5 5 4 5 5 5 5
6 5 5 4 4 3 3 3 3 3 3 4 4 4 3 3 3 3 4 4 4 4 4 4 4 4 5 5 5 5 5 5 5 5 5 6 6 6 5 5 5 5 5 5
4 5 3 3 2 2 2 3 3 3 3 4 4 4 3 4 4 3 4 4 4 4 4 4 4 4 5 5 5 5 4 5 5 5 5 5 6 6 6 6 6 5 5 5

GFSNGP_con_lsi_015.txt.gz
Lid_Strength_Index
10 10 10 10 11 10 11 11 15 13 12 9 9 8 8 7 7 7 7 7 7 8 8 8 8 8 7 7 7 5 5 6 6 4 5 5 3 3 2 4 5 4 5 5
14 10 10 12 10 10 10 10 11 11 11 7 7 7 7 7 7 8 8 8 8 7 8 8 8 9 8 8 7 6 6 5 4 5 4 3 3 1 3 5 5 5 5 5
17 12 13 17 13 10 10 9 10 14 10 8 8 8 9 8 8 8 8 8 8 8 7 8 9 9 9 9 8 8 7 5 4 4 3 3 1 1 3 5 5 5 5 5
18 17 21 12 8 8 10 9 9 9 8 8 8 8 8 8 9 9 8 8 8 8 9 9 10 10 9 9 9 8 7 5 4 4 3 3 2 2 4 5 5 6 6 6
17 18 14 11 9 10 11 11 8 9 8 8 8 8 9 8 9 9 9 8 9 10 10 10 10 10 10 9 9 8 6 6 5 4 3 3 2 4 4 4 6 6 6 6
18 21 23 13 8 7 8 15 8 8 8 9 9 15 11 9 8 8 9 10 10 10 10 11 10 10 10 9 9 7 6 5 4 4 3 3 3 3 5 5 5 6 6 6
15 22 16 9 7 6 15 14 8 8 8 9 11 10 9 8 9 9 10 10 10 10 11 11 10 9 9 9 8 6 5 4 3 3 3 3 3 4 5 7 7 8 8 8
14 17 19 7 8 12 9 8 7 8 8 8 8 8 7 9 9 9 11 11 10 11 11 10 9 9 9 8 7 6 5 4 4 3 3 3 5 6 7 7 8 9 14 12
13 14 9 7 8 7 6 7 7 8 7 8 8 7 9 10 10 10 12 11 11 11 10 9 8 8 8 8 6 5 5 5 5 4 4 5 7 8 8 8 10 10 9 13
11 9 8 8 6 5 6 7 6 6 6 6 7 9 10 10 11 11 11 12 11 10 10 9 8 7 7 7 5 5 6 5 5 6 6 6 7 7 8 11 11 9 11 12
11 8 8 7 6 6 6 6 6 6 6 8 9 10 11 11 11 11 12 11 10 10 9 9 8 7 7 7 5 5 6 6 7 7 7 7 8 8 8 9 10 11 12 12
13 8 8 8 7 6 6 6 6 6 8 9 10 11 11 11 11 11 11 10 10 9 8 8 7 7 6 5 5 6 7 7 8 8 9 8 8 8 6 7 7 7 8 13
8 6 6 6 6 5 6 6 6 8 9 11 10 11 11 12 11 10 10 9 9 8 8 8 8 7 6 6 6 7 7 7 8 8 9 9 10 10 12 8 5 5 7 7
5 6 8 6 7 6 7 7 8 9 10 10 11 11 11 11 10 10 10 9 8 8 8 7 7 6 5 5 6 8 8 8 9 10 10 11 8 8 8 9 13 10 7 7
6 6 6 6 6 7 7 9 11 11 11 11 11 11 11 11 11 10 9 9 8 8 8 7 6 5 5 6 6 6 7 8 10 12 12 8 8 8 8 8 8 11 11 10
6 6 6 7 7 9 11 11 12 12 12 12 11 12 10 10 10 10 9 9 10 9 8 9 7 6 5 5 5 6 7 9 10 11 11 8 8 8 8 8 9 9 12 14
8 9 8 9 11 11 11 11 11 12 11 11 12 11 11 11 12 11 10 10 10 9 7 7 6 4 5 5 5 6 9 9 10 10 9 8 8 8 8 8 8 9 12 15
7 9 10 11 11 11 11 12 12 12 12 11 13 16 16 17 12 11 11 9 7 7 6 6 5 5 5 5 5 8 10 11 11 11 8 8 8 8 8 9 8 9 11 13
10 10 10 10 10 12 12 12 12 11 13 14 15 14 14 13 11 10 8 8 7 7 6 5 5 5 5 6 8 10 12 13 10 8 7 9 8 8 8 9 9 8 9 13
10 10 10 11 11 12 13 12 13 11 10 12 16 15 13 14 10 8 7 7 6 6 5 5 4 4 5 6 8 9 12 13 11 8 12 12 9 7 8 7 9 12 10 9
12 12 12 12 12 13 13 13 15 12 10 13 12 11 10 10 11 8 7 7 6 8 6 4 5 4 5 6 9 10 11 12 13 12 13 11 11 9 7 7 8 13 13 11
11 12 14 14 13 11 11 11 10 12 10 9 12 11 12 10 10 9 6 6 6 4 5 4 5 4 4 6 5 7 9 10 10 8 13 10 11 9 9 8 7 7 11 12
11 11 11 13 14 10 10 10 10 9 10 10 9 7 9 8 8 7 7 6 5 4 5 4 4 4 4 4 5 6 7 10 11 10 8 7 7 8 7 7 7 7 7 7
10 10 10 10 11 10 10 8 8 7 8 8 6 7 9 9 7 6 5 4 5 4 4 4 4 4 5 4 5 6 7 9 7 10 10 7 6 6 8 8 6 6 6 6
10 9 8 10 9 8 7 6 7 7 7 7 7 8 8 8 7 5 4 4 4 4 4 4 4 4 4 5 5 6 6 7 7 7 8 8 6 6 7 8 6 6 6 6
8 8 8 7 7 7 6 7 7 6 9 11 10 11 11 10 6 7 5 4 4 4 4 4 4 4 4 4 5 6 6 6 6 6 6 6 6 6 6 6 6 6 6 6
7 9 8 7 7 7 7 8 10 9 9 11 8 10 9 5 7 7 5 4 4 4 4 4 4 4 4 4 4 5 5 5 5 5 6 6 7 7 7 6 6 6 6 6

GFSNGP_con_lsi_021.txt.gz
Lid_Strength_Index
12 12 12 13 13 12 13 13 15 14 13 12 10 10 10 9 9 9 9 9 9 9 9 9 10 11 11 11 10 10 10 9 9 8 8 8 8 8 7 5 4 4 5 6
14 12 12 14 13 13 13 13 12 13 13 9 9 9 9 9 9 10 9 9 9 9 9 10 11 12 11 11 11 10 10 9 8 8 8 8 8 7 6 5 5 5 5 6
18 14 14 18 13 12 12 11 12 14 11 10 10 10 10 10 9 10 9 9 9 9 10 11 12 12 12 11 11 11 10 9 9 9 8 8 7 7 6 5 4 7 6 7
20 19 22 14 10 10 11 11 10 11 10 10 10 10 9 9 10 10 10 9 10 11 12 12 12 12 12 12 12 11 10 9 9 9 9 8 7 7 7 6 6 7 8 7
20 19 16 13 11 11 12 12 9 10 10 10 10 11 11 9 9 10 9 10 11 12 12 12 12 12 12 12 12 10 10 10 9 9 8 8 7 7 7 6 7 7 7 8
18 23 23 15 10 9 10 15 9 9 10 10 11 15 12 9 9 9 10 11 12 12 12 13 12 12 12 12 11 11 10 9 9 9 9 8 7 6 6 7 7 7 8 8
23 22 17 12 9 9 15 15 9 8 9 10 11 11 10 8 9 10 12 12 12 12 13 13 12 12 12 12 12 10 9 9 9 9 9 8 7 7 7 7 8 9 10 9
18 22 19 10 10 12 10 10 8 8 8 9 9 9 8 9 11 12 12 13 13 13 13 12 12 12 12 12 11 10 9 10 9 9 8 8 9 8 8 8 9 10 17 14
14 14 10 9 10 9 8 8 8 8 8 9 8 8 8 11 11 12 13 13 13 13 13 12 12 11 12 11 10 10 10 10 9 8 8 8 9 9 9 9 11 11 10 14
13 10 10 9 8 8 7 8 8 8 8 8 8 7 10 12 12 13 14 14 13 13 13 12 11 11 11 10 10 10 9 8 8 8 8 8 8 8 9 11 13 10 12 13
13 10 9 7 7 7 7 7 7 7 7 7 7 11 11 13 13 13 14 13 13 13 13 12 11 11 10 10 9 9 8 7 8 8 8 8 8 8 8 8 9 11 12 13
13 9 9 9 7 7 8 8 7 7 8 9 11 12 13 14 13 13 14 13 13 12 12 12 11 11 10 9 8 8 7 7 7 8 9 8 8 8 6 6 6 6 6 13
9 8 8 8 8 7 7 6 6 9 10 12 12 13 13 14 13 13 13 13 12 12 12 12 12 11 10 9 8 7 7 6 6 7 8 9 10 9 10 9 6 6 6 6
7 7 9 8 8 6 6 8 10 11 11 12 12 12 13 13 12 13 13 12 12 12 12 12 11 9 8 8 7 7 6 7 7 7 7 8 10 10 12 12 14 13 9 7
7 7 8 7 6 8 10 11 12 12 12 13 12 12 12 13 13 12 12 12 12 12 12 11 9 9 8 7 6 6 6 6 7 8 11 11 11 13 12 13 13 13 14 12
7 7 7 8 10 11 11 11 12 13 12 12 13 13 12 12 12 12 12 12 13 13 11 9 9 8 7 6 5 5 5 6 8 9 10 9 8 10 10 9 13 13 15 15
9 10 11 11 11 11 11 11 11 12 12 13 13 13 12 13 14 12 12 13 15 14 11 9 9 7 6 6 5 5 5 6 7 8 8 7 9 9 9 11 9 13 14 16
9 10 10 11 12 12 13 12 12 12 12 12 15 18 18 17 15 14 14 14 14 13 10 9 8 7 6 5 5 5 5 6 7 7 7 11 12 10 11 11 10 13 14 15
11 11 11 12 12 12 13 13 13 12 15 15 16 15 17 16 14 13 14 15 14 12 9 9 8 8 6 6 6 5 5 6 8 10 11 13 15 14 14 12 9 12 11 13
11 11 11 12 12 12 13 12 13 12 11 14 17 14 12 12 16 15 15 13 10 8 8 8 8 7 6 7 5 5 5 7 9 11 15 15 16 15 16 13 11 11 11 15
12 12 12 13 12 13 13 13 14 12 11 16 16 12 10 10 13 14 12 11 8 10 8 9 6 6 5 5 5 4 5 8 10 11 13 13 14 14 14 13 9 9 12 11
12 12 13 14 13 12 12 12 12 15 15 15 14 9 9 9 10 12 12 10 8 11 9 8 7 6 5 5 4 4 5 7 8 8 9 10 10 11 10 10 11 9 9 10
10 10 11 13 14 11 12 13 14 14 13 12 12 11 11 9 9 11 8 9 9 10 10 8 8 8 6 5 4 5 5 5 6 7 7 8 8 8 8 9 9 8 8 8
11 11 11 11 13 13 12 9 9 9 11 10 10 10 10 8 7 10 8 9 11 12 11 9 7 6 5 5 4 4 5 5 5 5 6 7 6 7 7 8 8 8 7 8
10 9 9 11 9 9 8 8 8 8 8 8 9 8 9 6 7 10 9 10 13 9 9 9 7 6 5 5 5 5 5 5 5 5 5 6 7 7 7 7 6 6 6 6
8 9 9 8 9 9 8 8 9 9 6 7 9 11 9 8 7 7 8 11 10 9 10 7 6 6 6 6 6 6 6 5 5 5 5 5 6 6 6 6 6 6 6 6
9 11 9 9 8 8 8 8 8 7 6 8 8 8 8 8 6 7 8 9 13 12 11 10 12 13 12 12 12 12 10 8 6 5 4 5 5 6 5 5 6 6 7 7

GFSNGP_con_lsi_024.txt.gz
Lid_Strength_Index
13 13 13 14 14 13 13 14 16 15 15 13 11 10 10 10 10 10 10 10 10 10 9 9 9 11 11 11 11 11 11 10 10 10 9 9 9 9 9 8 7 7 7 7
14 13 13 14 13 13 14 14 13 14 14 11 10 10 10 10 10 11 10 10 9 9 9 9 11 12 12 12 12 11 12 10 9 10 9 9 10 9 9 8 7 6 7 7
18 15 16 18 14 13 13 12 13 15 12 10 11 10 10 10 10 10 10 10 9 9 10 11 12 12 12 12 12 12 12 10 10 10 10 10 10 9 9 7 6 8 8 8
20 19 23 14 12 11 12 12 11 12 11 10 11 11 10 9 10 10 10 10 9 9 11 12 12 13 13 12 12 13 11 10 10 10 10 10 10 9 9 9 8 9 8 8
21 20 17 14 12 12 12 13 10 11 11 11 10 10 10 9 9 10 9 9 10 12 12 12 13 13 13 13 13 11 11 11 10 10 11 10 10 8 8 7 8 8 7 8
20 22 23 15 12 10 10 15 10 9 10 11 10 14 10 9 10 10 10 11 12 12 12 13 13 13 13 13 13 12 11 11 11 10 11 10 9 9 8 8 8 7 8 8
24 23 18 13 10 9 15 14 10 9 10 11 11 10 9 9 10 10 11 12 12 12 13 13 13 13 13 13 13 11 11 11 11 10 10 9 9 9 9 9 8 9 9 9
19 23 19 11 10 13 11 11 9 9 9 9 10 9 9 9 11 12 12 12 12 12 13 13 13 13 13 13 11 11 11 11 11 10 9 8 9 9 8 9 9 10 16 13
15 15 11 10 10 9 9 10 9 9 8 8 9 9 8 11 12 12 13 13 13 13 13 12 12 12 13 12 11 11 11 11 10 8 8 8 9 9 9 10 12 11 10 13
13 11 11 10 9 8 8 8 8 8 8 7 8 8 11 11 12 13 14 13 13 13 13 13 12 12 12 11 11 11 11 10 9 8 8 8 8 8 9 12 11 10 11 12
13 10 10 9 8 8 8 8 7 7 7 8 8 9 11 13 13 13 13 13 13 13 13 13 12 12 12 12 11 11 10 9 8 8 8 8 8 9 8 8 9 10 11 12
13 10 10 10 8 7 7 7 7 7 8 10 9 12 12 13 13 13 13 13 13 12 12 13 12 12 12 11 11 10 9 9 7 7 8 8 8 8 6 6 6 6 6 12
9 9 9 9 8 8 8 8 7 9 10 11 11 12 12 13 13 13 13 13 12 12 13 13 12 12 12 11 10 10 9 7 7 7 7 8 9 9 11 9 6 5 5 5
7 8 9 9 8 7 7 9 10 11 11 11 12 12 13 13 12 13 13 12 12 13 13 12 12 12 11 10 10 9 7 8 7 7 7 7 7 8 10 12 13 13 9 7
7 8 8 8 7 11 11 11 12 11 11 12 12 13 13 13 13 13 12 12 13 13 12 12 12 11 10 9 9 7 7 7 7 8 7 8 10 9 11 12 11 12 14 12
8 8 9 11 12 11 10 11 12 13 13 13 13 13 12 12 12 12 12 12 13 13 12 14 13 10 9 8 7 7 6 6 7 8 9 9 8 11 11 10 9 12 13 14
10 12 12 12 11 12 11 11 12 12 12 12 13 13 12 13 14 13 12 13 15 15 14 13 12 9 8 7 7 6 6 5 7 7 8 9 8 10 11 9 9 9 12 17
11 11 11 11 12 13 13 12 12 12 12 12 14 16 17 17 15 14 15 15 17 14 12 10 10 8 8 7 7 7 7 6 6 7 7 8 8 10 12 12 11 10 11 14
11 11 11 11 11 12 13 13 12 12 14 14 15 14 15 15 15 14 15 15 15 14 10 10 9 9 8 7 7 8 6 6 6 7 8 9 16 14 14 14 13 13 12 12
11 11 11 12 12 12 12 12 13 12 12 14 16 16 14 13 12 14 16 14 10 9 9 9 9 9 9 7 7 6 6 5 6 7 9 10 13 14 14 15 13 12 12 12
13 12 12 12 12 13 13 13 14 13 12 16 16 12 11 10 10 11 12 10 8 10 9 10 10 9 8 8 6 6 5 5 6 8 10 10 11 12 12 12 12 11 10 10
12 13 15 15 14 13 13 12 12 15 15 17 18 16 12 9 9 10 10 10 7 11 9 10 9 10 9 9 6 5 5 5 5 6 9 9 8 9 9 9 9 9 9 9
11 11 11 13 14 11 12 13 15 14 13 12 12 12 12 10 10 10 9 9 10 9 10 11 12 11 8 7 7 6 6 6 6 5 6 6 7 7 7 7 7 7 7 7
10 10 11 11 12 11 10 8 9 9 12 11 11 12 11 10 9 10 7 7 8 8 10 11 12 10 12 7 7 6 6 5 5 5 5 5 6 6 6 7 7 7 7 7
10 9 9 10 9 9 9 9 9 9 9 7 7 9 9 10 9 7 7 8 6 8 10 11 11 11 8 8 8 9 9 8 7 6 5 5 5 6 6 6 6 7 6 7
9 9 10 9 10 10 9 10 10 9 8 8 7 6 8 8 9 9 6 7 7 8 9 9 12 15 16 15 15 14 13 12 11 10 9 7 5 5 5 6 6 6 6 6
9 10 10 10 10 10 11 11 11 10 10 9 9 8 7 6 6 6 6 7 10 12 11 13 16 16 16 16 16 15 14 14 14 14 13 13 12 9 5 5 5 5 5 6

GFSNGP_con_lsi_027.txt.gz
Lid_Strength_Index
12 11 11 12 12 11 12 12 13 12 12 10 9 7 7 7 8 8 8 8 8 7 8 7 7 7 8 8 8 8 8 8 7 7 7 7 7 7 6 6 6 6 7 6
13 12 12 12 12 12 11 11 11 12 11 8 8 8 8 8 8 8 8 8 8 8 8 7 8 8 9 8 8 8 9 9 7 7 7 7 7 7 6 6 6 6 6 5
15 14 14 15 12 11 11 11 10 12 9 8 9 9 7 8 7 8 8 7 8 8 8 8 8 9 9 9 9 9 9 9 8 8 8 7 7 7 7 6 6 5 5 5
15 16 17 12 10 10 11 10 10 10 9 8 8 8 7 7 7 7 7 7 8 7 8 9 9 9 9 9 10 10 9 9 8 8 8 8 8 8 7 6 5 4 5 5
15 16 15 12 12 11 11 11 9 9 9 9 8 8 7 7 6 6 6 7 7 7 9 9 9 9 10 10 10 9 9 9 8 8 8 8 8 8 7 5 4 5 5 6
17 16 17 13 11 8 8 13 9 8 9 9 8 10 8 6 6 6 6 7 9 10 10 10 10 10 10 10 10 10 9 9 8 8 8 9 8 8 7 5 5 5 6 6
19 15 14 11 10 8 13 11 9 8 8 9 8 7 6 6 7 7 8 10 11 10 10 10 10 10 10 10 10 9 9 9 9 8 9 8 8 7 6 6 6 6 6 6
17 16 16 10 8 11 8 8 8 7 7 7 6 7 7 8 8 10 11 11 11 11 11 11 10 10 11 10 10 9 9 9 9 8 8 8 7 6 6 6 6 6 7 6
12 12 9 9 7 7 7 7 7 7 6 6 7 7 8 9 11 11 11 11 11 11 11 11 11 10 11 10 9 10 10 9 9 8 8 7 7 6 6 6 6 6 6 6
11 9 10 9 8 7 7 6 6 6 5 6 6 7 10 11 11 12 12 12 12 11 12 11 11 11 10 10 10 10 10 9 9 8 7 6 6 6 6 6 6 6 6 6
11 9 9 8 7 6 6 6 6 6 6 6 6 9 11 12 12 12 11 11 11 12 11 11 11 10 10 10 10 10 10 9 8 7 7 6 6 6 6 5 5 5 5 5
11 8 8 7 7 6 6 6 6 6 8 8 9 10 11 11 12 11 11 12 12 12 11 11 11 11 10 10 11 11 10 9 8 7 6 6 6 5 6 6 6 5 5 6
8 7 7 7 7 6 6 6 6 7 8 10 10 9 10 12 12 12 12 12 12 11 11 11 11 11 10 10 10 10 10 9 7 7 6 6 6 6 6 5 6 5 5 5
6 7 7 7 7 7 9 10 10 10 9 10 10 11 12 12 12 12 12 11 11 11 11 11 11 11 10 9 9 9 8 8 6 6 5 5 5 5 5 6 6 5 6 6
7 6 7 9 10 10 10 10 11 11 12 12 12 12 12 12 12 11 11 11 11 11 10 10 11 10 9 9 9 8 7 6 6 5 5 5 5 5 6 6 6 6 5 7
10 10 10 11 11 11 11 12 13 13 13 12 12 12 11 11 11 10 10 10 11 11 10 11 13 10 9 8 8 6 5 6 6 6 5 5 5 6 6 6 6 6 6 6
10 12 12 12 12 12 12 11 11 11 11 11 11 12 11 11 12 12 11 11 12 12 12 12 11 8 8 7 6 5 5 5 6 6 5 5 5 5 6 6 6 6 6 5
11 11 11 11 12 12 12 11 11 11 11 11 12 12 13 13 12 12 12 12 13 13 11 10 9 8 7 6 5 5 5 5 6 6 5 5 5 5 5 6 6 6 6 5
11 11 11 11 10 10 11 12 12 12 12 12 12 11 12 12 12 12 12 13 12 11 8 7 7 7 6 6 6 5 5 5 5 6 5 5 5 5 5 6 6 6 6 6
11 11 11 12 11 11 11 11 11 10 10 11 13 13 12 11 12 10 10 11 9 7 6 6 6 7 6 6 7 5 6 6 6 6 5 5 5 6 6 7 7 6 6 6
12 12 12 12 12 12 13 13 13 11 10 14 12 11 11 10 9 8 8 9 6 6 6 7 6 6 6 6 6 6 6 6 6 5 4 5 5 6 6 6 6 6 6 6
11 11 13 13 12 11 10 10 10 11 10 11 11 12 12 10 9 8 8 7 5 8 7 6 6 6 7 7 6 6 6 6 6 6 5 5 5 5 5 5 6 6 5 5
9 10 10 11 12 10 10 9 10 10 10 10 10 9 9 8 8 9 7 5 6 6 6 6 6 8 7 6 5 6 7 7 7 6 5 5 5 5 5 5 5 5 5 5
10 10 10 9 10 9 10 9 9 9 10 9 9 9 8 8 7 6 6 6 6 6 6 5 6 7 9 6 6 7 7 8 8 8 7 6 5 4 4 4 5 4 4 4
10 10 10 10 11 11 11 11 10 10 10 10 9 8 7 6 7 7 6 6 6 6 5 6 7 9 9 10 10 11 11 11 11 11 10 9 8 7 6 4 4 4 4 4
10 11 10 11 11 11 12 12 13 12 12 12 11 10 9 9 7 7 6 6 5 5 5 7 10 11 12 12 12 13 12 12 13 13 13 12 12 12 11 10 8 5 3 3
11 12 12 12 12 13 14 14 15 15 14 13 13 12 11 10 10 9 8 7 7 7 9 11 12 13 13 13 14 13 14 14 15 15 14 14 14 13 12 11 10 7 4 3

GFSNGP_con_lsi_030.txt.gz
Lid_Strength_Index
10 10 10 9 9 9 9 9 11 10 9 8 7 6 5 5 5 5 5 5 4 4 5 5 5 5 5 6 6 6 7 6 6 5 5 6 6 6 6 6 5 5 5 5
11 10 10 10 9 8 9 8 9 8 9 6 5 5 5 5 5 5 5 5 5 4 5 5 5 5 7 6 6 7 7 6 6 6 6 6 6 6 6 6 6 5 6 6
13 11 11 14 10 9 8 8 8 10 7 6 6 6 5 5 5 5 4 4 4 5 5 5 5 7 6 6 7 7 7 7 7 6 7 7 7 7 7 7 5 6 6 4
13 13 19 10 8 8 8 7 7 7 7 6 6 5 5 4 4 4 4 4 4 4 5 5 6 6 6 7 7 7 8 8 7 7 7 7 7 7 7 6 6 6 5 4
16 13 11 10 10 10 10 9 6 7 6 6 6 5 5 4 3 3 3 3 3 4 5 6 7 7 7 8 8 8 8 8 8 7 8 7 7 7 7 6 6 6 4 3
13 18 19 10 8 7 7 10 7 6 6 6 6 9 6 4 3 3 3 3 4 5 7 7 7 7 8 8 8 9 8 8 8 7 7 7 7 7 6 6 6 5 4 3
13 16 11 8 8 6 12 10 5 5 5 6 7 5 4 3 3 3 3 4 6 7 8 8 8 8 9 9 9 8 8 8 7 7 7 7 7 6 6 6 6 5 5 4
13 17 17 7 7 10 7 5 5 5 5 5 4 4 4 4 4 4 5 7 8 9 8 8 8 8 9 10 9 8 8 8 8 7 7 8 7 6 6 6 5 5 5 4
10 9 6 6 5 4 4 5 5 4 4 4 4 4 5 5 5 7 8 9 8 8 9 8 8 9 10 9 8 8 9 8 8 7 8 7 6 6 6 5 5 5 5 4
9 7 6 6 5 4 5 4 4 3 3 3 4 4 5 6 8 8 9 10 9 10 10 10 9 10 9 9 9 9 9 9 8 8 8 7 6 7 6 5 5 5 5 5
8 6 6 5 5 5 4 3 4 3 3 4 4 4 6 7 8 9 10 11 10 10 10 10 10 9 9 9 9 9 9 9 8 7 7 7 7 6 5 4 4 5 5 4
9 6 6 6 4 4 4 4 4 4 4 4 4 6 8 9 10 11 11 11 10 10 10 10 10 10 9 9 9 9 9 8 8 7 7 7 6 6 6 6 6 6 5 5
7 4 5 4 4 4 5 5 5 5 6 8 8 9 10 12 12 12 11 11 10 10 10 10 9 10 9 9 9 9 9 8 7 8 7 6 6 6 6 5 5 5 5 5
5 4 6 6 7 7 7 7 7 8 10 11 11 11 11 11 11 11 10 10 10 10 9 10 10 9 8 8 8 8 7 8 6 6 6 5 5 5 5 5 5 4 5 5
7 5 7 7 7 8 8 9 11 12 12 12 11 11 11 11 11 10 9 9 9 10 9 9 9 8 7 7 8 7 6 5 5 5 4 5 4 5 5 4 5 5 4 5
7 7 9 10 10 11 11 11 12 12 11 10 10 10 10 10 10 9 8 8 10 9 8 8 9 8 7 6 6 4 5 6 6 5 5 5 5 5 5 4 4 4 5 5
10 12 12 12 12 12 11 10 10 10 9 9 9 10 10 10 10 9 8 8 8 9 9 9 9 6 5 4 4 4 4 4 5 4 5 5 5 5 4 4 4 4 4 3
10 11 10 10 11 11 10 9 9 9 10 10 10 10 10 10 9 9 9 9 10 9 8 7 6 5 4 3 3 4 4 4 4 4 4 4 5 4 4 4 4 4 4 3
8 9 9 9 9 9 10 10 10 10 10 9 9 9 9 10 9 9 9 9 9 7 5 3 5 5 4 4 5 4 4 4 5 5 4 5 5 5 4 4 4 4 4 4
10 10 10 10 10 9 9 8 8 8 7 8 9 8 8 7 7 7 7 7 6 5 4 4 4 4 4 4 5 4 4 5 5 5 5 4 4 5 4 4 4 4 4 4
10 10 11 10 9 9 9 9 9 8 8 8 8 8 8 7 7 7 7 7 4 4 4 5 4 3 3 3 4 4 5 5 5 5 5 5 5 5 4 4 4 4 4 4
8 9 9 9 8 8 8 8 9 9 9 8 8 8 8 7 8 7 7 6 5 5 5 5 4 4 4 5 4 4 5 5 5 5 5 5 5 5 4 4 4 4 4 4
8 8 8 9 8 8 8 9 9 9 9 9 9 9 8 8 8 8 9 6 6 5 5 5 5 5 5 5 4 4 5 5 5 5 6 6 6 5 5 4 4 3 4 3
8 8 8 9 9 9 10 10 9 9 9 9 9 9 9 9 8 7 6 6 6 6 5 5 5 5 6 5 5 5 6 7 7 7 8 8 7 7 7 6 5 4 3 3
10 10 10 10 10 10 10 10 10 10 10 10 10 10 10 9 10 8 8 7 7 6 6 6 6 7 6 6 7 8 8 8 9 9 9 9 9 9 9 8 8 7 6 4
9 9 9 10 10 10 11 11 12 11 12 12 11 11 11 10 10 9 9 9 8 9 9 8 10 10 9 10 9 10 9 10 10 11 11 11 10 10 10 10 9 8 7 6
11 11 11 11 11 12 13 13 13 13 13 12 13 12 12 11 11 11 11 11 11 11 11 11 11 12 12 12 12 12 12 11 13 13 12 12 12 12 12 11 10 9 8 7

GFSNGP_con_lsi_033.txt.gz
Lid_Strength_Index
8 8 8 8 8 8 9 9 11 9 9 7 6 6 5 4 4 4 4 4 3 3 3 2 3 4 4 4 4 6 5 6 6 5 5 5 5 5 6 6 6 6 6 6
11 9 9 9 8 8 8 8 8 8 8 5 5 4 5 4 4 4 4 4 3 3 3 2 3 4 4 5 5 5 6 6 6 6 6 6 6 6 6 6 6 6 6 6
12 10 10 14 10 8 8 7 7 10 7 5 6 5 5 4 4 4 4 4 3 3 3 2 2 3 5 5 5 6 6 6 6 7 7 7 6 7 7 7 6 6 6 6
12 13 18 9 7 7 7 7 6 6 6 5 6 4 4 3 4 4 4 3 3 3 2 2 2 4 5 5 6 7 6 7 7 7 7 7 7 7 7 6 6 6 6 5
16 12 10 9 8 9 9 9 6 7 6 5 5 5 5 3 3 3 3 2 2 2 2 2 3 5 6 7 7 6 7 7 8 7 7 7 8 7 7 6 6 6 6 5
12 17 19 9 7 6 6 10 6 6 6 6 5 8 6 3 3 3 2 2 2 2 2 3 5 6 7 7 7 7 8 8 8 7 8 8 7 7 6 6 7 6 6 5
13 15 11 6 7 5 11 10 5 5 5 5 6 5 4 3 3 2 2 2 2 2 4 5 5 6 6 7 8 8 8 8 8 8 7 7 7 7 7 7 6 5 6 5
13 16 17 6 6 9 7 4 5 4 4 5 4 4 4 3 3 3 3 3 4 5 6 6 6 7 8 8 8 8 8 8 8 8 8 8 7 7 7 6 6 6 6 5
9 9 5 5 5 4 4 4 4 4 4 4 4 4 3 4 3 3 4 5 6 7 8 7 8 8 9 9 8 8 8 9 8 8 7 7 7 7 7 6 6 5 6 5
8 6 6 5 4 4 4 4 3 3 3 3 4 4 4 4 4 5 6 7 8 8 9 9 9 9 9 8 8 9 9 9 8 8 7 6 6 6 6 6 5 6 5 5
8 6 5 5 4 4 4 3 3 3 3 4 4 4 4 5 6 8 9 10 10 10 10 10 9 9 9 9 8 9 9 8 8 7 7 7 6 5 4 4 4 5 4 4
9 6 6 6 4 4 4 4 4 4 4 4 3 5 6 8 9 10 11 11 10 10 10 9 9 9 9 8 8 9 9 8 7 7 7 6 5 5 5 6 5 5 5 5
7 4 5 4 5 5 6 5 5 6 6 8 8 9 10 11 11 11 10 10 10 10 9 9 9 8 8 8 8 8 9 8 8 8 6 5 4 4 5 4 5 5 5 5
4 4 6 6 7 6 7 8 8 9 10 10 11 11 11 11 11 10 10 9 9 9 8 8 8 8 7 7 7 8 8 8 6 4 4 5 5 4 4 5 5 4 4 5
6 5 6 6 6 7 8 9 10 11 11 11 11 11 10 10 10 9 8 8 8 8 7 7 7 7 6 6 7 6 5 4 3 3 3 4 4 5 4 4 4 4 3 4
7 7 7 8 9 10 10 10 11 11 10 9 9 9 9 8 8 7 7 7 8 8 7 8 8 6 5 4 4 3 3 5 5 3 3 4 4 5 5 4 4 4 4 3
10 11 11 11 10 9 9 8 9 9 9 9 9 9 8 8 7 7 6 6 7 9 8 7 6 3 3 3 3 3 3 2 4 3 3 3 4 4 4 4 4 4 4 3
8 8 8 8 10 10 9 9 9 10 10 9 9 9 10 10 8 7 7 6 7 7 5 4 3 3 3 3 3 2 2 3 3 3 3 3 4 4 4 4 4 4 4 3
8 9 8 9 9 9 10 10 9 8 9 9 10 10 8 8 7 6 6 7 7 6 4 3 5 5 4 3 4 2 3 4 3 3 4 4 4 3 4 4 4 4 4 3
9 9 9 10 9 9 9 8 7 7 7 8 9 8 8 7 7 7 7 7 6 5 4 5 6 5 4 3 4 3 3 3 4 4 4 4 4 4 4 4 4 4 4 3
10 10 10 10 9 9 9 9 9 8 8 9 9 9 9 8 7 7 7 8 6 5 6 7 6 6 5 5 4 3 4 4 4 4 4 4 4 4 4 4 4 4 4 4
9 10 9 8 8 8 8 8 9 10 10 9 9 9 9 8 8 8 7 7 6 7 6 6 5 5 5 5 4 5 5 4 4 4 4 4 4 5 5 5 5 4 4 3
8 8 8 9 8 8 9 10 9 10 10 10 9 10 10 9 9 10 10 8 8 8 7 6 6 7 7 5 5 5 5 5 4 5 6 6 6 6 6 6 6 5 5 4
7 7 8 8 9 10 10 10 10 9 9 9 9 10 10 10 9 8 8 9 9 9 8 8 8 10 8 6 6 6 6 6 6 7 7 7 7 7 7 7 8 7 7 6
9 9 9 9 9 9 10 10 10 9 10 10 10 10 10 9 10 10 10 10 11 10 10 10 11 11 9 9 9 9 8 9 9 9 9 9 9 9 9 9 9 9 8 7
8 8 9 10 10 10 10 10 11 10 11 11 10 10 10 10 10 11 11 11 11 11 11 11 11 11 12 11 11 11 11 11 12 12 11 11 11 11 11 11 10 10 9 8
10 10 9 9 10 11 11 11 11 12 11 11 12 11 11 11 11 12 12 11 12 12 12 12 11 12 13 13 13 13 13 13 13 13 13 13 12 12 12 12 11 11 10 9

GFSNGP_con_lsi_036.txt.gz
Lid_Strength_Index
8 8 8 9 9 8 9 9 12 10 9 8 6 6 5 4 4 4 4 4 4 4 3 3 3 3 3 4 4 4 5 6 6 5 6 5 6 6 6 6 7 6 6 7
11 9 9 10 9 8 8 8 9 9 9 6 5 5 5 5 5 5 4 4 4 3 3 3 3 3 3 4 4 5 5 5 5 6 6 6 7 6 7 7 7 7 7 7
14 10 10 14 10 9 8 8 8 10 8 6 6 6 5 5 4 4 4 4 4 3 3 3 2 3 3 4 4 4 5 6 6 6 6 7 7 7 7 7 7 8 7 7
15 13 18 9 6 7 8 8 7 7 7 6 6 5 4 4 4 4 3 3 3 3 3 2 2 3 4 4 4 6 7 6 6 7 7 8 7 7 7 7 8 8 8 7
17 15 11 9 8 8 9 9 7 7 7 6 5 5 5 3 3 4 3 3 3 2 2 2 3 4 4 5 7 7 7 7 7 8 8 8 8 8 8 8 8 8 7 7
14 17 18 10 7 6 6 11 6 6 6 6 5 10 7 4 3 3 3 2 2 2 2 3 4 4 6 7 7 8 8 8 8 8 8 9 8 8 8 8 7 7 7 8
14 16 13 7 6 5 12 12 5 5 5 6 7 6 4 3 3 3 3 3 3 3 4 6 6 6 8 8 9 8 8 8 8 8 8 8 8 8 8 8 8 8 9 8
14 16 18 6 6 10 7 5 5 5 5 5 5 4 4 3 3 3 4 4 5 7 7 7 7 8 9 9 9 8 8 8 8 8 8 8 8 7 7 8 9 9 9 8
11 12 6 5 5 4 4 5 5 5 4 4 5 5 4 4 4 4 6 7 7 8 9 8 9 9 10 9 9 8 9 9 8 8 8 8 8 8 8 8 9 8 7 6
9 6 6 5 4 4 4 5 4 4 4 4 5 4 4 5 6 7 7 8 9 9 10 10 9 9 9 9 8 9 9 9 9 9 8 8 7 8 8 8 7 7 6 6
8 6 6 6 5 5 4 4 4 4 4 5 4 6 8 9 10 10 10 10 10 10 10 10 9 9 8 8 8 8 8 8 9 8 8 8 7 6 7 6 6 6 6 6
11 6 7 7 5 4 5 5 5 6 8 8 8 9 9 10 11 11 11 10 10 10 10 9 9 9 8 7 7 8 8 9 9 9 8 6 6 5 4 6 5 5 5 6
7 5 5 5 5 6 7 7 7 8 8 9 9 9 10 11 11 11 10 10 10 9 9 8 8 8 7 6 7 8 9 9 8 7 6 6 7 7 7 5 4 5 5 4
4 4 6 5 8 7 8 9 8 9 9 9 10 10 10 11 10 10 10 9 9 8 7 7 7 7 5 5 6 7 6 7 6 6 5 6 5 5 5 6 7 6 4 5
6 5 6 6 7 9 8 9 9 10 10 10 10 10 10 10 10 9 8 7 7 7 7 7 7 7 5 4 5 5 5 5 5 5 5 6 6 5 5 5 6 6 5 6
7 7 7 8 9 9 9 9 10 10 10 9 10 10 10 9 9 8 7 7 8 9 8 9 8 6 4 3 3 3 4 5 6 5 5 5 5 5 5 5 5 5 5 5
10 11 10 10 10 9 9 9 9 10 10 11 11 11 10 9 9 8 8 8 9 9 8 7 6 3 4 3 4 4 4 4 5 5 5 4 4 4 4 5 5 5 5 5
8 8 8 8 9 10 10 10 10 11 11 11 12 11 11 11 10 9 9 9 8 7 6 5 7 6 5 5 5 5 5 5 5 5 4 4 4 4 5 5 5 5 5 5
8 8 8 8 9 10 10 11 11 11 12 11 11 11 10 10 10 10 9 10 10 8 7 6 7 7 7 6 7 6 6 6 5 5 5 5 5 5 5 5 5 5 5 5
8 9 9 10 10 10 11 11 11 10 9 11 12 12 12 12 12 11 10 9 8 8 8 8 8 8 7 7 7 7 7 7 6 6 5 5 5 5 5 6 5 4 4 5
10 10 11 11 12 12 12 12 11 10 10 13 12 13 13 12 11 11 10 10 9 9 9 9 9 8 9 10 9 8 7 7 7 6 6 5 5 6 6 6 5 5 5 4
10 11 12 12 11 11 10 10 10 12 12 13 14 15 14 12 12 11 11 10 10 11 10 10 9 12 12 12 9 8 8 8 6 6 5 5 5 6 7 7 7 7 7 6
10 11 11 11 10 9 10 11 12 12 13 14 13 13 12 11 10 11 12 10 10 12 11 11 12 14 14 11 11 10 10 10 10 9 8 8 7 8 8 8 8 9 9 8
9 9 9 9 9 10 11 11 11 10 12 11 12 13 11 11 11 10 10 12 13 13 12 12 13 14 14 12 12 12 12 12 13 12 11 10 10 10 10 10 10 10 10 10
9 9 9 10 10 10 11 11 11 11 11 11 11 10 10 10 11 11 11 12 12 12 12 12 12 14 14 13 13 13 13 13 14 14 14 13 13 13 12 12 12 12 11 11
8 9 10 11 11 11 12 12 12 11 12 11 11 11 10 10 11 12 12 12 12 13 12 12 13 13 14 14 14 14 15 15 15 16 15 15 14 14 14 14 13 13 12 12
11 10 10 10 11 12 12 12 12 13 12 12 13 12 11 11 12 12 13 13 13 13 13 13 13 13 14 14 14 15 15 16 16 16 16 16 15 15 14 14 13 13 13 12

GFSNGP_con_lsi_039.txt.gz
Lid_Strength_Index
10 9 9 10 10 10 11 11 14 12 11 9 10 9 8 7 7 7 6 6 6 6 5 5 5 5 4 5 6 6 6 6 6 6 6 6 6 7 7 7 8 8 8 8
13 10 10 11 10 10 10 10 11 11 11 9 8 8 8 7 7 7 6 6 5 5 4 4 4 4 5 5 6 6 6 6 5 6 6 7 7 7 8 8 8 8 8 8
16 12 12 16 12 10 10 9 10 13 11 8 9 8 8 8 6 6 6 6 5 5 5 5 4 5 6 6 6 6 6 6 6 6 7 7 7 8 8 9 8 8 8 8
17 16 21 11 8 9 10 10 10 10 10 9 8 7 7 7 7 7 6 6 5 5 5 5 6 7 7 6 6 7 7 7 7 7 8 8 9 9 8 8 9 9 9 8
17 17 13 10 9 9 10 11 8 9 9 8 8 8 7 5 5 6 6 5 5 5 6 7 7 7 8 8 8 7 8 9 8 8 9 9 8 8 9 8 9 9 8 8
16 18 20 12 9 7 8 14 8 7 8 8 7 12 9 6 5 5 7 7 7 8 8 8 9 8 9 10 9 10 9 9 9 8 9 8 8 8 8 9 8 8 8 8
18 19 14 8 8 7 15 13 7 7 7 7 9 8 6 5 5 6 8 8 8 9 9 9 9 9 9 10 10 9 8 8 8 8 8 8 8 8 8 9 9 9 9 9
15 17 18 7 8 11 9 7 7 7 7 7 6 5 5 6 9 9 9 9 9 10 10 9 9 10 11 11 9 9 9 8 8 8 8 7 8 8 8 9 9 9 9 8
13 13 8 7 7 6 6 7 7 6 6 5 6 5 8 9 9 10 10 10 9 10 10 10 10 10 10 10 9 9 9 9 9 8 7 7 8 8 9 9 8 8 8 9
11 9 8 7 6 5 5 6 7 7 7 7 9 9 10 10 11 11 10 10 9 10 11 11 10 10 10 9 9 9 9 9 8 8 8 8 8 7 7 9 9 8 8 8
10 8 7 7 6 6 6 7 8 8 8 9 10 10 11 11 11 11 10 10 10 10 11 11 10 10 10 9 8 8 8 8 8 8 8 7 6 7 7 7 8 8 8 7
12 8 8 9 7 7 8 8 9 9 10 10 10 11 11 11 10 10 10 10 11 11 11 11 11 10 9 8 8 9 9 9 10 9 9 7 7 7 6 6 5 5 5 6
8 7 8 9 9 8 9 9 9 9 10 11 11 11 11 12 11 11 11 11 11 11 11 11 10 9 8 8 9 9 10 9 9 8 8 8 8 8 7 7 5 5 4 4
6 8 10 9 10 9 9 10 9 10 11 11 11 11 12 12 12 11 11 11 11 10 10 10 10 10 8 8 8 9 9 8 7 7 7 7 7 7 7 8 8 7 6 4
8 7 9 9 9 10 10 10 11 12 12 12 11 12 12 12 12 12 11 11 11 10 10 9 10 10 8 7 7 7 6 8 7 7 7 7 6 6 6 6 7 7 7 8
9 9 9 10 10 10 10 11 12 13 11 12 12 12 12 11 12 11 11 11 12 12 11 11 10 8 7 6 6 6 6 8 8 7 6 7 7 5 5 6 6 6 6 7
11 12 11 11 11 10 11 11 11 11 12 13 15 14 13 13 13 13 12 11 12 13 12 10 10 9 9 8 8 8 9 8 9 8 7 7 7 7 5 6 5 5 5 6
9 9 9 9 11 11 11 11 12 13 14 14 14 14 14 15 14 13 13 13 15 14 11 11 11 10 9 8 9 9 9 9 9 9 8 8 7 6 6 7 8 8 8 8
8 9 9 9 10 10 11 12 13 14 15 14 16 16 16 16 12 12 13 16 15 14 12 11 11 10 11 11 12 12 12 11 10 9 9 8 7 6 6 8 9 9 9 7
10 10 10 11 11 12 13 12 13 14 14 16 18 18 16 18 18 18 16 15 13 13 13 12 12 13 13 13 14 12 11 11 10 10 9 8 8 7 6 7 7 7 7 7
11 12 13 13 13 13 14 15 15 15 14 18 17 20 20 18 17 19 16 15 13 14 13 13 13 14 14 15 12 13 13 13 13 13 12 11 9 9 8 8 9 9 9 9
11 13 13 13 13 14 14 14 15 16 16 19 22 21 21 15 17 16 18 15 13 17 14 13 13 17 15 16 14 15 15 14 16 15 14 13 12 11 11 11 11 11 11 11
12 12 13 13 14 14 14 15 16 16 18 19 20 19 17 15 14 16 16 13 13 15 13 14 18 19 19 17 16 16 17 16 17 17 16 15 14 14 14 14 13 13 12 12
12 12 13 13 14 14 14 13 12 13 18 15 18 20 15 18 20 14 13 16 18 19 19 16 17 19 21 22 19 17 18 17 17 18 17 17 16 16 16 15 15 14 13 13
12 13 13 13 13 13 13 13 13 13 13 13 14 13 13 13 18 17 19 18 17 18 20 19 19 19 22 24 23 21 20 19 18 18 18 19 18 18 17 16 16 15 14 14
13 14 13 13 13 14 14 13 14 15 15 17 17 20 18 16 15 17 19 19 18 18 20 22 22 22 21 23 23 23 20 18 19 18 20 20 18 18 18 17 16 15 15 13
12 13 13 14 13 14 14 15 17 18 18 21 20 20 15 17 20 18 22 23 23 21 23 22 23 22 20 20 23 21 23 23 22 19 24 21 20 19 18 17 16 15 15 14

GFSNGP_con_lsi_042.txt.gz
Lid_Strength_Index
11 10 10 11 11 11 12 12 14 12 12 10 10 10 9 8 8 7 8 7 7 8 8 7 6 4 5 6 6 6 7 7 6 6 7 7 7 7 8 8 8 9 9 8
14 11 11 12 11 12 11 11 11 11 12 10 10 9 9 9 8 8 7 6 6 6 6 6 5 5 5 6 7 7 7 8 7 6 7 7 7 8 8 8 8 9 8 8
16 13 13 16 12 11 11 11 11 14 12 10 10 9 10 9 8 8 8 7 6 5 5 5 5 5 6 8 7 8 7 7 7 7 8 8 8 8 9 9 9 9 8 8
17 16 20 12 9 9 10 10 10 10 10 9 9 9 8 8 8 8 7 7 6 6 7 8 9 8 8 8 9 8 8 8 8 9 9 9 8 9 9 9 9 9 8 8
18 18 14 11 10 11 11 12 10 10 9 9 8 8 8 7 8 8 8 8 9 9 9 9 10 9 10 10 10 10 10 9 9 9 9 8 8 8 8 9 9 9 8 7
17 19 20 12 10 8 8 14 8 8 8 8 8 12 10 8 9 9 10 9 10 9 9 10 10 10 10 10 10 10 9 9 8 8 8 8 8 8 8 8 8 8 7 7
21 20 16 10 8 8 15 14 8 8 8 8 9 8 9 9 9 9 10 10 9 10 11 11 10 10 10 10 10 9 9 8 8 8 9 8 8 9 9 9 8 9 8 8
17 20 18 8 8 11 10 8 8 7 7 7 8 9 9 10 10 10 11 10 10 11 10 10 9 9 10 10 9 9 8 9 9 8 8 8 9 10 9 9 9 9 10 8
13 13 9 8 8 7 7 7 7 6 6 6 10 10 10 11 11 11 11 11 10 11 11 10 10 10 11 10 10 10 10 10 9 9 9 9 10 10 10 9 10 9 9 9
11 9 9 7 6 6 7 9 8 8 8 9 10 11 11 11 11 11 10 11 10 10 11 11 11 11 11 10 10 10 10 10 10 10 10 9 9 9 9 10 10 8 9 9
11 9 8 8 7 8 9 9 9 9 10 10 11 11 11 11 11 11 11 10 10 11 11 12 11 12 11 11 10 10 10 10 10 10 10 10 9 8 8 8 8 8 9 9
14 8 9 9 9 8 9 10 10 10 11 11 11 12 12 12 11 11 11 11 11 12 12 12 12 12 11 10 9 10 10 10 11 11 11 10 9 8 6 6 6 6 6 8
9 8 9 9 9 9 10 10 10 11 11 12 11 11 12 12 13 12 12 12 13 13 13 13 13 12 10 10 10 10 11 10 10 10 9 9 8 8 8 6 5 5 5 5
9 9 11 10 12 10 11 11 11 11 11 11 12 12 13 13 12 13 13 13 13 13 13 12 12 11 9 9 9 10 10 10 10 10 10 9 7 7 7 7 7 6 5 5
9 9 10 11 11 12 11 11 12 12 13 13 13 13 13 13 13 13 13 13 14 14 13 11 11 11 10 10 11 11 10 10 10 10 9 9 8 8 7 6 6 6 6 7
11 11 11 12 12 12 12 12 13 14 13 13 13 13 12 12 13 14 14 14 14 15 12 12 13 12 11 11 11 11 11 11 11 10 10 10 10 9 9 8 7 6 6 8
13 14 13 13 12 12 12 12 12 13 14 15 14 13 14 15 15 15 14 15 16 14 13 13 14 12 12 13 14 14 14 13 13 11 10 10 10 10 9 9 8 7 6 7
11 11 11 11 12 12 12 12 13 14 14 13 14 17 17 17 15 15 16 16 17 15 14 13 13 14 14 14 14 14 14 13 12 11 11 11 11 9 9 8 7 7 7 10
11 10 10 10 11 12 13 14 14 14 14 15 16 17 17 18 16 16 15 17 17 16 15 13 14 15 15 15 14 13 14 14 14 14 14 14 12 11 11 11 9 8 7 8
10 10 10 11 12 13 14 15 14 15 15 17 19 19 18 20 21 18 16 16 16 15 14 14 15 16 15 15 16 14 16 15 16 17 16 16 15 14 13 13 12 11 11 11
12 12 13 13 13 13 14 15 15 16 17 19 19 21 21 18 18 18 17 16 15 15 15 15 16 16 15 17 15 17 18 18 19 19 18 17 17 16 15 15 14 14 13 13
13 13 14 14 14 15 14 15 15 17 18 20 22 22 19 16 18 17 19 16 15 20 16 15 15 21 17 20 17 20 18 18 19 19 19 18 18 17 17 17 17 16 15 14
13 14 14 14 15 15 15 16 18 18 20 20 20 19 16 15 16 19 19 15 15 18 15 18 20 22 23 24 24 25 25 24 22 22 20 20 19 19 19 19 18 17 16 15
13 13 14 14 15 15 16 16 16 16 18 16 19 21 15 18 21 15 15 19 22 23 23 21 23 22 24 27 27 27 26 27 26 22 22 23 21 21 21 20 19 17 17 16
13 13 14 15 15 16 15 15 15 14 14 14 15 15 14 15 19 18 21 21 19 21 23 24 23 23 26 28 28 29 28 28 28 23 28 26 23 22 22 21 20 18 17 17
13 15 15 15 16 16 15 14 15 15 16 19 18 23 21 17 17 18 22 22 21 21 24 27 28 27 27 25 27 28 28 25 27 24 29 28 25 24 23 22 21 19 18 17
16 16 16 16 14 14 15 16 17 18 19 23 21 23 17 20 22 21 26 27 27 26 27 26 28 26 26 26 23 25 27 28 28 27 32 31 29 27 24 22 21 20 19 18

GFSNGP_con_lsi_045.txt.gz
Lid_Strength_Index
12 11 11 11 11 11 13 13 15 13 13 11 10 11 10 9 9 7 7 7 7 8 8 8 7 7 7 7 7 7 7 7 8 8 8 8 8 9 8 8 8 8 8 8
14 11 12 12 11 11 12 12 13 13 13 11 11 10 10 9 9 8 8 7 7 7 7 7 6 6 7 8 7 7 7 8 7 7 8 8 8 8 8 9 9 8 8 8
16 14 14 16 13 12 12 11 11 14 12 11 11 10 11 10 9 9 9 8 7 6 6 6 6 6 8 8 8 8 8 8 8 9 9 9 8 8 8 8 8 8 9 8
17 16 20 12 10 10 11 12 11 11 11 11 10 10 10 9 9 9 9 9 10 9 9 9 9 8 9 9 9 9 10 10 9 9 9 9 8 8 8 8 9 10 10 9
17 17 14 12 11 11 12 13 10 11 10 9 9 9 9 9 10 11 11 11 10 10 10 10 11 10 11 11 11 11 10 10 9 8 8 8 8 8 9 10 11 11 9 9
18 19 20 13 11 9 9 15 9 9 9 9 9 12 10 10 10 11 11 10 11 10 11 11 11 10 10 11 11 10 9 9 8 8 8 8 8 9 9 10 9 9 9 9
20 20 16 12 10 9 15 14 9 8 9 9 10 10 10 10 11 10 11 11 11 11 11 11 10 10 10 9 9 8 8 7 8 8 9 9 9 9 10 10 10 11 11 10
19 21 18 10 10 12 11 9 8 8 8 10 10 10 10 11 11 11 12 11 11 11 11 10 10 10 10 10 9 9 9 10 11 11 10 9 10 10 10 11 11 11 12 10
14 15 11 9 9 8 8 8 8 7 8 9 10 11 11 11 11 12 12 12 11 11 11 10 10 10 12 11 11 11 12 12 11 11 10 10 11 11 11 11 11 11 10 10
12 10 9 8 8 8 7 8 7 7 9 9 11 11 11 12 12 12 12 12 11 11 11 11 11 11 12 11 12 12 13 12 11 11 10 11 11 11 11 11 11 9 9 9
12 10 9 8 10 10 10 9 10 10 9 10 11 11 12 12 12 12 12 11 11 11 12 12 12 13 13 12 12 13 12 12 11 11 11 11 10 10 10 9 9 8 8 8
13 8 9 9 10 9 10 10 10 11 11 11 11 12 12 12 12 12 12 11 12 12 13 14 13 13 12 12 13 13 12 11 12 11 11 11 10 10 8 8 7 6 6 6
10 8 10 10 11 10 10 11 11 11 12 12 12 12 12 13 13 13 13 13 14 14 13 14 14 14 13 13 13 13 12 11 12 12 12 12 11 11 12 10 7 6 5 5
10 10 12 11 12 11 11 11 11 12 12 12 12 13 13 14 14 14 14 14 14 13 13 14 15 15 14 14 13 12 12 12 13 13 13 12 13 12 12 11 11 9 7 5
11 10 11 11 12 12 12 12 13 14 13 13 13 14 14 14 15 15 15 14 14 14 14 16 16 16 14 14 14 13 14 14 14 14 14 14 13 12 12 11 10 10 9 8
11 12 12 13 13 13 13 14 14 15 14 14 14 13 14 15 15 15 15 14 15 16 17 20 16 16 15 15 15 15 15 15 15 14 14 13 12 12 11 11 11 10 10 9
14 15 14 15 14 14 14 13 13 13 14 14 14 15 15 15 15 15 16 16 17 18 17 17 18 16 15 15 15 15 15 15 16 15 14 14 14 13 13 12 13 13 12 9
11 12 12 12 13 13 13 13 14 14 15 15 16 17 18 17 16 17 18 18 19 19 17 17 17 16 16 16 16 15 16 16 17 17 16 16 16 15 15 15 14 14 13 12
11 11 11 12 12 12 13 14 14 14 16 17 16 17 17 17 16 17 18 21 21 20 17 16 15 16 17 16 16 17 18 18 19 17 17 18 18 18 16 17 16 15 14 13
10 11 11 12 13 14 14 14 15 15 15 16 17 18 18 20 19 20 20 20 19 17 15 16 16 17 17 17 20 18 19 20 19 20 20 19 20 20 19 19 18 18 17 16
12 13 14 14 15 14 14 15 16 16 17 17 18 19 19 19 20 21 22 19 17 16 15 17 17 18 18 19 18 22 24 24 25 22 23 22 22 21 21 20 20 20 19 18
13 14 15 15 15 15 15 15 16 18 18 20 21 20 20 19 21 20 22 18 16 20 17 17 17 23 20 22 19 25 21 22 23 24 24 24 24 23 23 22 22 21 20 19
13 14 14 15 15 16 15 16 18 18 19 20 20 20 19 18 18 20 19 16 16 20 17 20 23 24 25 27 27 29 29 29 28 26 28 28 27 24 24 24 22 22 21 20
14 14 15 15 16 16 17 16 16 17 19 18 20 20 18 20 21 16 17 21 24 25 25 25 25 25 27 29 30 31 30 31 32 29 28 28 29 28 25 25 24 23 22 21
14 15 15 16 16 16 15 15 16 16 17 17 17 16 15 16 20 19 22 23 21 22 25 26 26 26 29 31 31 31 31 32 33 30 32 33 29 29 28 27 25 24 23 22
14 15 15 15 15 15 16 16 17 17 18 20 19 23 20 19 19 20 23 24 23 23 25 29 30 30 31 28 28 29 30 28 31 30 32 32 31 29 29 27 26 25 24 22
16 16 16 17 17 17 17 17 17 18 18 21 21 22 20 21 22 22 27 29 29 29 29 30 30 28 28 30 29 27 29 31 32 31 34 34 32 32 31 29 27 26 25 23

GFSNGP_con_lsi_048.txt.gz
Lid_Strength_Index
12 12 11 12 12 12 13 13 15 13 14 12 11 12 11 10 9 8 7 7 7 7 8 7 7 8 8 8 8 8 8 9 8 8 8 9 9 9 8 8 9 8 8 8
14 12 13 13 12 12 13 13 13 14 14 11 12 11 11 10 9 9 8 8 8 7 7 7 7 7 8 9 9 8 9 9 9 9 9 9 9 9 9 9 8 7 8 8
16 14 14 17 13 12 12 12 11 14 11 11 12 11 11 11 10 9 9 10 9 9 8 7 7 8 9 9 8 9 9 10 10 9 10 9 8 8 8 8 8 8 8 8
18 17 20 13 11 11 11 12 12 12 12 11 11 11 12 11 10 11 11 11 11 11 10 10 10 10 9 9 10 11 11 10 9 9 9 9 8 8 8 8 8 9 10 10
18 18 15 13 12 12 12 13 11 12 11 10 9 10 11 11 11 12 12 12 12 12 11 11 11 11 10 11 11 11 10 9 8 8 8 8 8 8 8 9 10 11 10 9
18 19 20 13 11 10 11 15 10 10 10 10 10 14 12 11 11 12 12 12 12 12 11 11 11 10 11 11 10 10 9 9 8 8 8 8 9 9 10 11 11 10 10 10
21 20 16 11 11 10 15 14 10 9 9 10 11 11 11 11 12 12 12 12 11 11 12 12 11 10 10 10 10 8 8 8 8 9 10 11 11 12 12 12 11 11 11 11
19 20 18 11 11 13 11 11 9 9 9 10 11 11 12 12 12 12 12 12 12 12 12 11 11 10 11 11 10 10 10 10 11 12 12 12 13 13 12 12 12 11 12 11
13 14 11 11 11 10 9 10 9 8 9 10 11 12 12 12 12 13 13 13 12 12 12 12 12 12 12 12 12 12 12 13 13 13 13 13 13 13 12 12 12 12 11 11
13 11 10 9 10 9 8 8 8 8 9 10 11 11 12 13 13 13 13 13 12 13 13 13 12 12 12 12 13 13 13 14 14 14 14 13 13 12 12 13 12 11 10 10
13 11 10 9 10 10 9 9 10 10 10 10 11 12 12 13 13 13 13 13 12 13 13 13 13 13 13 13 13 14 14 14 14 14 14 14 13 12 11 11 11 11 10 10
12 10 10 9 10 9 10 10 10 11 11 11 11 12 12 13 13 13 13 13 14 14 14 14 15 15 14 14 15 15 14 15 15 16 16 14 13 13 11 11 10 9 9 10
9 8 10 10 11 10 11 11 11 11 11 12 12 12 13 14 14 13 14 14 14 14 15 16 16 16 16 15 15 15 16 16 16 16 15 14 14 14 15 13 11 11 10 9
10 10 12 11 12 12 12 12 11 12 12 12 13 13 14 15 14 14 14 14 14 14 15 16 16 16 16 16 16 17 17 17 17 16 16 15 16 14 15 15 15 15 12 10
11 11 10 12 12 13 13 12 13 14 14 14 14 15 14 15 15 16 15 14 15 17 17 17 17 17 17 17 17 17 17 17 16 16 16 15 15 16 16 15 14 14 14 13
13 13 12 13 14 13 13 14 14 15 14 14 14 14 15 15 16 16 15 15 17 18 18 20 18 18 17 17 18 18 17 16 17 16 17 17 17 17 16 16 15 15 15 15
14 15 14 14 14 14 14 14 14 14 13 13 15 15 15 16 16 16 17 18 18 18 18 18 19 18 18 18 18 18 17 17 18 18 18 18 18 18 17 16 18 17 17 16
12 12 12 13 14 14 14 14 14 14 14 15 15 16 17 17 17 18 18 19 19 18 18 18 18 18 19 19 18 18 19 19 19 19 19 20 20 18 18 19 19 19 19 17
11 12 12 13 13 13 14 14 14 15 16 16 16 17 17 17 17 18 19 20 20 19 19 18 18 19 20 19 19 19 20 22 22 21 21 22 22 21 20 21 20 21 20 19
12 12 12 13 13 14 15 15 15 15 16 17 18 18 18 18 19 20 19 20 19 18 17 19 19 20 20 19 20 20 22 26 22 24 25 23 27 27 25 24 22 22 22 20
13 13 14 14 15 14 15 15 16 16 17 17 17 18 18 19 19 20 20 20 19 18 18 19 20 20 19 20 20 25 28 29 28 26 27 30 31 28 29 29 25 23 22 21
14 15 15 15 15 16 16 16 16 17 18 19 19 19 19 19 20 20 20 18 18 21 19 19 19 23 21 23 21 27 23 25 27 28 30 31 32 31 30 30 27 24 23 23
15 15 15 16 16 16 17 17 18 18 19 19 19 19 18 18 19 20 20 18 19 21 19 20 22 26 27 28 29 31 30 31 31 30 32 35 35 35 32 29 27 26 25 24
14 14 15 15 16 17 18 18 17 18 18 18 19 19 18 20 21 18 19 22 23 24 25 26 26 25 27 30 31 32 32 33 34 34 32 33 37 36 33 33 29 27 26 26
15 15 15 16 16 17 17 17 17 17 17 17 17 17 17 18 21 20 22 21 21 23 25 26 26 27 31 32 33 32 32 33 34 35 36 37 36 35 34 33 31 29 27 26
15 16 16 16 16 16 16 16 17 17 18 19 19 20 21 20 20 20 22 23 23 24 24 29 30 31 32 31 32 32 29 28 33 33 35 36 37 33 34 32 31 29 28 27
17 17 17 18 18 17 17 17 17 18 18 19 19 20 20 21 22 22 27 28 29 29 29 29 31 30 31 32 32 30 29 31 34 33 37 38 38 37 35 34 32 30 29 27

GFSNGP_con_lsi_054.txt.gz
Lid_Strength_Index
8 8 8 8 9 8 9 9 11 10 9 7 6 6 5 5 5 5 4 4 4 4 3 3 3 2 2 2 3 4 5 6 6 6 6 6 5 5 5 6 6 4 6 6
10 8 8 9 8 8 8 8 9 9 9 6 5 5 5 5 5 5 5 5 4 4 3 3 3 3 3 3 3 4 6 7 7 7 7 7 6 5 6 6 6 6 7 7
12 9 10 13 10 9 8 8 8 10 7 5 6 6 5 5 5 5 5 5 4 4 4 3 3 3 3 3 3 4 5 7 6 6 6 5 6 6 6 6 6 6 6 6
12 13 19 9 7 7 8 7 7 7 6 5 5 5 5 4 5 5 5 5 5 4 4 3 3 3 3 3 4 4 6 6 6 6 5 5 5 6 6 7 6 6 6 5
16 14 11 10 8 8 9 9 6 6 6 5 5 6 7 6 4 4 5 5 5 4 4 4 4 4 4 4 4 5 5 5 5 5 6 6 6 6 6 5 5 5 6 7
13 15 19 9 6 5 6 11 5 5 6 6 6 9 6 6 6 6 6 5 5 5 5 5 4 4 4 4 5 5 6 6 5 5 7 7 7 7 7 6 7 7 8 7
14 15 11 7 6 6 12 10 5 5 5 5 7 5 5 6 6 6 6 6 5 5 5 5 4 4 5 5 6 6 6 7 8 8 8 8 8 8 8 8 8 8 8 7
13 16 17 7 7 9 6 5 5 5 5 5 5 5 6 6 7 7 7 7 6 6 6 5 4 5 6 7 6 7 7 8 8 9 9 9 9 8 9 9 10 10 9 10
11 10 6 5 5 4 4 5 5 4 4 4 6 6 6 7 7 7 7 6 6 6 6 6 6 6 8 8 8 8 9 9 10 10 11 11 11 11 11 11 11 11 12 11
10 7 7 6 4 5 5 4 4 4 4 5 5 6 7 7 7 7 7 7 7 8 8 9 8 8 8 9 9 9 10 11 11 12 12 12 11 12 12 12 12 13 12 13
9 7 6 6 5 4 5 5 5 4 4 4 5 6 7 7 8 7 7 7 7 8 9 10 10 10 10 10 10 11 12 13 13 13 13 12 13 13 13 12 13 13 13 13
11 6 7 5 4 4 5 6 5 5 6 4 5 6 7 7 7 8 8 8 9 9 10 11 12 13 12 12 12 12 13 14 14 13 13 13 13 12 15 15 15 15 15 15
6 5 5 6 7 4 5 5 5 5 5 5 6 6 7 8 8 9 8 9 10 11 12 13 14 14 13 13 13 14 14 15 14 14 13 14 13 13 14 13 15 15 15 16
5 7 7 8 7 7 7 6 7 6 6 6 7 7 7 8 9 9 9 10 11 12 13 14 14 15 14 14 14 15 16 17 14 14 14 13 14 14 14 15 15 14 14 15
6 6 7 8 8 9 8 9 9 9 9 9 9 9 10 11 10 10 11 12 13 13 14 15 16 16 15 15 15 15 15 15 15 14 15 15 15 15 15 15 15 15 14 14
6 7 8 8 9 10 9 10 10 11 11 11 11 11 11 11 11 12 13 13 14 15 15 17 17 16 15 15 15 15 16 18 17 15 15 15 15 15 16 16 16 15 15 14
9 9 9 10 10 10 10 9 10 11 11 11 11 11 12 13 14 14 15 16 17 17 17 17 17 16 16 16 16 16 15 16 19 16 16 16 16 16 16 16 16 15 15 14
7 8 8 8 9 10 10 11 12 12 12 12 13 14 15 16 17 18 18 18 18 18 17 18 17 17 17 17 17 17 17 17 17 17 16 16 18 17 16 16 16 16 15 14
8 8 9 9 10 10 11 12 12 12 15 15 15 16 17 17 17 18 18 19 19 19 19 18 18 18 19 19 18 18 18 17 17 17 17 19 17 17 17 16 16 16 15 15
11 11 11 11 11 11 14 15 15 15 15 16 17 17 18 18 18 18 18 17 17 17 17 18 19 19 19 20 20 18 18 18 18 18 18 18 17 18 17 17 17 16 15 15
14 15 15 15 16 16 15 15 16 16 16 16 17 17 18 18 18 18 18 19 18 18 18 19 18 18 18 19 18 17 17 18 18 17 18 18 18 17 17 16 16 16 16 15
16 16 16 16 16 17 16 15 16 16 16 17 17 17 18 18 18 18 17 18 18 18 18 18 18 19 19 20 17 17 17 18 18 18 17 17 17 17 17 17 17 17 16 16
15 15 16 16 16 16 16 16 16 16 17 17 17 17 17 17 17 17 19 18 17 18 17 17 20 20 21 17 16 17 17 18 18 17 17 17 17 17 18 18 18 18 17 17
15 15 15 15 15 16 17 17 16 17 17 17 17 16 17 17 17 16 17 17 18 17 17 18 19 20 21 17 17 17 18 17 17 16 16 20 17 17 17 18 18 18 18 18
15 15 15 16 16 17 16 16 16 17 17 17 17 17 16 16 15 16 16 17 18 17 17 20 20 21 18 17 17 17 17 16 16 16 16 17 17 17 17 17 19 19 19 19
16 16 16 16 16 16 16 16 17 16 16 17 17 16 16 16 17 16 16 17 17 18 16 17 17 17 16 16 16 17 16 16 16 16 17 17 17 17 18 18 19 19 19 18
18 17 17 18 17 17 17 17 17 17 16 16 17 16 16 15 16 16 17 16 16 17 16 16 15 16 16 16 16 16 16 16 17 17 17 17 17 18 18 19 19 19 19 19

GFSNGP_con_lsi_057.txt.gz
Lid_Strength_Index
8 8 8 8 9 8 9 9 11 10 9 8 6 6 5 4 4 4 4 4 3 3 3 3 3 2 2 3 3 3 4 5 5 5 5 5 5 6 6 6 7 6 6 6
9 8 8 9 8 8 8 8 8 8 9 6 5 4 5 5 4 4 4 4 3 3 3 3 3 3 2 2 4 4 5 6 6 6 5 4 5 5 5 6 5 5 6 7
13 9 9 12 9 8 8 7 7 9 7 5 6 5 5 4 4 4 4 4 4 3 3 3 3 2 3 3 4 4 4 4 4 4 4 4 4 4 4 5 5 5 7 6
13 13 18 9 6 6 7 7 6 6 6 5 5 4 4 4 4 4 4 4 4 3 3 2 2 3 2 2 3 3 4 4 4 4 4 4 4 4 5 5 5 5 5 5
15 14 10 9 7 7 8 8 6 6 6 5 5 5 5 4 3 4 3 3 3 2 2 2 2 2 3 3 4 4 4 4 3 4 5 4 5 5 5 6 5 6 6 6
13 16 17 10 6 5 5 11 5 5 5 5 5 8 6 4 3 3 3 3 3 2 2 2 2 3 3 4 4 4 4 4 4 4 4 5 5 6 6 6 7 7 8 7
14 14 11 7 6 5 12 11 5 5 5 5 6 5 4 3 4 3 3 3 3 3 3 3 3 3 4 4 4 4 4 4 5 5 6 6 6 7 7 7 8 8 9 8
13 15 17 6 6 9 6 5 4 4 4 4 4 4 4 4 4 4 4 4 3 4 4 3 3 3 4 5 4 5 6 6 6 7 8 8 8 8 9 9 10 10 10 10
10 10 6 5 6 4 4 4 4 4 4 4 5 5 4 4 4 4 4 4 4 4 4 4 3 4 5 5 5 6 7 7 8 9 9 9 10 10 10 10 11 11 12 11
9 7 6 5 4 4 4 4 3 3 3 3 5 4 5 4 5 5 4 4 4 4 5 5 5 5 6 6 6 7 8 9 10 10 11 11 11 11 12 12 12 12 12 12
8 6 6 5 5 4 4 3 3 3 3 4 4 4 5 5 5 4 4 5 5 6 6 6 6 7 7 7 8 9 10 11 11 12 12 12 12 12 12 13 14 13 13 13
10 6 7 6 4 4 4 4 4 4 4 3 3 5 5 5 4 5 5 5 6 6 7 8 8 8 8 8 9 11 12 12 12 12 12 12 12 13 15 15 16 15 16 16
6 5 5 4 4 4 4 3 3 4 3 4 4 5 5 5 5 7 6 6 6 7 8 9 10 11 11 11 11 12 13 13 14 13 13 13 13 13 13 15 15 15 16 16
4 4 6 5 5 5 4 3 4 4 4 4 5 5 6 6 7 6 7 7 8 10 11 11 12 13 13 13 13 13 14 15 13 13 13 13 13 14 13 14 15 14 15 15
4 4 4 4 5 5 5 5 6 5 5 5 5 6 7 8 9 9 9 10 11 12 13 13 14 15 14 13 14 14 14 14 14 14 14 15 14 14 14 15 15 15 14 14
4 4 4 5 5 6 7 7 6 7 6 7 7 7 8 9 9 11 11 11 13 14 15 16 16 15 14 14 14 15 16 17 16 15 15 15 15 15 15 15 15 15 14 14
6 7 6 6 6 7 7 7 7 7 7 8 8 8 9 10 12 13 14 16 17 17 17 17 17 16 16 16 15 15 15 16 18 15 15 16 16 16 16 15 15 15 15 14
5 5 6 5 5 7 7 7 8 8 9 9 10 12 14 14 16 17 17 18 18 18 18 18 18 18 17 17 17 17 16 17 16 16 16 16 17 16 16 16 16 16 15 15
6 6 7 7 7 7 8 9 9 11 14 14 14 16 17 17 18 18 18 19 19 20 19 19 18 18 19 19 18 17 17 17 17 17 17 18 17 16 16 16 16 16 15 14
10 10 11 11 11 12 13 13 13 14 15 16 17 18 19 19 19 19 18 18 18 19 18 19 19 19 19 20 19 18 18 17 18 17 17 18 17 17 16 17 17 16 15 14
15 15 15 16 16 15 15 15 16 17 17 17 18 19 19 18 18 18 19 20 19 18 19 19 18 18 18 19 18 18 18 18 18 18 17 17 17 17 17 16 15 15 14 14
15 16 16 16 16 16 15 15 16 17 17 18 18 18 18 18 18 18 17 19 19 18 18 18 18 19 19 20 18 18 18 18 18 18 17 17 17 17 16 15 15 15 15 14
15 16 16 16 16 16 16 16 17 17 17 17 17 17 18 18 17 19 20 18 18 17 17 18 20 20 21 18 17 17 17 18 18 18 17 17 17 16 16 16 15 16 15 15
15 15 15 15 15 16 17 17 17 17 17 17 17 16 17 17 17 17 17 17 18 17 17 19 20 20 21 17 17 17 18 17 17 17 16 16 16 15 15 16 16 15 16 16
15 15 15 16 16 16 16 16 16 16 17 17 17 16 16 15 16 16 16 17 18 17 18 20 20 21 18 17 17 17 17 16 16 16 16 16 16 16 16 16 16 16 17 17
16 17 16 16 16 15 15 16 16 16 16 16 16 16 16 16 16 16 16 17 17 18 16 17 17 17 17 17 16 16 16 16 16 16 16 16 16 16 16 16 16 17 17 16
17 17 17 17 17 17 17 17 17 18 16 16 17 16 16 16 16 16 16 16 16 17 16 16 16 16 16 16 16 16 16 16 16 16 17 17 17 17 17 17 16 17 17 17

GFSNGP_con_lsi_060.txt.gz
Lid_Strength_Index
9 9 8 9 9 9 10 10 14 12 10 8 7 6 5 5 5 4 4 4 4 4 4 3 3 3 3 4 4 5 5 6 7 7 6 6 7 7 7 7 8 8 8 7
11 9 9 10 9 9 9 9 9 9 9 6 5 5 5 5 5 5 4 4 4 4 4 3 3 3 4 5 6 6 7 7 6 6 6 6 7 7 7 7 7 6 7 7
14 10 10 13 10 9 8 8 8 10 8 6 6 6 5 5 5 5 4 4 3 4 4 3 3 4 5 5 5 6 6 6 5 5 5 5 5 5 5 5 6 7 7 7
15 14 18 10 7 7 8 7 7 7 6 6 6 5 4 4 4 5 4 4 4 4 4 3 3 3 4 4 4 5 5 5 5 5 5 5 5 5 5 5 6 6 6 6
16 16 12 10 8 8 9 9 6 7 6 6 5 5 5 4 3 4 4 4 3 3 3 3 3 3 4 5 5 5 5 5 5 5 6 5 5 5 5 6 6 6 6 7
15 17 18 11 7 5 6 12 6 6 6 6 5 9 7 4 4 4 3 3 3 3 3 3 3 4 4 5 5 5 5 5 5 5 4 5 5 5 6 6 7 8 8 8
15 17 13 7 6 5 13 12 6 5 5 6 6 6 5 4 4 3 3 3 3 3 3 3 3 3 4 4 5 4 5 5 4 4 5 5 6 7 8 8 8 10 11 11
14 17 18 6 7 10 7 6 4 5 5 3 5 5 5 4 4 4 4 3 3 3 3 3 3 3 5 5 5 5 5 5 6 6 7 7 8 9 9 10 11 12 13 13
12 12 7 6 6 5 5 6 5 5 4 4 5 5 5 5 5 4 4 4 3 3 4 4 3 4 5 5 5 6 6 7 8 8 8 8 10 11 12 12 13 14 14 14
10 8 7 7 5 5 4 5 4 4 4 4 5 5 5 5 4 4 4 4 4 4 4 4 4 4 5 6 6 6 8 9 9 10 11 11 11 12 13 14 14 14 14 15
9 7 7 6 5 5 4 4 4 4 3 4 4 5 5 5 4 4 4 5 4 5 5 5 5 6 6 6 7 8 9 10 11 12 12 12 14 14 15 16 15 15 15 15
11 6 7 6 5 4 5 4 4 4 4 4 4 4 4 5 5 4 5 5 5 5 6 6 7 7 7 7 8 10 11 12 12 13 13 13 15 16 15 16 15 16 16 17
6 5 5 4 4 4 5 4 4 4 4 4 4 4 4 5 6 7 5 6 6 7 7 8 8 9 9 9 10 11 14 13 14 14 14 15 15 15 17 16 16 15 16 16
4 4 6 5 6 4 4 4 4 3 3 4 4 4 5 5 6 6 7 7 8 9 10 11 11 12 12 12 12 14 15 14 14 14 15 15 15 15 15 16 17 17 16 16
5 4 4 4 4 5 4 4 5 5 5 5 4 5 6 6 7 8 8 9 11 12 13 14 15 14 13 14 15 15 15 15 15 16 16 16 16 15 15 16 16 16 15 16
5 5 4 5 5 5 5 6 6 6 6 5 6 6 6 7 8 10 11 12 13 14 15 17 16 15 15 15 16 17 17 17 16 16 17 16 16 16 16 16 16 16 16 16
7 7 7 6 6 5 5 6 6 6 6 7 7 8 8 11 13 16 17 17 17 17 17 17 17 17 16 16 16 17 18 18 19 17 17 17 17 17 17 17 17 17 17 19
5 5 6 6 6 5 6 6 6 7 9 11 12 13 15 17 18 18 19 19 19 19 19 18 18 18 18 17 17 17 18 18 17 18 17 18 18 18 18 18 17 17 17 16
9 9 9 9 8 10 12 13 13 14 14 15 16 18 18 19 19 19 19 19 20 21 20 19 19 20 20 19 18 18 18 19 19 19 18 21 19 18 18 18 17 18 17 17
13 13 13 13 12 13 14 15 15 16 17 17 18 18 18 18 18 18 18 20 20 20 19 19 20 20 21 20 18 19 19 19 19 19 19 20 19 18 18 18 18 18 18 18
15 15 15 15 16 15 15 16 17 18 17 17 18 18 18 19 19 19 20 21 20 19 19 19 20 20 20 20 19 19 18 19 19 19 19 19 19 18 18 18 18 18 17 16
15 16 16 17 17 17 17 17 17 18 18 18 18 18 19 19 19 19 19 20 19 19 19 19 20 20 20 20 18 18 19 19 19 19 19 18 19 19 19 18 18 17 17 17
16 16 16 17 18 18 17 17 17 17 18 18 18 18 18 18 18 20 21 18 18 18 18 20 21 20 21 19 18 19 19 19 19 19 19 19 18 18 18 18 17 17 18 17
16 16 16 16 16 17 18 17 17 17 17 17 17 17 17 19 18 17 17 18 18 18 20 20 21 21 22 19 18 19 19 19 19 19 18 18 17 17 17 17 18 18 18 19
16 16 16 16 17 17 16 16 17 17 17 17 17 17 17 16 17 17 18 18 18 18 20 21 21 22 19 19 19 19 19 19 18 19 19 19 19 18 18 17 18 18 20 21
17 18 18 17 17 17 17 17 17 17 17 18 17 17 17 17 17 17 17 18 18 18 18 18 19 19 18 18 19 18 18 18 18 18 18 18 18 18 18 18 18 19 19 19
19 18 18 18 18 18 18 18 19 19 18 17 18 17 17 17 17 17 17 17 17 17 17 17 17 18 18 19 18 18 18 17 18 18 18 18 18 19 19 19 19 19 20 20

GFSNGP_con_lsi_063.txt.gz
Lid_Strength_Index
11 10 9 10 10 10 11 11 14 13 12 10 8 8 8 7 6 7 6 5 5 5 5 4 4 5 6 6 6 5 6 7 8 8 8 8 8 8 7 7 7 7 8 8
12 10 10 11 10 10 10 10 11 11 12 7 7 8 7 7 7 7 6 6 5 4 4 4 4 6 7 7 7 7 7 8 8 8 8 8 8 8 7 8 8 7 8 8
15 11 11 14 11 10 10 9 10 13 10 8 8 8 7 7 6 7 7 6 5 5 4 4 5 6 7 8 7 7 7 7 7 7 7 7 8 8 8 8 8 8 9 8
16 14 19 11 8 8 9 9 8 9 9 8 8 8 7 7 7 7 6 5 5 4 4 5 6 7 7 8 7 7 7 6 7 7 7 7 7 8 8 8 8 8 9 8
17 16 13 11 9 9 10 10 8 9 9 8 8 7 8 6 6 5 5 5 5 4 5 6 7 7 7 7 6 6 7 7 7 7 8 8 8 7 7 7 7 8 7 10
16 19 19 12 8 6 7 13 7 7 8 8 8 11 9 6 5 5 5 5 5 5 6 6 6 6 7 7 8 8 8 8 7 7 7 6 7 7 7 7 7 9 10 12
16 18 15 9 7 6 14 13 7 7 7 7 8 8 7 5 5 5 5 5 5 6 6 6 6 7 8 7 8 7 6 6 6 6 6 6 7 8 9 10 11 13 13 13
15 18 19 8 8 11 9 7 6 6 7 7 6 6 6 5 5 5 5 5 5 6 6 6 6 6 7 7 6 5 6 6 6 7 7 8 10 10 10 12 13 14 14 15
13 14 8 7 8 6 6 6 6 6 6 6 6 7 6 6 6 6 6 6 6 6 6 6 5 5 7 7 6 6 7 8 8 9 9 10 11 12 12 13 14 15 15 16
11 9 8 7 6 6 5 6 5 5 5 5 6 6 7 7 7 7 6 6 6 6 6 6 6 6 6 7 7 8 9 10 11 12 12 13 12 12 14 15 16 15 16 17
11 8 7 7 6 6 6 5 5 5 5 5 6 6 6 7 7 7 7 6 6 6 6 7 6 7 7 7 8 10 10 12 12 13 14 15 14 15 16 17 16 17 18 17
13 8 8 7 6 5 6 5 5 5 5 6 5 6 6 7 7 7 7 7 7 8 8 8 8 9 8 8 9 11 13 13 14 14 15 15 16 17 16 16 15 16 16 17
8 7 6 6 5 5 6 6 6 6 6 5 5 6 6 7 8 9 7 8 8 9 10 11 11 12 12 12 12 13 14 13 15 15 16 16 17 18 19 17 16 16 16 16
5 5 7 7 7 5 6 6 6 6 6 6 6 6 7 7 8 8 9 9 10 12 14 15 16 16 15 14 15 16 15 15 15 15 15 16 17 17 18 18 19 18 16 17
6 5 6 5 6 6 6 7 7 7 7 7 6 7 8 9 10 11 12 12 13 15 15 16 16 16 15 15 16 16 16 17 17 17 17 17 17 17 17 17 17 17 17 17
6 6 6 6 6 6 7 7 8 8 8 7 8 10 12 12 13 14 14 14 16 17 17 17 17 17 16 17 17 17 17 17 17 17 17 17 17 17 17 17 18 18 18 19
9 9 9 9 8 8 8 8 8 9 11 12 14 15 16 17 18 19 19 18 19 19 18 18 18 17 16 17 18 18 18 18 17 17 17 18 18 18 18 18 18 18 19 21
9 10 10 10 10 11 12 12 13 13 15 16 16 17 18 19 20 19 19 20 19 20 19 19 18 17 17 17 17 18 18 18 18 18 18 19 19 19 19 19 19 19 20 20
12 12 12 12 12 12 14 15 15 16 16 17 18 19 19 19 18 18 18 19 19 20 20 19 19 18 19 19 19 19 19 19 19 19 19 20 20 19 19 20 20 20 20 20
14 14 14 15 15 15 16 16 16 16 16 16 17 18 18 18 18 20 20 21 20 20 20 20 20 20 20 19 19 19 19 20 19 19 20 20 21 21 21 20 20 21 21 21
15 16 16 17 17 17 17 16 17 18 18 18 19 19 20 20 20 21 22 22 20 19 19 19 20 21 20 20 19 19 20 20 20 20 21 21 21 21 22 22 22 22 22 21
17 18 18 18 18 19 18 18 18 18 19 19 19 19 20 21 21 21 20 21 20 19 20 21 21 21 20 20 19 20 20 20 20 20 21 22 22 23 23 23 23 23 23 23
17 17 18 18 19 19 18 18 18 18 19 19 19 19 19 19 19 21 21 18 19 21 21 21 21 21 21 19 20 20 20 21 21 21 22 23 22 23 23 24 23 24 26 25
17 17 18 17 17 18 19 18 17 18 18 17 18 18 19 20 20 19 19 20 20 21 21 21 22 22 22 20 21 22 23 25 25 24 23 24 25 23 21 23 23 23 24 24
18 18 17 17 17 17 17 17 18 18 18 18 18 18 18 18 20 19 19 19 20 21 22 23 23 23 21 21 22 24 25 24 23 25 24 24 23 26 27 24 22 22 25 26
19 19 19 19 19 19 19 19 19 18 19 20 19 19 18 18 18 19 19 20 20 20 20 23 23 23 24 24 26 25 24 23 22 22 23 24 26 27 25 22 23 24 25 27
19 19 19 20 19 20 20 20 21 21 19 20 21 20 20 20 19 19 20 20 21 21 21 21 20 20 20 21 22 25 26 27 27 24 25 28 29 30 26 25 25 27 30 31

GFSNGP_con_lsi_066.txt.gz
Lid_Strength_Index
11 11 10 11 11 11 12 11 15 13 13 10 9 8 8 7 8 7 7 6 5 6 5 5 5 5 3 3 2 3 4 2 5 5 5 6 6 6 7 7 7 7 8 8
13 10 10 11 10 11 11 11 11 11 12 8 7 8 8 8 7 8 7 6 5 5 5 5 6 5 5 4 5 5 6 6 6 6 7 7 8 8 8 8 8 8 8 8
16 12 11 15 12 11 11 10 10 14 10 7 8 8 8 7 7 8 7 6 5 5 5 5 6 6 6 7 7 7 7 6 7 7 8 8 7 8 9 9 9 9 8 8
17 15 19 11 9 9 10 10 9 9 8 7 7 6 7 7 7 7 7 7 5 4 4 4 5 6 7 7 7 7 7 7 7 8 8 8 8 9 9 9 9 8 9 9
18 17 14 11 10 10 11 11 9 9 9 8 8 9 9 6 6 6 7 6 4 4 5 6 7 7 7 8 7 7 7 7 7 8 8 9 9 9 9 9 9 9 9 11
16 19 19 13 9 7 7 14 9 8 8 8 9 12 10 7 6 5 5 5 5 6 6 7 7 7 8 8 8 8 8 7 7 8 9 9 9 9 9 8 8 9 11 12
16 17 15 10 8 6 14 13 7 7 7 8 10 8 7 6 6 5 4 5 6 6 6 7 8 8 8 8 9 9 8 8 9 9 9 9 8 8 9 11 11 13 14 14
15 17 19 8 8 12 9 7 7 7 7 8 8 7 6 5 5 5 6 6 6 6 7 8 8 8 10 10 9 9 8 8 9 8 7 7 9 10 12 12 14 15 15 16
13 13 8 7 8 7 6 7 7 7 6 6 7 7 6 6 6 5 5 6 6 7 8 8 8 8 9 9 8 8 8 9 9 9 9 10 11 12 13 13 14 15 15 17
11 9 8 7 6 5 6 6 5 5 6 6 7 7 7 7 7 7 7 7 7 7 8 9 8 8 7 7 7 8 10 10 11 11 13 13 13 13 14 15 15 15 15 17
11 9 8 7 6 6 5 5 5 5 6 6 6 6 7 7 7 6 7 7 7 7 7 8 8 8 7 7 8 10 11 12 13 14 14 15 16 16 15 16 15 16 16 16
12 8 8 8 6 5 6 6 6 5 6 6 6 6 6 7 7 7 7 8 8 8 9 9 9 10 10 10 11 13 14 15 16 16 16 16 17 17 14 15 14 15 15 17
8 6 6 5 5 5 5 5 5 6 6 6 6 6 7 8 8 9 8 8 8 10 11 12 13 13 12 12 13 14 16 16 16 17 17 18 18 18 19 17 16 16 16 16
7 6 8 7 8 6 6 6 6 7 7 7 7 7 8 9 9 9 10 11 13 14 15 15 15 15 14 14 14 15 16 16 16 16 16 17 17 18 18 18 19 18 16 16
8 6 7 6 7 7 7 7 8 8 7 9 10 9 9 11 13 14 14 15 15 16 16 16 17 17 15 15 16 16 17 17 17 17 17 17 17 17 17 17 17 17 17 17
7 8 8 8 8 8 8 8 9 11 11 13 14 15 15 15 16 16 16 15 17 19 18 19 18 17 16 16 16 17 17 17 17 17 17 17 17 17 17 17 18 18 18 19
9 10 11 10 10 11 12 12 13 14 14 15 16 16 17 18 18 19 19 18 18 18 17 17 17 16 16 16 17 17 17 17 17 17 17 18 18 18 18 19 19 19 19 20
10 10 11 11 12 13 14 15 15 15 17 17 17 18 19 19 19 19 19 18 19 19 18 18 17 17 18 18 18 17 17 18 18 19 18 19 19 19 19 19 19 20 20 20
12 13 13 14 14 15 15 16 16 16 17 17 18 18 18 17 18 18 18 19 20 21 20 18 17 18 18 18 18 18 19 19 19 20 20 20 20 20 20 20 20 20 20 20
15 15 16 16 16 16 17 16 16 17 16 17 18 19 19 19 19 20 20 21 20 20 19 20 20 20 20 19 19 19 19 20 20 21 21 21 21 21 21 20 20 20 21 21
16 17 17 17 18 17 17 17 18 19 19 18 19 20 20 20 20 20 21 22 21 20 20 20 20 21 20 19 20 21 21 21 21 21 21 22 21 22 22 22 22 23 23 23
17 17 18 18 18 19 18 18 18 19 19 20 20 20 21 21 21 21 21 22 21 21 21 21 21 21 20 20 20 21 21 21 21 21 22 22 23 24 24 24 24 24 24 25
17 17 18 19 19 19 19 18 19 19 20 20 20 20 20 20 20 21 23 21 21 21 22 22 21 21 21 21 22 22 23 23 23 23 24 25 25 25 24 24 24 26 26 27
17 17 17 17 17 18 20 19 18 19 19 19 19 19 19 21 21 20 20 21 22 22 22 21 22 22 22 23 24 24 25 25 25 27 26 28 31 31 31 31 29 28 26 25
19 19 19 19 19 19 19 18 19 19 19 19 19 19 19 19 20 21 21 21 21 22 23 23 23 24 24 25 25 25 26 27 27 28 29 31 32 34 33 31 29 27 27 27
19 20 20 20 20 19 19 19 21 20 20 22 22 21 20 20 20 21 21 21 21 22 22 23 23 24 24 25 27 28 29 27 27 27 32 32 33 32 32 31 31 31 31 32
19 19 20 20 20 20 20 20 21 22 22 23 24 23 21 21 21 21 22 23 23 24 25 26 27 27 27 30 30 30 30 30 29 30 33 35 33 33 33 34 34 35 36 33

GFSNGP_con_lsi_069.txt.gz
Lid_Strength_Index
12 11 11 11 12 11 12 13 15 13 13 11 9 9 8 8 8 9 8 7 7 6 6 4 4 3 3 3 3 3 4 3 3 2 2 2 2 3 5 5 6 6 7 7
15 11 11 12 11 11 12 12 12 12 13 8 7 8 8 8 8 8 8 7 6 6 5 5 4 4 4 4 3 3 3 3 3 4 4 4 5 6 6 6 7 7 7 8
17 13 13 16 12 12 11 11 11 13 11 9 9 8 9 8 8 8 8 7 7 5 5 4 4 4 4 3 3 3 4 5 5 5 6 7 7 7 7 7 8 9 9 9
17 15 21 13 9 9 11 10 10 10 9 8 8 7 7 8 7 8 8 8 7 4 4 5 6 4 5 4 4 5 6 6 7 7 7 7 7 8 9 9 9 10 9 9
18 17 14 12 10 11 11 11 9 10 9 9 9 10 10 8 8 7 7 7 6 4 4 6 6 5 4 5 6 6 7 8 8 7 8 8 9 10 9 9 9 9 9 10
16 19 20 14 10 9 8 14 9 8 8 10 10 13 11 8 7 7 7 6 4 4 6 6 6 5 6 6 6 7 8 8 7 7 8 9 9 10 9 9 10 11 12 11
16 17 15 10 8 7 16 14 8 7 8 9 10 9 8 8 7 6 6 5 4 5 6 6 7 7 7 7 7 7 7 7 8 8 9 9 9 11 10 10 12 14 14 13
15 17 19 8 9 13 10 8 8 7 7 7 7 7 7 7 7 5 5 5 5 6 7 6 7 7 9 9 9 8 9 9 9 9 9 9 11 11 12 12 14 14 16 15
13 13 8 7 8 7 7 7 7 7 6 7 7 7 7 7 7 6 6 6 6 6 6 6 7 8 9 11 10 10 10 9 9 8 9 10 11 12 13 13 13 15 15 16
12 9 8 7 6 6 6 6 5 5 6 7 8 7 7 7 6 6 7 7 7 7 8 9 10 10 10 10 9 9 9 9 10 12 13 12 12 12 14 14 14 15 16 17
10 8 8 7 6 6 6 5 5 5 5 6 7 7 7 7 6 7 7 7 7 8 9 10 9 9 9 9 9 10 11 12 13 13 14 15 15 14 15 15 14 15 16 17
13 9 9 7 6 6 6 6 6 5 6 5 6 7 7 6 7 7 7 7 8 9 10 10 9 9 9 9 10 12 14 14 15 15 16 16 17 17 15 15 15 15 16 17
9 7 8 6 6 6 6 5 5 5 6 6 6 6 5 7 7 9 8 9 9 10 11 11 12 13 12 12 13 14 16 16 16 16 17 17 17 18 19 17 16 16 16 16
7 7 8 7 8 7 7 7 7 7 8 9 9 7 8 9 10 12 14 13 14 14 15 15 15 15 14 14 15 15 16 16 16 17 17 17 17 17 18 18 19 18 16 17
9 7 7 7 8 9 8 8 9 11 12 13 13 12 13 15 16 16 16 16 17 17 17 17 17 16 16 16 16 16 17 16 16 16 17 17 17 17 17 18 18 18 18 17
9 8 9 8 9 10 11 12 12 14 15 15 16 16 17 17 18 18 18 17 17 19 18 18 17 16 15 15 16 16 16 15 16 16 16 17 17 18 18 18 18 18 18 19
11 11 11 11 11 12 13 13 14 16 16 17 17 17 17 18 18 18 18 17 18 18 17 17 18 17 16 16 16 16 17 17 17 17 18 19 19 19 19 18 18 19 20 20
11 11 12 12 12 13 15 15 15 16 17 17 18 18 18 19 19 19 19 19 19 19 19 18 17 17 17 17 17 17 18 18 18 19 20 20 20 20 20 20 20 21 21 21
14 14 14 15 15 15 16 16 16 16 17 18 19 20 20 19 19 20 19 20 20 21 20 18 17 18 18 17 17 18 19 19 20 20 20 21 21 21 21 21 21 21 21 21
16 16 16 16 16 16 17 17 17 18 18 19 20 20 21 21 21 20 20 21 21 20 19 19 19 19 20 20 20 20 20 21 21 22 22 22 22 22 22 22 22 22 22 22
17 17 17 17 18 17 18 18 19 20 20 20 21 21 21 21 21 21 22 24 22 21 20 20 20 20 20 20 20 21 21 22 22 22 23 23 23 23 23 23 23 24 25 24
17 18 18 18 18 18 18 18 18 19 20 20 20 20 22 23 23 23 22 23 22 21 21 21 21 22 22 21 22 22 22 23 23 24 24 25 26 26 27 28 27 26 27 28
17 17 18 18 19 19 19 19 19 20 20 21 21 21 21 21 21 23 24 22 21 21 22 22 23 23 23 23 24 24 25 25 26 26 27 28 28 29 29 29 28 29 31 28
18 18 18 18 18 19 20 20 19 19 20 20 20 20 21 22 22 21 22 22 23 23 24 24 24 24 24 25 25 26 26 27 29 29 29 30 31 31 31 33 33 35 33 30
20 19 19 19 19 20 19 20 20 21 21 20 20 20 20 20 22 22 22 23 23 24 25 25 26 26 27 28 29 29 29 29 30 30 33 36 37 37 37 35 35 34 34 34
20 20 20 20 20 20 20 21 23 22 22 23 23 22 22 22 22 23 24 24 24 25 26 27 27 27 28 29 30 31 30 30 32 34 36 36 36 35 36 35 36 36 37 38
19 19 19 20 20 20 21 22 23 24 24 24 25 23 22 23 24 25 26 27 28 29 30 31 31 30 31 33 32 34 34 34 35 35 38 37 37 38 37 37 38 39 39 37

GFSNGP_con_lsi_072.txt.gz
Lid_Strength_Index
13 12 12 12 12 11 13 13 15 14 13 12 11 10 9 8 8 8 9 9 8 6 5 4 4 4 4 4 5 4 5 5 5 5 4 4 4 2 2 2 1 2 3 4
15 12 12 13 12 11 12 12 12 13 13 10 9 10 10 9 8 8 8 8 8 7 6 4 4 4 4 4 4 4 5 5 5 5 4 4 3 2 2 2 3 4 6 7
17 13 13 16 13 12 11 11 12 14 12 10 10 9 9 8 8 8 8 8 8 7 5 5 4 4 4 4 3 4 4 4 4 4 4 3 3 4 4 5 6 7 8 8
16 15 21 13 9 10 11 10 10 10 10 9 9 8 8 8 8 8 8 7 7 7 6 4 4 5 4 4 4 3 4 4 4 4 4 6 7 6 6 7 7 7 8 8
18 18 14 14 11 10 13 13 10 10 9 9 9 10 10 9 8 8 7 7 7 7 6 4 4 5 4 4 4 4 3 4 5 5 7 8 8 8 9 8 9 9 9 10
15 19 20 15 10 8 9 14 9 8 9 9 10 12 11 8 9 8 8 8 8 7 5 5 4 4 4 4 4 4 5 6 6 7 8 7 8 9 9 9 10 10 11 10
16 17 15 10 8 7 16 14 8 8 8 8 10 9 8 8 8 8 7 6 5 5 5 5 4 4 5 5 5 5 6 7 7 8 8 8 9 10 10 11 13 14 15 14
15 17 19 8 9 13 10 9 8 7 8 8 8 8 7 7 7 7 6 5 5 6 6 5 4 4 6 6 7 7 7 8 8 8 9 10 10 11 12 13 15 15 16 16
13 14 9 8 8 6 6 6 7 7 6 7 8 8 8 8 7 7 6 6 5 6 6 6 6 6 7 8 8 9 9 10 10 10 10 11 12 12 13 14 15 16 16 16
12 10 9 8 7 6 6 6 6 5 5 5 7 7 8 8 7 7 6 6 7 8 8 8 8 8 9 10 9 9 11 11 11 11 12 12 11 12 13 15 15 15 15 17
11 9 8 7 7 6 6 5 5 5 5 6 7 7 7 7 7 7 6 7 7 8 9 10 10 10 10 9 9 11 11 12 13 14 14 16 16 14 14 14 14 15 16 17
13 9 9 8 6 6 7 6 5 5 5 5 6 7 7 6 7 7 7 8 8 9 9 10 10 10 10 10 10 12 14 14 14 15 15 16 16 17 15 15 15 15 16 17
8 8 8 7 6 7 8 7 7 8 10 10 9 8 8 8 9 11 11 12 12 13 13 13 14 14 13 12 12 13 15 15 15 15 16 17 17 17 18 17 15 15 15 16
6 8 8 8 8 8 9 8 9 11 12 13 13 13 13 14 15 16 15 15 15 15 16 16 17 17 15 14 15 15 16 16 16 17 17 18 18 18 18 18 19 19 16 16
9 8 7 7 8 10 10 11 12 13 14 15 15 16 16 17 17 17 16 16 16 17 17 17 17 17 16 16 16 16 16 17 17 17 17 17 17 17 17 18 18 18 17 17
10 9 9 9 10 12 13 13 14 16 15 16 16 17 17 17 17 17 17 17 18 18 18 18 17 16 16 15 16 16 16 16 16 16 16 16 16 17 17 17 17 17 18 18
12 11 12 12 12 13 14 14 15 16 16 17 17 17 17 18 18 18 19 18 19 19 19 19 18 17 17 16 17 17 17 18 17 17 18 18 18 18 18 18 19 20 21 20
12 13 13 13 14 14 15 15 15 15 16 17 18 19 19 20 20 20 20 19 20 20 20 19 19 18 18 18 18 18 18 19 19 19 18 19 19 19 20 20 21 21 21 21
14 14 15 15 15 16 16 16 17 17 17 18 19 20 20 21 21 21 21 21 21 21 21 19 18 19 19 19 18 19 19 19 20 20 21 21 22 21 22 22 22 22 22 22
15 15 16 17 16 17 18 17 17 18 18 19 20 21 21 21 21 22 22 23 22 21 20 20 20 20 20 20 19 21 21 21 22 22 22 23 23 24 23 23 23 24 24 24
17 17 18 18 18 18 18 19 19 20 20 20 21 22 22 22 21 21 23 24 22 20 21 21 21 22 21 22 22 22 23 23 24 24 25 25 26 26 27 27 27 27 29 30
18 18 19 19 19 19 19 19 19 20 20 21 21 22 22 23 23 23 23 23 22 22 22 23 23 23 23 23 23 24 24 25 26 26 27 28 29 30 31 31 32 31 33 32
18 18 18 19 19 20 19 20 20 20 21 22 22 23 23 23 22 23 25 23 23 24 24 24 24 25 25 25 26 27 27 28 28 29 30 32 33 35 35 35 35 35 34 32
18 18 19 19 19 20 21 20 20 20 20 21 21 21 22 23 23 22 23 24 25 25 25 26 26 26 27 27 27 28 29 31 32 33 33 36 38 37 36 38 36 38 37 36
20 20 20 20 20 20 20 20 20 21 21 21 21 21 21 21 23 24 24 25 24 26 27 28 28 29 30 31 31 31 32 34 36 37 39 39 40 40 40 39 39 38 38 38
20 20 21 20 20 20 20 21 22 22 22 23 24 24 24 24 25 25 26 27 27 28 30 32 33 33 33 32 34 35 36 34 36 36 39 38 38 38 39 38 39 39 40 39
20 19 20 21 21 22 22 23 24 25 25 26 25 24 26 27 28 28 31 31 32 33 35 35 35 33 34 36 35 37 36 37 37 37 40 40 40 40 40 41 41 42 41 41

GFSNGP_con_lsi_075.txt.gz
Lid_Strength_Index
12 10 11 12 12 12 13 12 14 12 12 10 8 8 7 6 6 6 5 6 6 5 4 4 3 3 3 3 3 3 3 3 4 3 3 2 2 2 1 1 1 1 1 2
14 11 10 13 11 10 11 11 11 11 11 8 7 7 8 8 7 7 6 5 5 5 4 4 4 3 3 3 2 2 3 3 3 3 3 4 3 2 2 1 1 1 1 1
16 13 13 15 12 11 10 10 10 13 9 7 7 7 7 7 6 7 6 5 5 5 5 4 3 3 3 3 2 2 2 2 3 3 3 3 3 3 3 2 1 2 2 3
16 14 19 11 8 9 10 9 8 8 9 8 7 6 6 6 6 6 6 5 5 4 4 4 3 3 2 2 2 2 2 3 3 3 3 3 3 2 2 2 2 4 6 6
17 17 13 11 9 10 11 11 9 9 8 7 6 7 7 7 6 6 5 5 5 4 4 4 3 2 3 3 3 3 3 2 3 3 3 3 3 4 6 6 7 7 8 8
15 18 19 11 8 7 7 13 8 8 8 8 7 11 8 6 6 6 6 6 6 6 5 4 3 2 3 3 3 3 3 2 2 2 5 6 7 7 8 8 9 10 11 10
15 17 14 9 7 7 14 12 7 7 7 7 8 7 6 5 5 5 5 4 3 4 4 3 2 3 3 3 4 2 3 4 5 5 6 6 8 9 10 11 12 13 14 13
14 16 17 7 8 11 8 7 6 6 6 7 6 6 6 5 5 5 5 4 4 4 5 3 2 3 3 4 5 5 5 6 7 7 8 8 10 11 12 13 14 15 16 16
12 12 8 6 7 5 5 6 6 6 5 5 6 6 6 5 5 5 5 4 5 6 6 5 4 3 5 6 6 6 8 8 9 10 10 11 12 13 14 14 14 14 16 17
11 8 8 6 5 5 5 6 5 5 5 5 6 5 5 5 5 5 5 5 4 6 7 7 6 6 6 7 7 8 9 10 11 12 13 12 12 13 14 14 14 15 16 17
10 8 7 6 6 6 5 5 5 6 5 5 5 5 5 5 6 5 5 5 5 6 7 8 8 8 7 8 8 10 11 12 13 13 14 15 15 14 14 14 14 15 16 17
11 9 9 8 6 6 7 7 7 9 9 9 9 8 7 9 9 9 7 7 7 8 9 10 10 10 10 9 10 11 13 13 14 14 15 15 16 16 15 15 15 15 16 17
9 7 7 7 6 7 8 9 9 10 12 12 12 12 12 13 13 13 13 13 13 12 13 13 14 15 14 12 11 12 14 15 15 15 15 16 16 17 18 16 15 15 15 16
8 8 8 7 7 8 9 10 10 11 12 13 13 13 14 14 14 14 15 15 15 15 15 15 15 15 15 15 15 16 16 16 17 17 17 17 17 17 18 18 19 18 16 16
10 9 9 7 7 9 10 11 12 14 14 15 14 15 15 16 16 16 15 15 16 16 16 16 16 16 16 15 15 16 17 17 16 16 16 17 17 17 17 17 17 17 16 16
10 9 9 9 10 11 11 13 13 15 15 15 16 16 16 17 17 18 18 17 18 19 18 18 18 17 16 16 17 17 17 17 17 17 17 17 16 16 16 16 16 16 16 17
13 12 13 13 12 13 14 14 15 15 16 16 16 16 17 18 18 19 19 18 19 19 19 19 19 18 18 18 19 18 19 18 18 18 17 18 17 17 17 17 18 18 17 18
12 12 13 13 14 14 15 15 16 16 17 17 18 18 19 19 20 20 19 19 20 20 20 19 18 19 18 18 19 18 18 18 18 18 18 18 18 18 18 18 18 18 19 20
14 14 14 14 15 15 16 17 17 17 18 19 19 20 20 20 20 20 20 21 21 21 21 19 19 19 19 19 18 19 19 19 19 19 19 20 20 20 20 20 21 21 21 21
15 15 15 16 16 17 18 18 18 19 19 19 20 20 21 21 21 21 21 22 21 21 20 20 20 20 20 20 20 20 20 20 21 22 22 22 22 22 22 23 22 22 22 22
17 17 17 18 18 18 18 19 20 21 20 20 21 22 22 22 21 21 22 23 22 21 21 21 21 21 21 21 21 22 22 23 23 24 24 24 24 24 24 24 24 24 24 23
17 18 18 18 19 19 19 19 19 20 20 21 21 21 22 22 23 23 23 24 23 23 23 23 23 24 23 23 23 23 24 24 24 24 25 25 25 26 26 26 26 25 25 25
17 17 18 19 19 19 19 20 20 21 22 22 22 23 23 23 23 24 25 23 23 24 23 24 24 24 24 24 24 25 25 26 26 26 26 26 26 26 26 26 26 26 25 25
18 18 18 18 19 19 21 20 20 20 21 21 21 21 21 23 23 22 22 24 25 24 24 25 25 26 25 25 25 26 26 26 27 26 27 28 26 26 26 26 26 25 25 26
19 19 19 20 20 20 20 20 20 21 21 22 22 22 22 21 23 23 23 24 25 25 25 27 27 27 26 26 26 26 26 26 26 25 26 26 26 26 25 25 26 26 26 26
19 20 20 20 20 20 20 20 21 21 21 23 24 24 24 24 24 24 26 26 26 26 26 26 26 25 25 26 26 26 25 25 25 25 25 25 25 25 26 26 27 27 27 27
19 19 20 21 21 22 22 22 22 23 23 23 24 24 24 25 25 25 27 26 26 26 26 26 25 25 24 24 24 25 24 24 27 25 25 25 26 26 27 27 27 27 26 27

GFSNGP_con_lsi_078.txt.gz
Lid_Strength_Index
11 10 10 11 11 10 11 11 14 11 11 8 7 6 6 5 5 5 4 4 3 3 3 3 3 2 2 2 2 1 2 2 2 2 1 1 1 1 0 0 0 0 0 0
12 10 10 11 9 9 9 9 10 10 10 6 5 5 5 5 5 6 5 4 3 3 3 3 3 3 2 2 2 1 2 2 1 1 2 2 1 1 1 1 0 0 1 1
14 10 10 13 10 9 9 8 9 11 8 6 6 6 5 5 5 5 5 4 4 3 3 2 2 2 2 2 1 2 2 2 2 1 1 1 1 2 2 1 1 1 1 1
13 14 18 10 7 7 9 8 7 7 7 7 6 5 5 4 4 4 4 4 4 3 3 2 2 2 2 1 2 2 2 2 2 2 2 1 1 2 2 2 2 1 1 1
15 14 11 9 8 8 9 9 8 8 7 6 6 5 5 4 4 4 4 3 4 3 3 2 2 2 2 2 2 2 2 2 2 2 2 2 2 2 1 2 2 2 2 2
14 16 17 10 7 6 6 11 6 7 6 6 6 10 7 4 3 3 3 3 3 3 2 2 2 2 2 2 2 3 2 2 1 1 2 2 2 2 3 2 4 8 9 9
14 15 12 8 6 6 13 11 6 5 6 6 7 6 4 3 3 3 3 3 3 3 3 3 2 2 3 2 3 2 1 1 1 1 2 1 2 4 6 9 11 13 14 13
13 15 17 6 7 10 7 5 5 5 5 6 5 4 4 4 4 3 3 3 3 3 3 3 2 2 3 3 2 2 2 2 2 2 4 5 7 9 11 12 14 15 15 16
10 10 7 6 6 5 5 6 5 5 5 5 5 5 4 4 4 3 3 3 3 3 4 4 4 3 3 3 2 2 3 5 7 7 8 9 10 11 13 13 14 15 16 16
10 7 6 6 5 5 4 5 4 4 4 4 5 4 4 4 4 4 3 3 3 3 4 6 6 6 5 6 5 7 9 10 11 12 12 13 13 12 13 14 15 15 16 17
8 6 6 5 5 5 5 4 4 4 6 6 6 5 5 5 5 5 4 4 4 4 6 7 8 9 9 8 8 10 12 12 13 14 15 16 16 14 14 14 13 15 16 17
9 7 7 7 5 5 5 5 5 6 7 7 8 8 8 8 8 8 8 8 9 11 11 11 11 12 12 11 11 12 13 14 15 15 15 16 16 17 16 15 15 15 16 17
8 7 6 5 4 5 6 6 6 7 8 9 9 9 10 10 12 11 10 11 12 13 13 14 14 12 13 14 13 13 15 14 15 15 16 16 17 17 18 17 16 16 16 16
9 9 8 8 9 7 7 8 8 9 9 10 10 10 11 12 12 13 14 14 14 14 15 15 15 16 15 14 14 15 15 16 16 16 17 17 17 18 18 19 19 18 16 16
10 9 9 8 8 10 10 10 11 12 12 13 12 13 13 15 16 16 15 15 16 16 17 17 17 17 15 16 16 16 15 16 16 17 17 17 17 18 18 18 18 18 17 16
10 9 9 10 10 11 11 12 13 13 13 14 14 15 16 16 17 18 18 17 18 19 18 18 18 17 17 16 17 17 17 17 17 17 17 17 17 17 17 17 17 17 17 17
12 11 11 11 11 11 12 12 13 14 14 15 16 16 16 17 18 18 19 19 19 19 18 18 18 17 16 17 16 17 17 17 17 17 17 17 17 16 17 17 18 18 19 17
12 11 12 12 12 13 13 14 15 16 17 17 17 18 19 19 19 19 19 19 19 20 19 19 18 18 17 17 16 16 17 17 18 18 18 18 18 18 18 17 18 18 19 18
13 13 13 13 13 14 14 15 16 17 18 18 19 19 19 19 19 19 19 19 19 20 20 18 18 18 18 17 17 17 18 18 18 19 19 19 18 18 18 19 19 19 19 19
14 14 14 15 14 15 16 16 17 17 17 18 19 19 20 20 19 20 20 21 21 20 20 19 18 19 19 19 18 18 19 19 20 20 20 20 20 20 20 21 20 20 20 20
16 16 16 16 17 17 17 17 18 19 19 19 20 21 22 21 20 19 20 21 21 20 20 21 20 20 20 19 19 20 20 20 21 21 21 21 21 21 21 21 21 21 21 21
16 17 17 17 18 18 18 18 18 19 19 19 19 20 21 21 22 22 22 21 21 21 21 21 21 22 21 21 21 21 21 21 22 21 21 21 22 22 22 22 22 22 22 22
17 17 17 18 18 18 18 19 19 19 20 21 22 22 22 21 21 21 23 22 21 22 21 22 23 23 22 21 21 22 22 22 23 22 22 22 22 23 23 23 22 22 22 22
17 17 17 17 17 18 20 19 19 20 20 20 21 20 20 21 21 20 21 22 23 23 23 23 23 23 22 21 22 22 22 22 22 22 23 23 22 22 22 23 22 22 22 23
17 17 17 17 18 19 19 19 19 19 20 20 20 20 20 20 21 21 21 22 22 22 22 24 24 23 22 22 22 22 22 22 22 22 22 22 22 22 21 22 22 22 22 21
17 18 18 18 18 18 17 17 18 18 19 20 20 20 20 20 20 21 22 22 22 22 22 22 22 21 21 22 22 22 21 21 21 22 21 21 21 21 22 22 22 22 22 22
17 17 17 17 18 18 17 18 19 19 19 20 21 20 20 20 21 21 22 21 21 21 21 21 21 22 21 20 20 20 20 20 23 21 20 20 21 21 22 22 22 22 22 22

GFSNGP_con_lsi_081.txt.gz
Lid_Strength_Index
10 10 10 10 11 10 11 10 13 11 11 8 7 6 5 5 5 5 5 4 3 3 3 3 3 2 2 2 2 1 2 2 2 1 1 1 1 1 1 1 1 0 1 0
11 9 9 10 9 9 9 9 9 9 9 6 5 5 5 5 5 5 5 4 4 3 3 2 2 2 2 2 2 1 2 2 1 1 1 1 1 1 1 1 1 1 1 1
14 10 11 13 10 9 9 8 8 11 8 6 6 6 6 5 5 5 4 4 3 3 3 2 2 2 2 2 1 2 2 2 2 1 2 1 1 1 1 1 1 1 1 1
13 12 18 10 7 7 8 7 7 7 7 6 6 5 5 4 5 5 4 4 3 3 3 2 2 1 1 1 2 2 2 2 2 2 2 1 1 2 1 1 1 1 1 1
14 13 11 9 8 8 9 9 7 7 6 6 5 5 5 4 4 4 3 3 3 2 2 2 2 2 2 2 2 2 2 2 2 2 2 2 2 2 2 2 2 2 1 1
13 16 16 9 7 5 6 11 6 6 6 6 5 9 7 4 3 3 3 3 3 2 2 2 2 2 2 2 2 2 2 2 1 1 2 2 2 2 1 1 2 2 2 5
13 14 11 8 6 6 13 11 6 5 6 6 7 6 4 3 3 3 3 3 2 2 3 2 2 2 3 3 3 2 1 1 2 1 2 1 1 1 2 3 7 10 12 13
13 16 17 5 6 10 8 6 5 5 5 5 5 4 4 3 3 3 3 3 2 3 3 2 2 2 3 3 2 2 2 2 2 2 2 2 2 3 6 9 12 15 15 16
10 10 6 5 7 5 5 5 5 5 4 4 5 5 4 4 3 3 3 3 2 3 3 4 5 6 5 4 3 2 3 5 7 8 8 8 8 9 11 11 13 15 16 17
11 8 7 7 5 5 4 5 4 4 4 4 5 4 4 4 4 3 3 3 3 4 6 8 9 9 9 8 7 8 9 10 10 11 12 12 12 12 12 13 14 16 17 18
8 7 6 5 5 5 4 4 4 4 4 4 4 5 5 5 6 6 5 6 6 9 10 11 11 11 11 10 10 11 12 13 14 14 16 16 16 16 16 15 15 16 17 17
10 7 7 6 5 4 4 5 5 5 5 5 5 6 6 6 8 8 8 9 9 11 12 13 13 13 13 11 11 13 15 15 15 16 16 17 18 18 16 16 16 16 16 17
8 7 6 5 6 7 7 6 6 6 6 7 7 7 7 8 10 10 11 12 12 13 13 14 14 14 14 13 13 14 15 15 16 16 16 17 17 18 19 17 16 16 16 16
8 7 7 7 9 9 9 8 8 9 10 11 11 10 9 10 12 13 14 14 14 15 15 15 16 16 15 14 14 15 15 15 16 17 17 17 17 18 18 19 19 19 17 17
9 9 9 8 8 8 8 9 10 11 12 12 13 13 13 14 15 16 16 15 16 16 16 16 17 17 16 16 16 16 16 16 16 17 17 17 17 17 18 18 19 18 18 17
9 8 9 10 9 9 9 9 10 11 11 12 14 14 14 15 17 17 17 17 18 19 18 18 17 16 15 15 16 16 16 17 17 16 16 16 16 16 16 17 18 18 18 18
11 11 11 11 11 11 11 11 12 12 12 13 14 14 15 16 17 18 18 18 18 18 18 18 18 16 15 15 15 16 16 16 16 16 16 16 16 17 17 18 18 19 18 18
11 11 11 12 12 12 12 12 13 13 14 15 15 16 17 17 18 18 17 17 17 18 18 17 17 16 16 15 15 16 16 16 16 16 17 17 17 17 17 18 18 19 19 18
12 12 12 12 12 12 13 14 14 15 15 16 17 18 18 19 19 19 18 18 19 19 18 17 17 17 17 16 15 16 16 17 17 18 18 18 18 18 19 19 19 19 19 19
13 13 13 14 13 14 15 14 14 15 15 16 17 18 19 18 18 19 20 21 20 19 19 18 17 17 17 17 16 16 17 18 18 19 19 19 19 19 19 20 20 20 20 20
15 15 16 16 16 16 16 16 17 17 17 17 19 20 20 20 20 18 19 21 21 19 19 20 19 18 18 18 18 18 18 19 19 19 20 20 20 20 20 20 20 20 20 20
16 16 17 17 18 18 17 17 17 18 18 18 18 18 18 19 20 21 21 21 20 20 20 20 20 21 19 19 19 19 19 20 20 20 20 20 20 21 21 21 21 20 20 20
16 16 17 18 18 18 18 18 18 18 19 19 19 20 20 20 20 21 23 21 21 21 21 21 22 21 21 19 19 20 20 20 20 20 20 20 20 21 21 21 21 21 22 21
16 16 17 16 17 18 19 18 18 18 19 19 20 19 18 19 20 20 20 21 22 22 22 22 21 21 20 19 20 20 20 20 20 20 20 21 20 21 21 21 21 20 21 21
15 15 15 15 16 17 17 17 17 17 18 18 18 19 19 19 20 20 19 20 20 20 20 21 21 21 20 20 20 20 21 21 21 20 20 21 21 21 21 21 21 22 21 20
14 15 15 15 15 15 15 15 17 17 17 18 18 18 18 18 18 18 19 20 20 20 19 20 21 19 20 20 20 20 20 20 20 20 20 20 20 20 20 20 20 19 19 20
14 14 14 15 15 15 14 15 15 16 16 17 18 17 17 17 18 18 18 18 18 18 18 18 19 20 19 18 19 19 18 19 22 20 19 19 19 19 20 20 20 20 20 20

GFSNGP_con_lsi_084.txt.gz
Lid_Strength_Index
11 12 12 12 13 13 12 12 15 13 12 10 8 7 6 5 5 6 6 5 4 4 3 3 3 3 3 2 2 2 2 2 2 2 2 1 1 1 1 1 1 1 1 1
12 10 10 12 11 10 12 11 11 10 11 8 7 6 6 6 5 6 5 5 4 4 3 3 3 3 3 2 2 2 2 2 2 2 2 2 2 2 1 1 1 1 1 1
14 10 11 14 11 10 9 9 9 11 9 6 7 6 6 6 6 6 5 5 4 4 3 3 3 2 3 2 2 2 2 2 2 2 2 2 2 2 2 2 1 2 2 1
14 12 19 11 7 8 9 8 7 7 8 7 6 5 5 5 5 5 5 4 4 4 3 3 3 2 2 2 2 2 3 2 2 2 2 2 2 2 2 2 2 2 2 2
15 15 12 11 9 9 10 9 7 8 8 7 6 5 7 5 4 4 4 4 3 3 3 3 3 2 2 3 3 2 3 2 2 2 2 2 2 2 2 2 2 2 2 2
14 16 17 10 7 6 6 12 7 7 7 7 6 10 8 5 4 4 3 3 3 3 3 3 3 2 3 3 3 3 2 2 2 2 2 2 2 2 2 2 2 2 2 6
15 16 12 7 6 6 13 13 7 6 7 7 8 7 5 4 4 3 3 3 3 3 3 4 4 4 3 3 5 3 2 2 2 2 2 2 2 2 2 2 6 10 13 13
14 15 17 6 7 10 9 6 6 6 6 6 5 5 5 4 4 4 4 3 3 3 4 6 7 7 7 7 6 5 4 5 6 7 6 4 3 7 8 10 13 15 16 16
11 11 6 6 7 5 5 6 6 6 5 5 5 5 4 5 4 4 4 5 5 5 6 7 8 9 10 9 7 8 9 10 11 11 11 11 9 10 11 12 14 16 16 17
10 9 8 8 6 5 5 5 5 4 4 5 5 5 5 5 5 5 6 7 7 8 10 11 11 11 11 10 8 10 12 13 13 15 15 15 15 14 14 15 15 16 16 18
10 8 8 7 6 6 5 5 5 5 5 6 5 6 5 6 7 8 8 9 10 11 12 12 12 12 12 11 10 11 13 14 15 15 16 17 17 17 16 16 15 16 17 18
13 8 8 9 7 6 6 7 6 6 6 6 6 7 7 7 9 9 11 11 12 13 13 14 13 14 13 11 11 12 13 15 15 15 16 17 18 18 16 16 17 17 17 17
9 8 6 7 8 7 8 7 7 8 8 9 9 9 9 10 12 12 12 14 14 15 15 15 15 15 14 12 12 13 14 14 16 16 17 17 18 18 19 18 16 16 16 16
8 8 8 8 10 8 8 8 7 9 10 11 11 12 12 14 14 15 15 15 15 15 16 16 15 15 14 13 13 14 15 15 16 16 17 17 18 18 18 19 20 18 17 17
9 8 8 8 8 9 8 9 9 11 12 13 13 14 14 16 17 17 17 16 16 16 16 16 15 15 14 14 14 14 14 15 15 16 16 17 17 17 19 19 19 19 18 18
10 9 10 10 10 10 11 12 12 13 13 13 14 15 15 15 16 17 17 17 18 18 17 17 16 15 14 14 15 15 15 15 15 15 15 16 17 17 18 18 18 18 18 18
12 13 12 13 13 12 13 13 13 14 14 14 14 14 15 15 15 16 16 16 17 17 17 17 17 15 14 15 15 15 16 16 15 16 16 17 18 19 19 19 20 19 19 19
12 12 12 12 13 12 13 13 14 15 15 15 15 16 17 17 17 17 18 18 18 19 18 17 17 16 16 15 15 16 17 17 17 17 17 17 18 18 18 19 19 20 20 20
13 13 13 13 13 14 14 15 15 15 15 16 17 18 18 18 19 19 19 20 21 21 21 18 17 17 17 16 16 16 17 17 18 18 18 19 19 19 19 20 20 20 21 21
14 14 14 15 14 14 15 15 16 16 16 17 18 19 20 19 18 19 20 21 21 20 20 20 19 19 18 17 17 17 17 18 19 19 19 19 19 20 20 20 20 21 21 21
16 16 16 16 16 16 17 17 18 18 18 18 19 20 20 20 20 19 20 22 21 20 19 20 20 19 19 18 18 18 19 19 19 20 20 21 21 21 21 21 21 21 22 22
16 17 17 18 18 18 18 18 18 19 19 20 20 19 19 19 20 21 21 21 20 20 20 20 20 20 19 19 19 20 20 20 21 21 21 21 21 22 22 22 22 22 22 22
16 17 17 18 19 19 19 19 19 19 20 20 19 19 20 20 20 22 23 21 21 21 21 21 21 20 20 19 19 20 20 21 21 21 21 21 21 22 22 22 22 22 24 23
16 16 16 16 16 17 18 18 18 18 19 19 20 20 19 20 20 19 20 21 21 21 21 21 21 20 20 20 20 21 21 20 21 21 21 22 22 22 23 23 23 23 24 24
14 14 14 15 16 16 16 16 16 17 17 18 18 18 19 19 20 20 19 19 19 20 20 21 20 20 20 20 20 20 21 22 22 21 22 22 22 23 23 23 25 24 23 23
14 15 15 14 14 14 14 14 16 16 16 18 18 18 17 17 17 18 18 18 18 19 19 19 20 19 19 20 20 20 21 22 21 21 21 21 21 21 23 23 22 22 22 22
13 14 14 14 14 14 14 14 14 15 15 16 17 16 16 17 17 17 17 17 17 17 18 18 19 20 19 19 19 19 19 20 23 21 20 20 20 20 21 21 21 22 22 22

GFSNGP_con_lsi_087.txt.gz
Lid_Strength_Index
11 11 12 13 14 13 14 13 17 14 14 11 10 9 7 7 7 6 6 5 5 5 6 6 5 4 3 3 3 3 4 2 3 3 2 2 1 1 1 1 2 2 3 3
13 10 11 13 12 12 12 13 13 13 13 9 7 7 7 7 7 7 6 6 5 4 4 4 4 4 4 3 3 3 4 4 3 2 2 2 2 2 2 2 1 2 2 3
16 11 12 15 12 12 12 11 11 15 11 7 8 8 7 8 7 7 6 5 5 5 4 4 4 3 4 4 3 3 3 3 3 3 3 2 2 2 2 2 2 2 2 2
16 14 20 12 8 8 9 9 9 10 9 8 8 7 7 6 7 6 5 5 5 4 4 4 5 4 3 3 3 4 3 3 3 3 3 3 2 2 2 2 2 2 2 2
17 17 13 11 9 10 11 12 9 9 9 7 7 7 8 6 5 6 5 5 4 4 5 5 5 5 3 4 5 4 4 5 4 3 3 3 3 3 2 2 2 2 2 2
15 18 19 12 8 6 7 15 8 8 8 8 7 12 9 5 5 5 5 5 5 6 7 7 7 6 6 7 6 6 4 5 7 8 4 3 3 3 3 3 3 2 3 2
15 17 14 8 7 6 14 14 8 7 7 8 9 8 7 6 6 6 7 7 6 7 9 9 8 7 7 8 9 7 6 7 8 9 8 8 5 3 4 3 3 6 10 14
15 17 18 7 7 12 10 7 7 7 7 7 7 7 7 7 8 8 8 9 9 9 10 10 9 10 10 10 9 8 9 10 11 12 12 11 11 10 9 9 11 14 16 17
12 13 9 7 8 6 6 7 7 7 7 7 7 7 7 8 8 8 9 10 9 10 10 11 11 11 12 11 9 9 10 12 13 13 14 15 15 15 13 12 13 14 15 16
11 10 9 8 6 6 6 8 7 7 7 7 8 8 8 9 9 10 11 11 11 11 12 13 12 12 12 11 9 10 11 12 13 14 15 16 15 16 17 16 15 16 17 19
11 9 8 7 7 7 7 6 7 6 7 8 8 8 9 10 11 11 12 11 12 13 13 14 13 13 13 12 10 11 12 12 13 14 15 16 16 16 16 16 16 17 18 18
13 10 9 10 9 8 9 9 9 10 10 10 11 10 9 11 11 12 13 13 14 14 14 14 14 14 13 12 11 12 12 13 13 14 15 15 16 17 15 16 15 15 16 16
11 9 8 9 9 9 10 9 10 11 12 12 12 12 13 14 14 14 14 15 15 15 15 15 15 15 14 13 13 13 14 14 14 14 15 15 16 17 18 17 15 16 15 15
9 8 10 10 10 9 10 9 10 11 12 13 14 14 15 16 17 17 16 16 16 16 16 15 15 15 14 13 13 13 14 15 15 15 15 15 16 16 17 18 19 18 17 16
10 10 10 10 10 11 11 12 13 13 13 14 14 16 17 18 18 18 17 17 17 17 16 16 16 15 14 13 14 14 14 14 14 15 15 16 16 16 17 17 18 19 19 19
11 12 12 13 13 12 13 14 15 15 15 15 16 17 17 17 18 18 18 17 18 19 18 18 17 15 14 15 15 15 15 15 15 16 17 17 18 19 19 19 19 20 21 21
15 15 14 14 14 15 15 15 16 16 16 17 17 15 15 17 18 18 19 18 19 18 18 17 17 15 15 15 16 16 16 17 16 17 17 18 18 19 19 19 20 20 21 21
14 14 14 14 15 16 16 16 17 17 18 18 18 19 20 20 21 20 20 19 19 19 19 18 17 17 16 16 16 17 17 18 18 18 18 19 19 19 20 20 21 21 21 21
15 16 16 15 15 16 16 16 17 17 17 18 19 20 20 20 20 20 20 21 21 21 20 18 17 17 17 16 17 17 18 18 19 19 19 19 20 20 20 21 21 21 22 23
16 16 16 17 16 16 17 17 17 18 18 19 20 21 22 20 20 21 21 22 21 21 19 19 18 18 18 18 17 18 19 19 19 20 20 21 21 22 22 22 23 24 24 24
18 19 19 19 19 19 19 19 19 20 19 20 21 22 23 22 22 21 22 23 22 20 20 19 19 19 19 19 19 19 20 20 21 21 22 22 23 23 23 24 24 25 24 24
20 20 22 22 20 20 20 20 20 20 20 21 21 21 21 22 22 23 22 23 21 21 20 20 20 20 20 20 20 21 21 22 22 22 23 24 24 25 25 26 27 26 25 30
19 19 20 21 21 21 20 20 20 20 21 21 20 21 22 21 21 23 24 22 21 21 21 21 20 20 21 22 22 22 22 23 23 24 25 26 26 27 26 25 29 30 29 30
19 19 19 18 18 18 19 19 19 19 20 19 20 20 19 21 21 20 20 21 21 22 22 20 21 21 21 22 23 24 24 23 24 26 26 27 25 27 29 31 30 29 29 27
17 16 17 17 17 18 17 17 17 17 18 18 18 18 19 19 21 20 20 20 19 21 21 21 21 22 23 23 24 24 25 27 27 27 27 29 30 31 31 31 32 29 28 30
15 16 15 15 15 15 15 15 17 17 17 19 19 20 20 19 18 19 20 20 20 20 22 24 23 23 22 23 23 24 25 26 27 26 28 29 25 29 31 28 28 29 31 32
15 14 15 15 15 15 15 15 16 17 17 19 19 18 18 19 19 19 21 22 23 23 22 23 27 26 26 27 26 26 24 26 27 28 29 30 28 28 31 31 31 31 30 30

GFSNGP_con_lsi_090.txt.gz
Lid_Strength_Index
12 11 12 13 13 13 15 14 17 15 14 11 10 10 9 7 7 7 7 6 5 5 5 5 5 4 3 4 4 4 4 4 4 3 2 1 2 1 1 2 3 3 4 4
13 11 11 13 12 12 13 13 13 13 13 9 8 8 8 8 7 7 6 6 5 5 5 5 5 4 4 3 3 3 4 4 4 4 4 3 3 2 2 2 2 3 4 4
16 11 13 15 12 13 11 11 12 15 12 9 9 9 8 8 8 8 6 6 5 6 6 6 6 4 4 4 4 3 3 3 3 3 3 3 3 3 3 2 2 2 3 3
16 13 19 11 9 9 11 11 9 10 9 8 8 7 7 7 7 7 6 7 8 8 8 8 7 6 6 6 5 5 5 4 4 3 3 3 3 3 3 3 3 3 2 2
17 17 13 12 10 10 12 12 9 10 9 8 7 7 8 8 7 7 8 8 9 8 8 9 9 7 7 7 7 6 7 7 7 7 6 4 3 3 3 3 3 3 3 3
15 18 20 12 9 7 8 16 8 8 9 8 8 12 10 9 9 9 9 9 10 10 10 10 10 8 8 8 8 8 8 8 8 9 8 8 8 5 2 2 2 3 3 3
15 17 14 9 8 7 15 14 8 8 8 8 9 8 8 9 10 10 10 10 10 10 10 11 10 9 9 9 10 9 8 9 10 10 10 10 9 9 9 7 3 3 5 13
15 17 18 8 8 13 10 8 7 7 8 9 8 9 10 10 11 12 13 12 11 12 12 12 11 11 12 12 10 9 10 11 12 12 12 12 11 11 12 12 12 12 14 16
13 13 8 7 8 7 7 8 8 8 8 8 9 10 10 11 12 13 14 14 13 13 13 13 13 12 13 13 11 11 11 12 13 14 14 13 13 13 13 12 14 16 16 17
11 10 9 8 7 7 7 8 8 9 9 9 10 10 11 12 12 13 14 14 14 15 15 14 13 13 13 12 10 11 12 13 13 14 14 14 14 14 15 14 15 15 16 18
11 9 8 8 8 8 8 9 10 11 12 12 11 12 13 14 14 14 14 14 14 14 15 15 14 14 13 12 11 11 12 12 13 13 14 14 14 14 14 14 14 15 16 17
13 11 9 10 9 8 10 11 11 12 13 14 14 14 14 15 15 15 15 15 15 15 15 14 14 14 13 12 12 13 13 13 13 14 14 14 14 14 13 13 12 12 13 15
11 10 10 10 10 9 10 11 12 13 14 15 15 15 15 16 16 15 16 16 16 15 15 15 15 14 14 13 13 13 14 14 14 14 14 15 15 15 16 15 14 13 13 13
11 9 11 11 12 11 11 11 12 13 14 15 16 17 17 17 17 17 17 16 16 16 16 15 15 15 14 14 13 14 14 14 15 15 15 16 16 16 17 18 19 19 16 15
12 11 12 11 11 12 12 12 14 15 15 16 16 17 17 18 19 18 18 17 17 18 18 17 17 17 15 15 15 15 15 15 16 16 16 16 16 17 17 18 19 20 19 19
13 13 13 13 13 14 14 15 15 16 15 16 17 18 18 19 19 20 20 20 20 21 19 19 18 17 16 16 16 16 16 16 17 17 17 17 18 18 19 20 21 21 21 21
15 16 15 14 15 16 16 16 16 17 17 18 17 18 19 19 20 21 21 20 21 21 20 19 19 17 17 17 17 17 17 17 16 17 17 18 18 19 20 20 21 22 22 21
15 16 15 15 16 17 17 17 17 18 19 19 20 21 22 22 22 21 21 21 21 21 20 19 18 17 17 16 16 17 17 17 17 18 18 19 19 19 20 21 21 22 22 23
16 17 16 16 16 17 17 18 18 19 19 20 21 21 21 21 21 22 21 22 22 22 21 19 17 18 18 17 17 17 18 19 19 19 19 19 20 20 21 22 23 23 24 24
17 17 17 17 17 17 18 18 18 20 20 21 22 22 22 22 22 23 22 23 23 22 20 19 19 19 19 19 18 18 19 19 20 20 21 21 22 22 22 23 23 24 24 25
20 20 20 20 21 21 21 21 21 21 21 21 22 23 24 24 23 23 24 24 23 21 20 20 20 20 20 20 19 20 21 21 22 22 23 23 24 24 25 25 25 26 27 26
23 22 24 24 22 22 21 21 22 22 22 23 23 24 24 24 24 23 22 23 22 22 21 21 21 22 21 20 20 21 21 22 22 23 24 25 25 26 27 27 27 28 29 30
22 22 22 24 24 24 23 23 24 22 23 23 23 23 22 22 22 23 24 21 20 21 21 21 21 21 22 22 23 22 23 24 24 24 26 27 29 30 30 30 31 31 32 31
22 21 22 22 21 19 21 22 20 20 21 20 20 20 20 22 21 19 20 21 22 22 22 21 21 21 22 23 24 24 25 25 26 27 26 29 31 33 33 34 31 32 33 33
20 21 20 21 20 21 19 18 18 18 18 18 18 18 18 18 21 20 20 20 20 22 23 22 22 22 24 25 25 25 25 26 27 27 28 31 32 33 34 31 32 34 36 36
17 16 16 16 16 16 16 15 17 17 18 20 20 22 21 19 18 18 19 19 20 21 23 25 26 25 25 25 27 28 28 27 28 28 29 29 31 32 32 32 33 32 34 35
16 15 15 15 15 16 16 16 17 18 19 22 21 20 20 20 20 19 22 24 23 22 22 24 26 26 28 30 29 29 29 30 30 30 33 32 31 33 34 34 34 34 35 35

GFSNGP_con_lsi_093.txt.gz
Lid_Strength_Index
12 12 11 13 13 13 14 14 17 15 14 12 10 10 9 8 7 7 7 6 6 7 6 6 6 5 4 4 4 4 4 4 4 4 3 3 2 2 3 3 4 4 4 5
14 11 12 13 13 13 12 12 13 13 14 9 8 8 8 8 7 7 7 7 8 8 7 7 6 6 6 5 4 3 4 4 4 4 4 4 3 3 3 3 3 3 4 4
16 12 13 15 12 12 12 11 12 15 12 9 10 9 8 8 8 7 8 9 9 9 9 9 8 7 8 6 5 4 3 3 3 3 3 3 3 3 3 3 3 4 4 4
16 14 20 12 10 10 11 11 10 10 10 9 9 8 9 7 8 9 10 11 11 11 11 11 9 8 8 7 7 7 8 7 7 7 5 3 3 3 3 3 2 3 3 3
17 17 15 12 10 11 12 12 9 10 9 8 8 9 10 10 9 10 11 11 12 12 12 12 11 9 9 9 9 9 9 9 9 9 8 8 7 5 2 2 3 2 2 2
16 18 21 12 9 7 8 16 9 9 9 9 8 12 12 10 11 11 11 11 12 12 14 14 13 11 10 11 10 10 11 11 11 11 10 10 10 9 8 7 4 2 2 3
16 16 15 9 9 7 15 14 8 8 8 8 10 10 10 11 12 12 12 12 12 12 14 14 13 12 11 11 11 10 11 12 13 13 12 12 12 10 10 9 9 11 13 15
15 17 18 8 9 13 10 9 8 8 9 10 10 10 11 12 13 13 14 12 12 13 14 14 14 13 12 12 10 10 11 13 14 14 13 13 13 13 12 11 12 14 15 16
13 14 9 7 8 7 8 10 10 9 9 10 11 12 12 13 14 14 14 14 13 14 15 15 14 14 15 14 12 12 13 14 14 15 14 14 14 14 14 13 13 14 15 16
12 10 9 8 7 8 8 10 11 11 11 10 12 12 13 13 14 14 14 14 14 15 16 16 16 15 15 14 13 12 13 14 14 15 15 15 14 14 14 14 14 14 14 15
11 9 9 9 8 9 10 10 11 12 13 14 13 14 15 16 16 16 16 15 15 15 15 15 15 15 14 13 12 13 13 13 14 14 14 14 14 14 14 13 13 15 15 15
14 12 10 10 9 9 10 12 12 13 14 15 15 16 16 16 16 17 17 16 16 16 16 15 15 15 14 13 13 13 14 14 14 14 14 14 15 16 13 13 13 12 12 13
11 10 11 11 10 10 12 12 13 14 15 16 16 17 17 17 17 16 17 17 17 17 16 16 16 16 14 13 13 14 14 14 14 14 14 15 16 16 18 17 15 14 14 14
11 10 12 12 13 11 11 12 13 15 15 16 17 17 17 18 18 18 18 18 18 18 17 17 17 17 16 15 15 15 15 15 15 16 16 16 17 18 19 20 21 20 17 16
12 12 12 12 12 13 13 13 14 16 16 18 17 18 18 19 20 20 19 19 19 19 19 19 18 18 17 16 17 17 17 17 17 17 17 18 19 19 20 21 21 21 21 20
13 13 13 14 15 15 15 15 16 16 16 17 18 18 19 19 20 21 20 21 21 22 20 21 20 18 17 17 18 18 18 18 18 18 19 19 19 20 21 21 21 22 22 22
15 16 15 15 16 16 17 16 17 17 17 18 18 18 19 20 21 21 22 21 21 22 21 20 21 19 18 19 20 20 19 19 19 19 19 19 19 19 19 20 21 22 23 22
16 15 15 15 16 17 17 17 18 18 19 20 20 22 23 23 23 23 23 22 22 22 22 21 19 20 19 19 19 19 19 19 19 19 19 19 19 19 20 21 21 22 23 23
16 16 16 16 17 17 18 19 20 20 20 21 22 23 23 24 23 23 23 24 24 24 22 20 18 20 20 18 18 18 19 20 20 20 20 20 21 21 21 22 23 23 24 25
17 17 17 18 17 17 19 19 20 21 21 22 23 24 24 24 24 24 23 24 23 22 21 21 20 20 20 20 19 20 20 21 21 22 22 22 23 23 23 23 23 25 26 27
20 20 21 21 21 22 23 25 24 25 25 26 25 26 25 25 24 24 24 24 23 22 21 21 22 21 21 21 21 22 22 23 23 24 24 24 25 25 25 25 26 26 26 27
24 23 26 25 24 24 24 25 24 26 26 27 28 28 28 27 27 25 24 23 22 22 21 21 21 23 22 21 22 23 23 24 24 24 25 25 26 28 28 28 28 29 30 31
24 23 23 25 24 25 23 24 25 25 25 25 26 26 25 23 23 25 24 21 21 21 21 22 22 23 23 23 23 24 25 25 25 26 27 28 29 29 29 30 31 31 33 33
24 23 24 23 22 20 21 21 20 20 23 21 22 23 20 23 22 19 19 22 23 23 22 22 22 22 24 24 25 25 26 27 27 28 28 29 32 31 30 32 31 33 34 34
22 22 21 22 20 20 18 18 18 18 18 18 19 18 18 18 23 21 21 21 20 22 23 23 23 24 25 26 26 27 28 29 30 30 31 32 32 32 33 33 33 34 35 35
18 18 18 17 16 17 16 16 17 17 18 21 21 25 23 21 19 20 20 21 20 22 23 26 27 27 27 26 28 29 28 27 29 30 32 33 34 34 35 34 34 34 36 37
17 16 16 16 15 16 15 15 16 17 19 24 24 25 23 24 23 22 26 27 27 26 26 28 29 28 29 31 30 30 31 32 32 32 35 35 35 35 36 36 36 36 35 33

GFSNGP_con_lsi_096.txt.gz
Lid_Strength_Index
12 11 12 13 13 13 14 14 17 15 15 12 10 10 9 8 7 7 9 9 9 9 8 8 7 6 4 4 4 4 4 4 4 4 4 4 4 4 4 4 4 4 4 4
14 12 12 14 12 12 13 13 13 13 13 9 8 8 8 8 8 9 10 10 10 10 10 9 9 8 7 6 6 3 4 4 4 4 3 4 4 5 5 5 5 5 5 5
16 13 14 17 13 13 12 12 13 15 12 9 9 9 9 8 8 9 11 11 11 11 12 10 9 9 9 8 7 7 7 7 6 4 3 3 3 3 4 5 5 5 6 6
16 14 21 14 11 10 11 11 10 10 10 9 9 9 9 9 10 11 11 12 13 13 13 12 11 10 10 9 9 9 9 9 10 8 7 7 5 4 3 3 3 3 4 4
17 17 15 13 11 12 13 12 10 10 9 9 9 9 11 11 11 12 12 12 13 13 14 13 13 11 11 11 11 11 12 12 12 10 10 10 9 9 8 8 4 2 2 3
16 18 22 14 10 8 9 15 9 9 9 9 9 13 13 12 12 12 12 12 13 14 14 14 14 12 12 12 12 13 13 13 13 12 12 13 12 12 10 9 9 8 12 14
16 16 15 10 9 8 16 15 9 8 8 8 12 12 13 13 13 13 13 12 12 14 15 15 14 13 14 13 13 14 14 15 14 14 14 14 13 12 12 11 11 13 15 16
14 17 18 8 9 13 10 9 9 9 9 11 12 13 13 14 14 14 14 14 13 14 15 15 14 14 14 15 13 13 14 15 15 14 14 14 14 14 13 12 13 13 14 15
13 13 9 7 8 8 9 10 11 11 11 12 13 14 14 15 15 15 15 14 14 15 15 15 15 15 15 15 13 14 15 15 15 15 15 14 15 15 14 14 15 15 15 16
12 10 9 8 8 8 9 10 11 11 12 12 14 14 15 16 16 16 15 16 15 15 16 16 15 15 15 15 13 14 15 16 16 16 16 15 14 14 15 15 15 15 16 16
11 11 10 10 9 9 10 10 12 13 13 14 15 15 16 17 17 17 17 16 16 16 16 16 15 15 14 14 14 14 15 15 15 14 15 15 15 15 14 13 13 14 14 14
14 12 11 12 10 10 12 13 13 14 15 15 16 16 16 17 17 18 18 17 17 17 17 17 17 17 16 14 14 14 14 14 14 14 15 15 16 17 15 14 13 13 13 14
13 11 11 11 11 11 12 14 14 15 16 17 17 17 17 18 18 17 18 19 19 18 18 17 17 17 17 15 14 14 15 14 15 15 15 16 17 18 20 18 16 15 14 14
12 11 12 13 14 13 12 13 14 16 16 17 17 17 18 19 19 20 20 19 19 19 19 18 18 19 17 17 16 17 18 17 17 17 17 18 19 20 21 21 22 22 18 17
13 12 12 13 14 15 14 14 15 16 17 17 18 19 19 20 21 21 20 19 19 20 20 20 20 19 18 17 18 18 18 18 19 19 19 19 20 20 21 21 22 22 21 21
13 14 14 15 16 16 16 16 16 17 16 17 18 19 19 20 20 21 20 21 22 22 21 21 20 19 18 18 18 18 19 19 19 19 20 20 21 21 22 23 24 25 24 24
15 16 16 15 16 17 17 17 17 18 18 19 19 19 19 20 21 21 22 21 21 22 21 21 21 20 19 20 20 20 20 20 20 20 20 20 21 22 23 24 25 25 25 24
15 15 15 16 16 17 18 18 19 19 20 20 21 23 24 23 24 23 23 23 22 22 22 21 20 21 20 20 20 20 20 20 20 21 20 21 21 22 23 23 24 24 25 24
16 17 16 16 17 18 19 20 20 20 21 22 24 26 26 26 25 26 25 25 25 24 23 22 19 21 21 19 19 19 20 20 20 21 21 21 22 22 23 24 25 26 26 26
18 18 18 19 18 18 19 20 20 22 23 24 27 28 28 29 29 29 28 26 24 25 24 22 22 21 21 21 21 21 22 22 22 23 23 24 25 26 25 26 26 28 29 28
21 21 21 21 23 23 25 26 26 26 29 28 27 29 29 28 27 27 26 25 24 23 22 22 23 22 22 22 22 24 24 24 24 25 25 26 26 27 27 28 28 29 29 29
25 25 27 26 24 24 25 27 26 28 27 29 31 31 30 28 29 27 27 24 22 24 22 22 22 24 23 22 22 23 23 24 25 25 26 26 27 29 29 29 30 30 31 32
25 24 24 26 25 26 25 26 28 28 28 30 30 29 26 25 25 26 26 22 21 22 21 22 23 24 24 24 24 25 25 25 26 27 28 28 29 30 30 30 31 30 32 31
25 24 25 24 23 21 23 25 23 24 26 24 25 27 22 26 25 20 20 23 24 23 24 23 23 24 25 26 26 27 27 29 29 29 28 30 33 32 31 32 32 33 33 32
23 24 23 24 22 23 21 20 20 20 19 19 20 19 19 19 25 23 24 24 21 23 24 24 24 26 27 27 28 28 29 30 30 30 31 31 32 33 33 32 33 34 35 35
20 20 20 19 18 17 17 17 18 18 19 22 22 27 26 24 22 22 23 24 23 24 26 29 29 28 28 27 28 29 28 27 30 31 32 33 33 33 34 34 35 35 36 37
18 17 17 16 16 16 16 16 16 18 18 24 24 26 24 26 27 24 28 30 30 28 29 31 31 29 30 32 31 31 32 32 33 32 36 36 36 36 37 37 37 36 36 37

GFSNGP_con_lsi_099.txt.gz
Lid_Strength_Index
11 11 11 12 12 11 13 12 15 13 13 10 9 9 8 7 8 9 11 11 12 11 10 9 8 7 6 4 3 3 4 4 4 3 3 3 1 1 1 2 1 1 1 1
14 12 11 13 12 12 12 11 12 12 12 8 7 7 8 8 8 10 11 11 12 12 13 11 10 10 9 9 5 3 3 3 3 3 3 3 3 2 2 2 2 2 2 2
16 13 13 16 13 12 11 10 11 14 10 8 9 9 9 9 10 11 11 13 13 13 13 12 11 10 10 10 10 10 9 9 8 7 6 5 3 3 3 3 3 3 3 3
15 14 20 13 10 9 10 9 9 10 9 9 10 11 11 11 11 12 12 13 14 14 14 13 11 11 11 11 11 12 12 12 11 10 9 9 8 8 7 6 3 4 3 4
15 15 13 12 11 11 12 11 9 10 9 9 9 10 13 13 13 13 13 14 14 14 14 13 12 11 11 12 13 14 14 13 13 12 12 11 11 11 10 8 9 12 12 10
14 17 18 12 9 7 8 14 8 9 9 9 9 13 14 14 14 14 14 13 14 14 14 15 14 13 13 14 14 15 14 14 13 13 13 12 12 12 11 10 12 13 14 15
15 16 13 10 8 7 15 13 8 9 9 9 12 13 14 14 14 14 14 14 13 14 15 15 14 14 15 14 15 15 15 15 14 14 14 13 13 12 12 12 13 14 15 16
14 16 17 8 8 12 10 10 9 10 11 12 13 13 14 15 15 15 15 14 14 15 15 15 15 14 15 15 14 15 15 15 16 15 15 14 14 13 12 12 13 15 15 16
12 13 8 8 9 9 9 11 10 10 10 11 14 15 15 16 16 16 16 15 14 15 15 15 14 15 15 15 14 14 14 15 16 16 16 15 15 15 15 14 14 15 14 14
11 10 11 9 9 9 10 12 12 11 11 11 13 15 16 16 16 17 16 16 15 15 16 16 16 15 15 14 13 14 15 16 16 16 16 15 15 15 15 15 15 15 15 14
11 11 10 11 10 11 11 11 12 13 13 13 13 14 16 17 17 17 17 16 16 16 17 17 16 16 15 14 13 14 15 15 15 16 16 17 17 16 15 14 13 14 14 14
14 12 12 12 11 11 13 14 14 14 15 15 15 15 16 17 17 18 18 17 17 17 17 17 17 16 15 15 14 14 14 14 14 14 14 15 15 16 14 14 13 13 13 13
12 10 11 12 12 12 13 14 15 15 15 16 16 16 17 17 17 18 18 18 18 18 18 17 17 17 16 15 15 15 15 14 14 14 15 15 15 16 17 17 15 15 14 14
11 10 13 13 15 13 13 14 14 15 16 16 17 17 17 18 18 19 19 18 18 18 18 18 18 18 17 16 16 16 16 17 16 16 16 17 17 17 17 18 19 19 18 16
13 12 13 14 14 15 14 14 15 16 16 17 17 18 18 19 20 20 19 19 19 19 19 19 19 19 17 17 17 17 16 16 16 16 17 17 17 18 18 18 19 19 18 19
13 13 14 15 16 16 16 16 16 17 17 17 18 18 18 19 19 19 19 20 20 21 20 20 20 19 18 17 17 16 17 18 17 17 17 17 18 18 19 20 20 21 21 21
14 16 15 16 16 17 17 17 17 18 18 18 19 18 18 19 20 20 20 20 20 21 20 20 20 20 18 18 17 17 17 17 18 17 18 18 19 19 20 20 21 22 22 22
15 15 15 15 16 17 18 18 18 19 20 20 21 22 23 23 22 22 22 21 21 22 21 21 19 20 20 18 18 17 17 17 18 18 18 19 19 19 20 20 21 21 21 22
15 16 16 16 17 17 18 19 19 20 21 22 23 24 24 24 23 23 22 23 23 22 22 21 19 20 20 19 18 17 17 18 18 18 19 20 19 20 20 21 22 22 22 22
17 17 17 18 17 18 19 19 20 21 21 22 24 24 24 25 24 23 23 23 23 22 21 21 20 20 20 20 19 18 18 18 19 20 20 20 20 21 22 23 22 22 22 23
19 19 20 21 22 23 24 23 23 23 25 24 23 25 24 24 24 23 21 21 21 21 20 20 20 19 19 19 19 19 19 20 20 20 21 21 21 21 22 22 22 22 23 23
21 22 23 22 22 22 23 22 22 23 23 24 26 25 23 22 22 22 22 21 19 21 19 19 19 22 20 20 19 19 20 20 20 20 21 21 21 22 22 22 23 23 23 23
21 21 21 22 21 21 22 21 23 22 22 23 23 21 20 20 19 20 20 19 18 19 19 19 21 22 21 20 20 20 21 21 21 21 21 21 21 21 22 22 22 23 23 23
21 21 21 21 21 19 20 20 19 20 21 20 20 22 18 18 19 18 18 20 21 20 20 20 21 22 21 20 20 21 21 21 21 21 21 23 21 21 21 22 22 21 22 22
20 20 20 20 18 17 18 18 18 18 17 17 18 17 17 16 17 17 17 18 19 19 18 22 22 22 19 19 20 20 20 20 20 20 20 20 20 21 20 21 21 21 21 21
18 17 17 17 16 15 15 16 16 15 16 17 16 17 16 16 16 16 16 18 18 19 17 18 19 18 18 18 19 19 19 18 19 19 20 20 20 20 21 21 21 21 21 21
16 17 16 15 14 15 15 14 14 14 15 15 16 16 16 16 17 17 21 17 18 18 18 18 18 19 18 18 18 18 19 18 21 19 19 19 20 19 20 20 20 21 21 22

GFSNGP_con_lsi_102.txt.gz
Lid_Strength_Index
11 10 10 10 11 10 11 11 13 11 11 9 8 7 7 7 7 8 9 12 12 12 11 10 9 9 7 3 3 3 3 3 3 2 2 1 1 1 0 0 0 0 1 1
13 10 11 12 11 11 11 10 10 10 11 7 8 7 8 9 10 10 12 12 14 13 13 11 10 10 10 9 9 8 7 7 3 3 3 3 2 2 1 1 1 1 1 1
15 12 12 14 12 11 10 9 10 13 10 8 12 13 14 12 12 12 12 13 14 15 14 12 11 11 12 12 11 11 11 10 9 7 7 6 4 3 2 1 1 1 1 1
14 13 18 12 8 8 9 9 9 9 9 10 12 13 14 13 14 14 14 14 15 16 15 13 12 11 12 12 12 13 13 12 12 10 10 9 9 9 7 6 7 6 6 3
13 14 12 11 10 10 11 11 9 10 9 9 10 10 14 14 14 14 14 14 14 14 16 14 13 12 12 13 14 14 14 13 13 12 12 12 11 11 10 10 12 13 13 12
12 15 17 12 8 6 7 13 8 8 10 9 10 12 14 14 14 14 14 14 14 14 14 16 14 13 14 15 14 14 14 14 13 13 13 13 12 12 12 13 14 14 15 15
13 14 12 9 7 6 13 14 9 9 11 12 15 14 14 14 15 14 14 14 14 14 15 15 14 14 14 14 15 14 14 14 14 13 13 13 12 12 13 13 14 15 16 16
12 15 18 9 7 11 10 10 10 10 10 11 11 12 14 15 15 15 15 14 13 14 15 15 14 14 15 15 15 15 14 15 15 15 14 13 13 13 13 13 14 15 16 16
12 13 10 10 11 11 10 12 11 10 10 11 11 13 14 15 15 15 15 14 13 14 15 15 15 15 15 15 14 14 14 14 15 15 15 15 14 14 14 13 13 13 13 13
11 11 11 10 10 10 11 11 11 11 11 10 12 12 14 15 16 16 16 15 14 13 14 15 15 15 15 14 13 14 14 15 16 16 15 14 14 14 14 14 14 14 15 15
11 10 10 11 11 10 11 10 11 11 12 12 12 13 13 14 15 16 16 15 15 14 14 14 14 14 14 13 13 13 14 14 14 15 16 17 17 16 16 16 15 15 15 15
12 11 11 12 11 11 12 13 12 12 12 12 12 13 13 14 14 14 15 15 15 15 15 15 14 14 14 13 13 12 13 13 13 13 13 13 14 16 16 16 15 15 14 14
11 10 11 11 11 11 12 13 12 13 13 13 13 13 14 15 15 15 15 15 16 16 15 15 15 15 15 14 13 14 14 13 13 13 13 14 14 14 16 16 16 15 14 14
9 10 12 11 12 12 12 12 13 13 13 14 14 14 14 15 15 16 16 16 15 15 16 16 16 16 15 15 14 15 14 15 14 14 14 14 14 15 14 15 16 17 17 16
11 11 12 12 12 13 12 13 13 14 14 15 14 15 15 16 16 17 16 16 16 16 16 16 17 17 16 15 15 15 14 14 14 15 15 15 15 15 15 15 16 16 15 16
11 12 12 14 14 14 14 14 15 15 15 15 15 16 16 16 16 16 16 17 18 18 18 18 18 17 16 15 14 14 15 16 15 15 15 15 15 15 16 16 16 17 18 18
12 13 13 14 15 15 15 15 15 16 16 16 17 16 16 17 17 18 18 17 18 18 18 18 18 17 16 16 14 14 14 14 15 14 15 15 15 16 16 16 17 18 19 19
12 13 13 13 14 15 16 16 16 16 17 18 18 19 20 20 20 20 20 19 19 19 19 19 18 17 17 16 15 14 14 14 15 15 15 15 16 16 16 17 17 17 18 19
13 13 14 14 14 15 16 17 17 18 18 19 20 21 20 20 20 20 19 19 19 19 19 19 18 17 17 17 15 14 15 15 15 16 16 16 16 17 17 17 18 18 18 18
14 14 15 15 15 16 17 17 17 18 19 19 20 20 20 21 21 20 19 20 20 19 18 18 17 16 17 17 16 15 15 15 16 16 16 16 16 17 18 19 18 18 18 19
16 16 17 18 19 19 19 19 19 20 20 20 20 21 21 20 20 19 17 16 18 18 17 17 17 16 16 16 15 15 15 15 16 16 16 17 17 17 17 18 18 18 18 19
17 18 19 19 19 19 19 19 19 20 20 21 22 21 20 18 19 18 19 17 16 18 16 16 16 19 17 17 15 15 16 16 16 16 16 16 16 17 17 18 18 18 19 19
18 18 18 18 18 18 18 18 19 19 19 19 19 18 17 16 15 16 16 16 15 17 15 16 19 19 18 15 16 16 16 17 17 17 17 17 17 17 17 17 18 18 18 18
17 17 17 17 17 16 16 16 16 16 17 16 17 18 16 14 14 14 14 16 17 17 17 17 18 19 18 16 16 16 16 16 17 17 17 19 17 17 17 17 17 17 18 18
17 17 17 17 15 14 15 14 15 15 15 14 15 14 14 13 13 13 13 13 16 14 14 18 18 17 15 15 16 16 16 16 16 16 16 16 16 16 15 16 17 16 16 17
15 14 14 14 13 13 13 13 14 13 13 13 12 12 12 12 12 12 12 15 14 15 13 13 15 14 14 15 15 15 15 15 15 15 16 15 15 15 16 16 16 16 16 16
14 14 13 13 12 12 12 13 13 12 12 12 12 11 12 12 12 13 15 12 13 13 13 13 13 14 15 15 15 14 14 14 17 15 15 15 15 15 15 16 16 16 16 17

GFSNGP_con_lsi_105.txt.gz
Lid_Strength_Index
11 10 10 11 11 11 12 11 13 11 12 11 9 9 9 9 10 10 10 10 10 11 13 14 11 10 10 7 2 2 2 2 3 2 1 1 1 1 1 1 1 1 1 1
12 10 10 11 10 11 11 10 10 9 12 8 7 9 12 12 12 13 12 12 13 12 14 15 12 12 11 11 10 8 8 8 4 3 2 2 2 1 1 1 1 1 1 1
15 12 12 14 11 10 10 10 11 15 11 8 10 12 13 13 13 14 14 14 14 15 14 15 13 12 13 12 11 12 12 11 10 8 7 7 3 2 2 2 2 2 1 1
14 13 17 11 7 8 9 10 9 10 10 10 13 13 13 13 14 14 14 14 14 16 15 15 13 13 13 13 13 13 14 13 12 11 10 10 9 8 8 9 10 9 9 8
13 13 12 11 9 9 10 12 8 9 9 9 11 11 13 13 14 14 14 13 14 14 15 14 15 13 14 13 14 14 15 14 13 13 13 12 12 12 12 13 14 14 13 13
11 14 18 13 8 6 6 15 8 8 10 11 10 12 13 13 13 14 13 13 13 14 14 15 15 14 15 15 15 15 16 15 13 13 13 13 13 14 14 15 15 15 16 16
12 13 13 10 8 6 15 14 9 9 9 10 13 14 13 13 14 14 13 12 12 13 14 14 14 14 15 16 16 15 14 15 14 14 13 13 13 14 15 16 16 16 17 16
12 14 18 11 7 12 11 10 10 10 9 10 11 11 12 13 14 14 14 13 12 12 14 14 14 14 15 15 15 15 16 15 15 15 14 13 13 13 13 14 14 15 16 16
12 13 11 10 11 10 9 10 10 10 10 10 11 11 12 13 13 14 14 13 12 12 12 13 13 14 15 14 14 14 15 16 16 16 15 15 15 15 14 14 14 15 15 15
11 11 10 10 10 9 10 10 10 10 10 10 11 11 11 12 12 13 13 14 13 13 13 13 13 13 14 13 12 13 14 15 15 17 17 17 17 17 18 16 16 16 16 16
11 10 10 10 10 10 10 10 9 9 10 10 10 11 11 12 12 12 12 12 13 13 14 14 13 14 13 13 12 12 13 13 14 15 16 17 18 17 17 17 17 16 17 17
12 9 9 11 10 10 11 11 11 10 10 10 11 11 11 12 12 12 13 12 13 13 13 13 14 14 14 13 13 13 13 13 13 13 13 14 16 17 17 17 17 16 16 17
10 9 9 9 10 10 11 11 11 11 11 11 11 11 12 12 13 13 13 13 14 14 14 14 15 16 15 14 13 14 14 14 13 13 13 14 14 14 17 16 16 16 16 16
8 8 10 10 11 10 11 11 11 11 12 12 12 12 12 13 13 14 14 14 14 14 14 15 15 16 15 13 14 14 14 14 14 14 14 14 14 14 14 15 16 17 16 16
9 9 10 10 11 11 10 11 12 12 13 13 13 13 13 14 15 15 14 14 14 15 15 16 16 17 15 14 13 14 14 14 14 14 14 14 14 14 14 15 15 15 15 15
9 10 11 12 12 12 12 12 13 14 14 14 14 14 14 14 14 15 15 16 16 17 17 17 17 16 15 14 13 13 14 14 14 14 14 14 14 14 15 15 16 17 18 17
10 11 11 12 13 13 14 13 14 14 15 15 16 15 15 15 15 16 16 16 17 18 17 17 17 16 16 15 14 13 13 13 14 14 14 14 15 15 15 16 17 18 18 18
9 10 10 11 12 13 14 14 14 15 16 16 17 18 18 18 18 18 18 17 17 17 18 18 17 16 16 16 14 13 13 13 13 14 14 14 15 15 15 15 16 17 17 18
10 12 12 12 12 13 14 15 16 16 17 18 18 19 19 19 18 18 18 18 18 17 18 17 16 16 15 16 15 13 13 14 14 14 14 15 15 15 16 16 16 16 17 17
12 12 13 13 13 14 15 15 16 17 18 18 18 19 19 20 19 18 16 18 18 17 16 16 16 15 15 15 14 13 14 14 14 15 15 15 15 16 17 17 16 16 16 17
14 14 15 16 17 17 18 17 18 19 20 19 19 20 19 19 18 18 15 14 15 17 15 15 16 16 15 15 13 13 14 14 14 14 15 15 15 15 16 16 16 16 16 17
15 17 18 18 18 18 17 17 18 19 19 19 20 20 19 16 16 16 17 16 13 17 14 14 16 18 16 15 13 14 14 14 15 15 15 15 15 16 16 16 17 17 17 17
16 16 17 17 17 17 17 17 18 18 18 18 17 16 15 14 14 14 14 15 14 15 14 15 18 18 17 14 14 14 14 15 15 15 15 15 15 15 15 16 16 16 16 17
15 15 16 15 16 15 15 15 15 16 16 15 16 17 15 13 12 12 12 14 15 15 14 15 16 16 15 13 13 14 14 14 14 15 14 16 15 15 15 16 16 16 16 17
15 15 15 15 14 13 14 14 14 14 14 13 13 13 13 12 12 12 12 12 15 14 12 16 16 15 13 13 13 13 13 14 15 14 14 14 15 15 15 15 16 15 16 16
14 13 13 13 13 12 12 12 12 11 11 12 11 10 10 10 11 11 11 13 12 13 12 12 13 13 12 13 13 13 14 13 13 13 15 14 14 14 15 15 15 15 15 15
13 14 12 12 12 12 12 12 12 12 11 11 11 10 10 10 11 12 13 11 11 12 12 12 12 12 13 13 13 13 13 13 14 14 14 14 14 14 14 15 15 15 15 15

GFSNGP_con_lsi_108.txt.gz
Lid_Strength_Index
13 11 10 12 11 11 12 11 14 14 14 12 12 11 12 11 12 12 12 12 12 12 12 11 12 13 13 12 10 8 5 3 3 2 2 2 2 2 2 1 1 1 1 1
15 12 12 14 11 10 11 11 12 13 14 10 10 11 12 12 13 14 13 13 13 13 13 13 12 14 13 13 12 11 10 11 9 5 4 3 3 2 2 2 2 1 1 1
15 11 12 14 11 12 11 10 11 15 12 10 13 14 14 14 14 14 14 13 14 14 14 14 13 13 14 13 13 12 12 12 11 10 10 8 5 4 4 4 2 3 3 8
15 13 20 12 8 9 11 10 9 10 10 11 13 13 13 13 14 14 14 14 14 14 14 15 14 13 13 13 13 14 14 13 13 12 12 12 11 11 11 11 11 10 10 11
14 15 13 12 10 11 12 13 10 10 9 10 11 11 14 13 13 14 13 13 13 14 14 14 14 13 14 14 14 15 15 14 14 13 13 14 14 14 14 14 15 15 15 15
13 15 19 13 11 7 8 15 10 9 10 10 10 13 15 14 14 14 13 11 12 13 13 14 14 14 14 16 15 16 16 15 14 14 14 15 16 16 15 15 15 16 16 16
14 15 14 11 9 7 15 15 10 10 10 11 14 14 13 13 13 13 12 12 11 12 13 14 13 14 15 15 16 16 15 16 15 15 15 15 15 16 15 15 16 16 17 17
14 16 18 11 9 13 11 10 9 10 10 10 11 11 12 12 12 12 12 12 12 12 13 13 13 14 14 14 14 14 15 16 16 16 16 16 16 15 16 16 16 16 16 17
13 14 11 10 11 10 9 10 10 10 9 9 10 11 11 11 12 12 12 13 12 13 13 13 13 14 15 14 13 14 15 16 17 18 18 17 18 18 17 16 16 17 17 18
11 11 11 10 10 10 9 10 10 10 10 10 11 11 12 12 12 12 12 13 12 13 14 14 14 14 14 13 12 12 14 15 16 17 18 18 18 19 19 19 18 18 18 19
11 10 10 10 10 10 10 9 9 9 10 11 11 11 12 12 13 13 13 12 12 13 14 14 14 14 13 13 13 12 13 13 14 16 17 18 18 18 18 18 17 19 19 19
12 10 10 11 10 9 10 11 11 11 11 11 11 12 11 13 13 13 13 13 13 13 14 14 15 15 14 13 13 13 14 13 13 13 14 16 18 19 17 17 17 17 17 17
10 9 9 9 9 9 10 11 11 11 12 12 12 12 12 13 13 13 13 14 14 15 15 15 15 16 15 13 13 13 14 14 14 14 14 14 15 17 19 17 16 16 16 15
8 8 10 9 10 9 9 10 10 11 12 12 12 12 13 14 14 15 15 14 14 15 15 16 16 16 15 14 13 14 13 13 14 14 14 14 15 15 15 17 18 18 16 16
9 8 9 9 9 10 10 10 11 12 13 13 13 14 14 15 16 16 16 16 15 16 16 17 17 17 15 14 12 13 14 13 13 13 13 14 14 15 15 16 17 17 16 16
9 9 10 11 11 11 11 11 13 14 14 14 15 15 14 15 15 16 16 16 18 18 18 18 17 16 15 15 14 12 13 14 13 13 13 14 14 15 16 17 18 19 19 19
10 11 10 11 12 13 13 13 14 15 15 16 16 17 17 16 16 17 17 16 17 18 18 18 18 16 16 17 16 13 13 13 13 13 14 14 14 15 15 17 18 19 20 19
9 9 10 10 12 13 13 13 14 15 16 17 17 18 19 19 19 19 19 17 17 18 18 19 18 17 17 17 16 13 13 13 14 14 15 15 15 15 15 16 17 18 19 19
10 11 11 12 12 13 14 15 16 17 18 18 19 19 20 20 19 19 18 20 20 19 19 18 16 16 16 16 15 14 14 14 14 15 14 15 16 16 16 16 17 17 18 18
12 12 13 13 13 14 15 15 16 18 18 18 20 20 20 22 21 21 19 19 19 19 17 16 17 17 16 16 16 14 14 14 15 15 16 15 15 16 17 19 18 17 18 19
14 15 16 17 18 18 19 18 19 20 21 22 21 22 22 20 20 20 17 16 17 17 15 16 17 18 16 17 15 14 14 14 14 15 15 15 16 16 17 17 17 17 17 18
15 17 18 18 18 18 18 18 18 20 20 21 22 22 20 17 16 17 19 17 14 18 16 16 17 19 18 18 14 14 15 15 15 15 15 15 16 16 17 17 18 18 18 19
16 17 17 18 17 17 17 18 19 18 19 19 19 18 17 15 14 15 16 15 15 16 14 16 19 19 18 14 14 14 14 15 15 15 16 16 16 16 17 18 17 17 18 18
15 15 16 15 16 17 17 17 17 16 18 16 17 18 15 14 13 12 13 16 17 17 14 16 17 18 17 13 14 14 14 14 15 14 14 17 15 16 16 17 17 17 18 19
14 15 15 16 16 15 14 14 14 14 14 13 13 13 13 12 13 12 12 12 14 14 13 16 17 17 13 13 14 14 14 14 16 15 15 15 15 15 15 16 18 18 19 18
14 14 14 13 14 13 13 12 13 12 12 12 11 12 11 11 11 12 11 13 12 14 12 12 12 13 13 13 14 13 14 13 13 14 16 15 15 16 16 17 18 17 17 17
13 14 13 13 12 12 12 13 14 13 12 12 12 11 11 11 11 12 13 11 11 11 11 11 11 12 13 13 14 13 13 13 14 14 15 16 15 15 15 17 17 17 18 19

GFSNGP_con_lsi_111.txt.gz
Lid_Strength_Index
13 12 13 14 14 13 14 13 17 15 15 14 14 14 13 12 12 13 13 13 13 13 13 12 12 11 12 12 12 12 11 11 10 9 3 3 3 3 3 3 2 1 1 1
15 12 12 14 12 12 12 13 13 13 14 12 13 14 14 13 13 14 14 13 13 13 13 13 13 12 12 13 13 12 12 12 11 11 10 6 3 3 3 3 3 2 2 2
17 13 12 16 13 13 12 12 12 15 12 12 15 15 15 14 14 14 13 14 14 14 14 13 13 13 13 13 13 13 13 12 12 12 12 12 11 6 6 4 4 5 7 8
15 14 20 13 10 11 13 12 11 11 12 13 14 14 14 14 14 14 14 13 14 14 14 14 13 13 13 13 14 14 14 13 13 13 13 13 13 14 13 13 12 12 12 12
16 17 15 13 13 13 13 14 12 13 12 12 12 11 15 14 14 14 13 12 13 13 14 14 13 13 13 14 15 15 16 15 14 14 14 14 15 15 15 15 15 15 15 15
15 18 20 15 13 10 10 17 11 11 12 12 10 15 16 14 13 14 13 12 13 14 14 14 14 13 14 15 16 16 16 16 14 14 15 15 15 16 15 15 16 16 16 16
16 17 15 13 11 9 15 16 10 10 11 12 14 13 13 13 14 13 12 12 12 14 15 14 14 13 14 14 16 16 16 16 16 15 16 16 15 15 15 16 16 16 17 17
14 16 18 11 11 14 11 10 10 10 10 11 11 11 11 12 12 13 13 13 12 14 15 15 15 14 15 14 13 14 15 16 17 17 16 16 17 16 16 16 16 17 18 18
14 15 11 10 11 10 10 11 11 10 10 10 11 11 12 13 13 13 13 13 13 14 15 15 15 15 15 15 12 13 15 16 17 17 17 17 18 18 17 17 17 18 18 19
12 11 11 10 10 10 10 10 10 11 11 10 12 12 13 14 14 14 14 15 14 14 15 15 14 14 14 14 13 13 13 15 17 18 18 17 17 17 17 18 18 18 19 19
12 11 11 10 10 10 10 10 10 11 12 12 12 13 14 14 14 14 14 14 15 15 16 16 15 15 14 14 13 13 13 13 14 16 17 18 18 18 18 17 17 18 18 18
14 10 11 11 10 9 11 11 11 12 13 12 13 13 14 14 14 14 15 15 15 16 16 16 16 16 16 14 13 14 14 14 14 14 15 16 17 18 16 16 15 15 15 16
11 9 10 10 9 9 11 11 11 12 13 13 13 14 14 15 15 15 15 16 16 17 16 17 17 17 16 15 14 14 14 14 14 14 14 14 16 17 19 17 15 15 15 15
8 8 10 9 11 9 9 10 11 12 13 13 14 14 15 16 16 17 18 17 17 17 18 17 18 18 17 16 14 15 15 14 15 15 15 15 15 15 17 19 19 18 15 15
9 9 9 9 10 10 10 11 13 14 14 15 15 15 15 16 17 17 17 18 18 18 19 19 18 18 17 17 16 14 15 15 14 15 14 15 15 16 17 18 19 19 19 17
9 9 10 11 12 12 13 13 15 15 16 17 17 17 16 16 17 18 17 18 19 21 20 22 19 19 17 17 17 14 14 15 15 15 16 16 16 17 18 18 19 20 20 19
11 12 12 13 14 14 14 15 15 16 17 17 17 17 17 17 18 18 19 17 19 21 20 20 21 20 18 18 18 15 14 18 17 17 16 16 16 17 20 19 20 21 20 19
11 11 11 12 14 14 15 15 16 17 18 18 19 21 23 24 22 22 22 22 21 23 22 23 21 19 20 19 18 18 16 17 16 17 19 18 17 17 18 19 21 20 19 20
12 13 13 13 14 15 16 17 18 18 20 21 23 25 26 27 25 26 24 25 26 26 23 23 17 21 21 19 18 17 18 17 18 18 17 20 21 19 18 20 21 21 21 22
13 14 15 15 14 15 17 17 19 21 23 24 27 27 28 28 29 29 28 25 25 25 24 22 21 21 20 18 19 16 17 17 16 16 18 19 18 20 21 21 20 23 25 25
17 18 19 20 21 22 23 24 25 27 28 29 28 29 29 27 27 28 25 21 21 23 18 19 20 20 19 19 17 19 19 19 18 17 18 17 18 19 21 22 22 22 21 21
20 21 23 23 22 24 25 25 25 27 27 28 29 29 29 24 25 23 25 22 20 22 18 19 19 22 19 20 16 18 18 19 20 20 20 20 18 18 19 20 20 20 20 23
20 21 21 23 23 23 24 24 26 26 27 27 27 26 25 21 19 21 20 19 18 19 17 20 22 22 21 18 20 20 18 19 19 20 24 24 25 22 23 23 20 23 23 22
20 20 22 21 20 20 22 24 22 21 24 23 24 24 21 22 22 16 16 19 21 23 22 21 22 21 21 19 23 24 19 24 25 23 18 20 24 24 23 26 23 20 23 25
19 20 20 22 20 19 17 18 19 18 18 16 16 15 17 16 20 20 20 20 18 19 20 18 19 20 23 18 23 23 24 20 24 25 26 26 22 24 24 23 26 27 26 24
17 17 18 18 16 16 16 15 18 16 15 16 14 15 18 19 19 19 18 18 19 16 19 21 18 19 22 22 23 21 19 21 18 20 24 23 20 23 20 23 26 24 22 24
15 15 15 16 15 15 16 17 20 20 20 22 20 14 17 20 22 20 20 19 18 20 21 19 20 18 18 21 22 21 21 21 18 20 24 25 24 23 20 21 24 25 26 26

GFSNGP_con_lsi_114.txt.gz
Lid_Strength_Index
13 13 13 14 14 14 15 14 16 16 17 16 16 15 14 13 14 14 13 13 13 13 13 12 12 12 11 12 12 11 12 12 12 11 11 9 3 3 3 3 3 3 3 3
15 13 12 14 14 13 13 13 14 15 17 14 15 15 15 15 14 14 14 14 14 14 13 13 13 13 12 12 13 13 13 13 12 12 11 12 11 5 3 3 3 3 3 3
17 14 13 17 15 14 14 13 13 15 14 14 16 16 16 16 15 14 13 14 14 15 14 14 13 13 14 13 13 14 13 13 13 12 12 12 13 13 12 10 7 8 8 8
16 15 20 15 11 12 14 13 13 13 14 15 16 15 15 15 15 15 13 14 15 15 14 14 13 13 13 14 14 15 15 14 14 13 13 13 13 14 15 14 14 14 14 13
17 17 15 15 14 15 14 15 12 14 13 14 14 13 15 14 14 14 13 14 15 15 14 14 14 13 13 14 15 15 16 16 16 15 14 14 15 15 15 16 16 16 16 15
15 18 20 16 14 11 11 17 12 13 14 14 12 17 16 13 13 14 13 14 15 15 15 15 15 14 14 14 15 16 17 17 16 16 16 16 15 15 15 15 16 16 16 16
15 17 16 14 12 10 16 17 11 12 13 14 16 14 13 12 13 14 14 14 14 15 16 16 15 14 15 14 14 15 16 16 17 17 16 17 16 16 15 15 16 16 17 16
15 18 19 12 12 14 12 11 11 11 11 13 12 12 13 14 14 14 14 14 14 15 15 16 15 15 16 15 13 13 15 16 17 17 17 18 17 17 17 16 17 17 17 17
14 15 12 11 11 10 11 12 12 12 10 11 13 14 14 15 15 15 15 15 15 16 16 16 15 15 15 15 13 13 15 17 17 17 18 17 18 17 18 18 18 18 18 18
13 12 11 11 10 10 11 11 12 12 12 12 14 14 15 15 15 16 16 16 16 16 17 17 17 16 16 14 13 13 14 15 16 17 17 17 17 17 17 18 18 18 18 18
12 11 11 10 10 10 11 11 12 12 13 13 14 15 15 16 16 16 16 16 16 17 17 18 17 17 17 16 14 14 14 14 15 16 17 17 16 16 16 16 16 17 16 16
14 10 11 11 10 10 12 13 13 13 14 13 14 15 15 16 16 16 17 17 17 17 17 18 17 17 17 16 14 14 14 15 15 15 16 17 17 17 14 14 14 14 15 16
10 9 10 10 10 11 12 13 13 13 13 14 14 15 16 17 17 16 17 18 18 18 18 18 18 18 17 16 15 14 14 14 15 15 15 15 17 17 19 17 14 14 14 14
9 9 11 10 12 10 11 12 12 14 14 14 15 15 16 17 17 18 18 18 18 19 19 19 18 19 17 16 16 16 16 15 15 16 17 17 18 19 19 19 19 19 16 15
9 9 9 11 11 11 11 13 14 15 15 16 15 15 16 17 18 18 18 18 18 19 19 19 19 20 18 17 17 16 16 16 16 17 16 16 18 18 19 19 20 20 18 17
9 9 11 13 13 13 14 14 15 16 16 17 17 16 17 17 18 18 17 18 19 21 20 22 20 20 18 18 18 15 16 18 18 18 18 17 19 20 19 20 20 19 20 19
11 13 13 14 14 15 15 15 16 17 17 17 18 17 17 18 18 19 20 18 20 22 20 21 22 21 20 20 20 19 17 18 20 19 18 17 18 22 22 20 20 20 20 20
11 11 12 13 14 15 16 16 17 17 18 18 20 23 25 25 24 24 23 24 24 23 23 24 23 23 22 21 20 19 19 20 19 18 20 20 18 18 21 22 20 20 21 21
12 13 13 13 14 16 16 17 18 18 21 22 25 27 28 29 27 28 27 28 29 28 24 25 19 23 23 20 19 18 18 18 18 18 19 22 22 19 20 20 21 24 23 22
15 14 15 15 15 16 17 18 19 21 24 25 30 30 30 30 32 32 29 27 28 25 26 26 23 21 20 19 19 18 19 19 17 17 17 19 22 24 21 19 21 24 25 25
17 18 18 19 21 22 23 24 25 28 30 32 29 30 30 29 31 31 27 25 25 25 22 21 21 20 18 19 17 19 21 21 20 20 19 19 20 21 25 26 22 21 22 21
21 22 23 23 23 26 28 27 26 29 30 31 33 33 31 27 29 27 27 23 21 23 20 20 19 22 20 20 18 20 18 20 21 22 22 23 21 21 20 21 22 23 24 25
21 21 22 23 23 23 26 26 29 27 28 29 29 29 27 25 23 23 23 20 19 22 19 21 23 24 23 24 25 25 23 24 24 24 25 25 25 27 26 24 25 25 25 23
21 21 22 22 23 21 22 24 23 22 26 25 25 26 23 24 24 19 19 22 23 25 24 22 24 22 24 24 26 26 25 26 27 28 23 24 26 25 26 27 26 27 29 28
20 20 21 21 20 20 20 21 21 21 19 18 18 17 18 18 21 21 23 22 21 21 23 23 21 21 26 26 27 26 26 25 23 27 28 28 25 26 26 26 28 29 29 26
18 17 18 18 18 18 17 17 18 18 17 18 18 19 19 19 18 20 22 22 21 20 22 24 24 22 23 24 25 26 24 22 22 21 25 27 27 24 23 24 27 27 27 27
17 18 17 17 16 16 17 18 20 22 23 26 23 20 18 19 22 22 24 26 25 25 25 24 24 23 22 23 21 23 24 24 24 24 26 27 28 25 23 24 25 26 28 29

GFSNGP_con_lsi_117.txt.gz
Lid_Strength_Index
13 13 13 14 14 13 14 14 17 17 18 17 16 16 15 14 14 15 15 16 15 16 15 14 13 12 12 12 12 13 13 13 13 12 11 12 11 10 4 3 3 3 3 2
15 13 15 16 15 14 14 15 15 16 18 15 15 15 16 15 14 14 15 15 15 14 14 14 13 13 13 13 13 13 14 14 13 12 12 12 12 13 13 11 5 3 3 3
17 13 14 18 16 15 15 14 13 17 16 15 17 17 16 15 15 15 16 16 16 15 15 15 14 13 14 14 14 14 14 14 14 13 13 13 13 13 14 15 14 13 11 10
16 15 21 16 13 13 15 14 14 15 15 16 16 15 15 14 15 14 16 16 17 16 15 15 14 13 13 14 15 15 16 15 14 14 14 13 13 13 13 14 15 16 15 14
17 17 16 15 14 15 15 16 13 14 14 15 15 14 16 14 14 14 16 16 16 16 16 15 15 14 13 14 15 16 16 16 16 15 15 15 15 15 13 15 15 16 16 15
15 18 20 16 14 11 12 18 12 13 14 14 12 17 17 14 15 15 14 16 17 16 17 17 16 15 15 14 16 17 17 17 16 16 16 17 16 16 15 15 16 15 16 15
15 17 16 15 13 9 16 17 11 13 13 15 17 16 14 15 16 16 15 16 15 16 17 16 16 16 16 15 15 16 16 17 17 17 17 17 17 16 17 16 16 16 16 17
16 18 20 13 12 14 12 11 11 11 12 13 13 14 15 16 17 16 16 16 16 17 17 17 16 16 17 16 14 13 15 17 17 17 17 17 17 17 17 17 18 18 17 17
15 16 13 12 12 11 11 13 14 12 12 13 15 15 16 16 16 16 17 17 16 17 18 17 17 17 18 16 14 14 14 16 17 16 16 16 17 17 17 17 18 18 18 18
14 12 12 11 11 12 12 13 13 12 13 14 15 15 16 16 17 18 18 18 18 18 19 19 18 17 17 16 14 15 15 14 16 17 17 16 15 15 15 16 17 17 17 17
13 12 11 11 11 12 12 13 13 13 14 14 15 16 17 17 17 18 18 18 18 18 19 19 18 18 18 17 15 15 15 15 15 16 17 17 16 15 15 15 14 16 16 16
15 11 12 12 11 12 13 14 14 14 15 15 15 17 17 18 17 18 18 18 19 19 19 19 18 18 18 17 15 14 15 15 15 15 16 17 18 18 15 14 14 13 13 15
10 9 10 10 12 12 14 14 14 14 15 16 16 16 17 18 17 17 18 18 19 19 19 19 19 19 18 16 15 15 16 15 15 15 16 16 18 18 19 17 15 15 14 14
9 9 11 10 13 13 13 13 14 15 15 15 16 16 16 17 17 18 19 18 18 19 19 19 19 20 18 17 16 16 17 17 18 17 19 19 20 22 22 22 22 19 16 16
9 9 11 11 12 13 13 14 15 16 16 16 15 16 16 18 18 18 18 18 18 19 20 20 20 21 19 18 17 16 16 17 18 19 18 20 21 22 22 22 22 21 19 19
10 11 11 13 14 14 14 15 16 16 16 16 16 17 17 18 18 19 18 19 20 22 21 23 21 21 19 19 19 17 17 18 20 19 18 20 22 22 21 21 21 21 21 21
13 14 13 14 14 14 15 15 16 17 17 18 18 17 18 18 19 20 21 21 22 24 22 23 24 23 21 21 22 20 20 20 20 20 21 19 21 23 23 22 21 21 21 21
11 12 12 13 14 15 16 16 16 17 19 19 21 23 25 25 24 25 26 25 25 24 25 26 26 25 23 23 22 20 19 20 19 20 21 22 20 19 21 23 23 23 23 21
12 13 13 13 14 15 16 17 18 19 21 23 25 28 30 31 28 29 31 30 30 29 27 27 21 24 23 21 19 19 20 20 18 18 19 22 22 20 22 24 25 26 24 24
14 14 14 15 15 16 18 19 19 21 24 26 30 30 29 31 34 33 32 29 29 27 29 27 24 22 21 19 19 19 20 21 18 17 18 18 21 23 23 21 22 25 27 27
16 17 18 18 21 22 23 24 25 26 31 32 30 31 31 32 34 34 30 26 26 27 24 23 22 21 19 20 19 22 23 24 24 22 23 21 21 22 24 23 22 22 23 23
20 21 23 23 23 27 29 29 27 30 31 32 35 35 34 29 31 30 30 25 23 25 22 22 21 24 21 23 19 24 20 22 24 25 25 25 23 22 21 22 24 25 26 26
22 22 23 24 23 23 27 27 30 29 30 31 30 30 28 26 25 26 25 22 21 23 21 22 25 25 25 27 27 28 27 27 27 25 25 27 27 26 25 24 24 26 26 24
23 22 23 22 22 21 23 26 26 24 28 27 26 28 24 25 26 20 20 23 24 26 26 24 26 23 26 28 28 28 28 28 28 29 26 27 28 26 26 26 25 27 27 27
21 21 21 23 21 22 22 22 22 22 20 19 19 18 20 19 22 22 24 23 22 22 23 24 24 24 27 28 28 28 28 28 27 28 28 29 28 26 27 29 29 29 30 29
19 19 19 19 19 20 19 19 20 19 19 21 21 22 21 19 19 21 23 23 22 21 21 24 27 27 26 24 26 27 26 23 25 25 26 28 29 28 27 24 28 28 29 29
18 18 18 18 18 18 18 19 20 21 22 25 23 24 23 24 23 23 24 26 25 24 25 24 26 25 23 23 22 20 24 23 24 23 25 27 29 29 27 25 25 26 28 29

GFSNGP_con_lsi_120.txt.gz
Lid_Strength_Index
13 14 14 14 14 13 14 14 18 18 19 18 16 16 15 14 14 16 16 16 16 16 16 15 15 15 14 14 14 13 13 13 13 12 12 13 12 12 12 13 11 10 2 2
15 13 15 17 16 14 14 15 16 17 19 16 15 15 16 15 15 16 17 17 17 17 16 16 16 15 15 14 14 14 14 14 13 13 13 13 13 13 12 13 13 13 12 10
17 13 14 18 16 16 16 15 15 18 17 16 17 17 17 16 15 17 17 17 17 17 17 16 15 14 14 15 14 15 15 15 14 13 13 13 13 13 13 13 13 14 14 14
16 15 21 16 12 13 15 15 15 16 16 16 17 16 16 15 16 17 17 18 18 17 17 16 15 14 13 15 16 16 16 16 16 15 15 14 13 14 14 14 14 14 14 15
17 18 16 15 15 15 15 17 14 15 15 15 15 15 17 16 16 17 17 17 17 17 17 17 17 15 14 14 16 17 17 17 16 16 16 16 15 15 15 15 15 15 15 15
15 18 20 17 15 12 12 18 14 14 15 16 13 18 18 17 17 18 17 17 18 18 18 18 18 16 16 15 15 18 18 18 17 16 16 16 16 16 15 15 16 15 15 16
15 17 17 15 13 11 17 18 13 14 16 16 17 18 17 17 18 17 17 16 16 17 18 18 17 16 17 16 16 15 16 17 17 16 16 16 16 16 16 16 16 16 16 16
15 18 20 13 12 15 13 12 12 14 14 16 16 16 16 18 18 18 18 18 17 17 18 17 17 17 17 17 14 14 15 16 16 16 15 15 15 16 16 16 17 17 17 17
16 17 13 13 13 12 13 14 13 13 14 14 15 16 16 17 18 18 19 19 18 19 19 18 18 17 18 17 15 15 15 15 16 16 16 15 16 15 15 15 16 16 17 17
14 13 13 13 13 13 13 13 13 13 14 14 16 16 17 17 18 18 19 19 18 19 19 19 18 17 17 16 15 15 15 15 15 17 17 17 16 15 16 16 16 16 16 16
13 12 12 12 13 12 13 12 13 13 14 15 16 17 17 18 18 19 19 19 19 19 19 19 18 18 18 17 15 15 15 15 15 15 16 17 17 16 16 16 15 16 16 16
17 11 12 12 12 12 13 14 14 15 16 16 16 17 17 18 18 19 19 19 19 19 19 19 19 19 18 17 15 15 15 15 16 16 17 17 18 18 15 15 15 14 14 15
11 10 11 11 12 13 14 14 14 15 16 17 17 17 18 18 18 18 19 19 19 19 19 19 19 19 18 17 15 15 16 15 16 16 17 18 19 20 22 19 16 16 15 15
9 10 12 12 14 13 13 14 14 15 15 16 16 16 17 18 18 18 19 19 19 19 20 20 20 20 19 17 16 17 18 18 19 18 20 22 23 23 23 22 23 22 18 17
9 9 11 12 13 14 14 15 15 16 16 16 16 17 17 18 18 19 19 18 19 20 21 22 21 22 20 18 18 18 17 18 19 20 21 22 22 22 22 22 22 21 20 19
11 11 13 13 14 14 14 15 16 16 16 16 17 17 18 18 19 20 19 20 21 23 22 25 23 23 21 20 20 19 19 19 20 20 21 21 22 23 22 23 23 23 22 22
13 14 13 14 14 14 15 15 15 16 17 18 18 18 18 19 20 21 22 21 23 25 23 24 26 24 22 23 23 22 22 21 21 20 21 20 22 22 23 24 24 24 25 26
11 11 12 12 13 14 15 15 16 17 19 19 21 23 26 25 24 26 28 26 26 26 26 29 28 25 24 24 24 22 22 21 20 20 20 20 18 18 20 24 24 24 26 23
11 12 13 13 14 14 16 17 18 19 22 24 25 28 30 31 29 30 32 32 32 30 28 29 22 25 25 23 21 22 22 22 20 19 19 20 21 19 21 23 24 26 24 24
13 13 13 14 15 16 17 18 20 21 24 26 30 32 30 32 34 34 34 30 29 28 31 28 26 24 23 22 22 21 23 24 21 21 21 19 22 23 23 21 21 25 28 27
15 16 17 18 20 22 23 24 24 26 32 33 30 31 31 33 35 35 30 27 27 29 26 24 24 23 22 22 21 24 26 25 25 23 25 25 22 21 24 26 25 26 24 22
19 20 21 23 23 27 29 29 27 29 32 34 36 36 33 30 32 32 30 25 24 26 24 23 23 25 23 25 21 25 22 23 24 25 24 26 27 27 24 24 25 26 26 24
21 21 23 23 23 24 28 29 31 30 31 33 32 32 29 26 26 26 25 23 23 24 23 24 25 26 27 29 29 29 28 27 27 27 28 29 27 26 25 21 25 28 28 26
23 22 24 24 23 22 23 27 26 26 30 28 28 28 25 26 25 21 21 23 26 27 28 26 27 25 26 29 29 29 29 28 29 29 25 27 31 30 25 24 23 27 29 29
22 23 23 23 22 22 22 23 23 23 22 20 20 19 21 20 21 21 24 24 25 24 25 24 25 26 29 29 29 28 27 28 26 29 27 29 28 29 28 26 22 26 29 30
20 20 21 21 21 21 20 20 21 21 20 22 22 24 24 23 20 20 21 24 25 23 24 24 27 28 29 27 26 25 24 22 24 24 23 21 22 25 27 25 23 26 27 28
20 20 20 20 19 19 19 20 22 22 22 25 24 25 24 27 24 21 24 27 27 26 25 25 28 26 23 22 22 22 21 23 24 21 21 22 23 23 25 24 22 21 22 22

GFSNGP_con_lsi_123.txt.gz
Lid_Strength_Index
12 13 14 15 14 13 15 14 16 18 19 18 16 16 15 15 15 16 16 17 17 17 17 16 16 14 15 15 14 13 13 13 13 13 12 12 12 13 12 12 12 11 12 12
14 12 14 17 16 15 14 15 16 17 19 15 15 15 16 16 16 17 17 17 17 17 17 17 16 15 16 15 15 14 14 14 13 13 13 13 12 13 13 13 14 14 13 13
16 13 14 18 17 16 15 15 15 18 17 16 17 17 17 17 17 18 18 17 17 17 17 17 16 15 15 16 15 15 15 15 14 13 14 13 13 13 12 13 13 14 15 14
15 15 20 15 12 13 15 15 15 16 16 16 17 17 17 17 17 18 17 17 18 18 18 17 16 15 14 14 15 15 16 16 15 15 15 14 14 14 13 13 13 14 15 15
16 16 15 15 15 15 15 16 14 14 15 15 15 14 17 17 17 18 17 17 17 17 18 17 17 15 15 15 14 16 16 16 16 15 15 15 15 15 14 14 13 14 15 15
14 17 19 16 14 12 12 18 14 15 15 14 12 15 17 17 17 18 17 16 16 16 16 17 16 15 15 16 15 16 16 16 16 15 15 15 14 15 14 14 14 14 14 15
15 16 16 15 13 11 17 16 14 14 15 14 16 16 16 16 17 17 16 16 15 15 16 16 15 15 15 15 15 14 14 14 15 14 14 14 13 13 13 14 14 15 15 15
15 16 18 13 12 14 13 12 12 13 14 15 15 15 16 17 17 17 17 17 16 17 17 16 15 15 16 16 14 14 14 14 14 14 14 14 14 13 13 14 14 15 15 15
15 15 13 13 13 12 11 12 12 13 13 14 15 16 16 17 17 17 17 17 16 16 16 16 16 16 16 16 14 14 14 15 14 14 14 14 15 15 15 14 15 15 15 16
14 13 13 13 13 13 12 12 12 12 13 13 15 15 16 16 17 17 17 17 17 17 17 17 16 16 16 15 14 14 14 14 14 14 14 14 14 14 15 14 15 16 16 16
13 12 13 13 12 12 12 12 13 13 13 14 15 16 16 17 17 18 18 17 17 17 17 17 16 16 16 15 14 14 14 14 14 14 14 14 14 15 15 15 15 15 16 16
13 10 11 12 11 11 12 13 13 14 15 14 15 16 16 17 17 18 18 17 17 18 18 17 17 16 16 15 14 14 14 14 14 14 14 14 14 14 14 15 15 15 15 15
10 9 10 10 11 11 12 13 13 14 14 15 16 16 16 17 17 17 17 18 18 18 18 18 17 17 16 15 14 14 15 15 14 14 14 15 15 15 16 15 15 15 15 16
9 10 13 12 13 12 12 12 13 14 14 15 15 16 16 17 17 17 18 17 18 18 19 19 18 19 18 16 15 16 15 16 15 15 15 15 16 16 16 17 17 17 16 17
9 8 10 11 13 13 13 14 14 15 15 16 15 16 16 17 18 18 18 18 18 19 20 20 19 20 19 18 17 17 16 15 15 15 15 16 15 15 16 16 17 18 17 17
10 11 11 12 13 13 13 14 14 15 15 15 16 16 17 17 18 18 18 19 20 21 21 23 21 21 19 19 18 17 16 17 17 15 15 15 15 15 16 16 17 17 18 19
11 12 12 13 13 13 13 13 13 14 15 16 16 17 17 18 19 20 20 20 21 21 21 22 23 21 21 20 19 17 17 16 18 16 16 15 15 15 15 15 15 16 16 18
8 9 10 11 12 12 13 13 14 15 16 16 17 19 21 20 20 21 22 22 22 22 22 24 23 22 21 20 19 18 17 17 16 16 16 16 15 14 14 14 15 15 15 15
9 10 11 11 11 12 13 14 15 16 18 21 22 22 22 23 22 22 24 24 23 21 21 23 20 21 20 19 18 18 18 18 17 17 16 16 15 15 14 13 13 14 14 14
11 11 11 12 12 13 15 15 17 19 21 23 25 25 23 24 26 26 25 21 20 19 22 21 21 20 19 20 20 18 18 18 17 17 16 15 15 14 14 14 14 14 14 14
12 13 14 15 17 17 18 19 20 22 25 25 23 23 22 23 26 26 22 19 19 22 20 21 20 19 18 19 18 18 18 17 17 17 16 16 15 14 13 13 13 14 14 14
15 16 18 19 19 21 21 21 21 24 25 26 28 26 25 22 24 24 23 19 17 23 19 18 18 21 20 22 17 17 17 17 16 16 15 15 14 14 14 14 14 13 14 14
17 17 19 20 19 20 23 22 23 23 24 24 24 23 21 18 18 18 18 18 18 19 18 18 20 22 23 19 17 17 17 17 16 16 15 15 14 14 14 14 14 14 14 14
18 18 19 20 21 21 21 22 22 22 23 22 22 23 20 19 18 18 17 19 22 21 18 18 19 22 24 17 17 17 16 15 15 15 14 18 14 15 14 14 14 13 14 14
18 19 20 20 19 18 19 20 20 20 20 18 18 18 20 18 18 16 17 17 20 20 17 19 22 22 18 17 16 16 15 15 14 14 14 15 14 14 14 14 14 14 14 14
18 17 18 18 17 17 17 18 18 17 17 17 17 16 16 17 17 17 17 18 18 19 17 16 17 18 17 16 15 15 15 14 14 14 15 14 14 14 14 14 14 14 14 14
17 18 18 18 17 17 17 17 17 16 17 16 16 16 17 17 17 19 20 17 18 18 18 17 17 18 16 15 15 14 14 14 15 15 14 14 14 14 14 14 14 14 14 14